[[{"header":{"parameterUnit":"m.s-1","parameterCategory":1,"la1":31.0,"la2":29.5877,"lo1":-88.7671,"lo2":-86.6584,"dy":0.0162,"dx":0.0185,"nx":115,"ny":88,"refTime":"2024-07-29T18:00:00:Z","depth":0,"parameterNumber":2,"parameterNumberName":"U-component_of_WINDS"},"data":[0.0,0.0,0.0,0.0,0.0,0.0,0.0,0.0,0.0,0.0,0.0,0.0,0.0,0.0,0.0,0.0,0.0,0.0,0.0,0.0,0.0,0.0,0.0,0.0,0.0,0.0,0.0,0.0,0.0,0.0,0.0,0.0,0.0,0.0,0.0,0.0,0.0,0.0,0.0,0.0,0.0,0.0,0.0,0.0,0.0,0.0,0.0,0.0,0.0,0.0,0.0,0.0,0.0,0.0,0.0,0.0,0.0,0.0,0.0,0.0,0.0,0.0,0.0,0.0,0.0,0.0,0.0,0.0,0.0,0.0,0.0,0.0,0.0,0.0,0.0,0.0,0.0,0.0,0.0,0.0,0.0,0.0,0.0,0.0,0.0,0.0,0.0,0.0,0.0,0.0,0.0,0.0,0.0,0.0,0.0,0.0,0.0,0.0,0.0,0.0,0.0,0.0,0.0,0.0,0.0,0.0,0.0,0.0,0.0,0.0,0.0,0.0,0.0,0.0,0.0,0.0,0.0,0.0,0.0,0.0,0.0,0.0,0.0,0.0,0.0,0.0,0.0,0.0,0.0,0.0,0.0,0.0,0.0,0.0,0.0,0.0,0.0,0.0,0.0,0.0,0.0,0.0,0.0,0.0,0.0,0.0,0.0,0.0,0.0,0.0,0.0,0.0,0.0,0.0,0.0,0.0,0.0,0.0,0.0,0.0,0.0,0.0,0.0,0.0,0.0,0.0,0.0,0.0,0.0,0.0,0.0,0.0,0.0,0.0,0.0,0.0,0.0,0.0,0.0,0.0,0.0,0.0,0.0,0.0,0.0,0.0,0.0,0.0,0.0,0.0,0.0,0.0,0.0,0.0,0.0,0.0,0.0,0.0,0.0,0.0,0.0,0.0,0.0,0.0,0.0,0.0,0.0,0.0,0.0,0.0,0.0,0.0,0.0,0.0,0.0,0.0,0.0,0.0,0.0,0.0,0.0,0.0,0.0,0.0,0.0,0.0,0.0,0.0,0.0,0.0,0.0,0.0,0.0,0.0,0.0,0.0,0.0,0.0,0.0,0.0,0.0,0.0,0.0,0.0,0.0,0.0,0.0,0.0,0.0,0.0,0.0,0.0,0.0,0.0,0.0,0.0,0.0,0.0,0.0,0.0,0.0,0.0,0.0,0.0,0.0,0.0,0.0,0.0,0.0,0.0,0.0,0.0,0.0,0.0,0.0,0.0,0.0,0.0,0.0,0.0,0.0,0.0,0.0,0.0,0.0,0.0,0.0,0.0,0.0,0.0,0.0,0.0,0.0,0.0,0.0,0.0,0.0,0.0,0.0,0.0,0.0,0.0,0.0,0.0,0.0,0.0,0.0,0.0,0.0,0.0,0.0,0.0,0.0,0.0,0.0,0.0,0.0,0.0,0.0,0.0,0.0,0.0,0.0,0.0,0.0,0.0,0.0,0.0,0.0,0.0,0.0,0.0,0.0,0.0,0.0,0.0,0.0,0.0,0.0,0.0,0.0,0.0,0.0,0.0,0.0,0.0,0.0,0.0,0.0,0.0,0.0,0.0,0.0,0.0,0.0,0.0,0.0,0.0,0.0,0.0,0.0,0.0,0.0,0.0,0.0,0.0,0.0,0.0,0.0,0.0,0.0,0.0,0.0,0.0,0.0,0.0,0.0,0.0,0.0,0.0,0.0,0.0,0.0,0.0,0.0,0.0,0.0,0.0,0.0,0.0,0.0,0.0,0.0,0.0,0.0,0.0,0.0,0.0,0.0,0.0,0.0,0.0,0.0,0.0,0.0,0.0,0.0,0.0,0.0,0.0,0.0,0.0,0.0,0.0,0.0,0.0,0.0,0.0,0.0,0.0,0.0,0.0,0.0,0.0,0.0,0.0,0.0,0.0,0.0,0.0,0.0,0.0,0.0,0.0,0.0,0.0,0.0,0.0,0.0,0.0,0.0,0.0,0.0,0.0,0.0,0.0,0.0,0.0,0.0,0.0,0.0,0.0,0.0,0.0,0.0,0.0,0.0,0.0,0.0,0.0,0.0,0.0,0.0,0.0,0.0,0.0,0.0,0.0,0.0,0.0,0.0,0.0,0.0,0.0,0.0,0.0,0.0,0.0,0.0,0.0,0.0,0.0,0.0,0.0,0.0,0.0,0.0,0.0,0.0,0.0,0.0,0.0,0.0,0.0,0.0,0.0,0.0,0.0,0.0,0.0,0.0,0.0,0.0,0.0,0.0,0.0,0.0,0.0,0.0,0.0,0.0,0.0,0.0,0.0,0.0,0.0,0.0,0.0,0.0,0.0,0.0,0.0,0.0,0.0,0.0,0.0,0.0,0.0,0.0,0.0,0.0,0.0,0.0,0.0,0.0,0.0,0.0,0.0,0.0,0.0,0.0,0.0,0.0,0.0,0.0,0.0,0.0,0.0,0.0,0.0,0.0,0.0,0.0,0.0,0.0,0.0,0.0,0.0,0.0,0.0,0.0,0.0,0.0,0.0,0.0,0.0,0.0,0.0,0.0,0.0,0.0,0.0,0.0,0.0,0.0,0.0,0.0,0.0,0.0,0.0,0.0,0.0,0.0,0.0,0.0,0.0,0.0,0.0,0.0,0.0,0.0,0.0,0.0,0.0,0.0,0.0,0.0,0.0,0.0,0.0,0.0,0.0,0.0,0.0,0.0,0.0,0.0,0.0,0.0,0.0,0.0,0.0,0.0,0.0,0.0,0.0,0.0,0.0,0.0,0.0,0.0,0.0,0.0,0.0,0.0,0.0,0.0,0.0,0.0,0.0,0.0,0.0,0.0,0.0,0.0,0.0,0.0,0.0,0.0,0.0,0.0,0.0,0.0,0.0,0.0,0.0,0.0,0.0,0.0,0.0,0.0,0.0,0.0,0.0,0.0,0.0,0.0,0.0,0.0,0.0,0.0,0.0,0.0,0.0,0.0,0.0,0.0,0.0,0.0,0.0,0.0,0.0,0.0,0.0,0.0,0.0,0.0,0.0,0.0,0.0,0.0,0.0,0.0,0.0,0.0,0.0,0.0,0.0,0.0,0.0,0.0,0.0,0.0,0.0,0.0,0.0,0.0,0.0,0.0,0.0,0.0,0.0,0.0,0.0,0.0,0.0,0.0,0.0,0.0,0.0,0.0,0.0,0.0,0.0,0.0,0.0,0.0,0.0,0.0,0.0,0.0,0.0,0.0,0.0,0.0,0.0,0.0,0.0,0.0,0.0,0.0,0.0,0.0,0.0,0.0,0.0,0.0,0.0,0.0,0.0,0.0,0.0,0.0,0.0,0.0,0.0,0.0,0.0,0.0,0.0,0.0,0.0,0.0,0.0,0.0,0.0,0.0,0.0,0.0,0.0,0.0,0.0,0.0,0.0,0.0,0.0,0.0,0.0,0.0,0.0,0.0,0.0,0.0,0.0,0.0,0.0,0.0,0.0,0.0,0.0,0.0,0.0,0.0,0.0,0.0,0.0,0.0,0.0,0.0,0.0,0.0,0.0,0.0,0.0,0.0,0.0,0.0,0.0,0.0,0.0,0.0,0.0,0.0,0.0,0.0,0.0,0.0,0.0,0.0,0.0,0.0,0.0,0.0,0.0,0.0,0.0,0.0,0.0,0.0,0.0,0.0,0.0,0.0,0.0,0.0,0.0,0.0,0.0,0.0,0.0,0.0,0.0,0.0,0.0,0.0,0.0,0.0,0.0,0.0,0.0,0.0,0.0,0.0,0.0,0.0,0.0,0.0,0.0,0.0,0.0,0.0,0.0,0.0,0.0,0.0,0.0,0.0,0.0,0.0,0.0,0.0,0.0,0.0,0.0,0.0,0.0,0.0,0.0,0.0,0.0,0.0,0.0,0.0,0.0,0.0,0.0,0.0,0.0,0.0,0.0,0.0,0.0,0.0,0.0,0.0,0.0,0.0,0.0,0.0,0.0,0.0,0.0,0.0,0.0,0.0,0.0,0.0,0.0,0.0,0.0,0.0,0.0,0.0,0.0,0.0,0.0,0.0,0.0,0.0,0.0,0.0,0.0,0.0,0.0,0.0,0.0,0.0,0.0,0.0,0.0,0.0,0.0,0.0,0.0,0.0,0.0,0.0,0.0,0.0,0.0,0.0,0.0,0.0,0.0,0.0,0.0,0.0,0.0,0.0,0.0,0.0,0.0,0.0,0.0,0.0,0.0,0.0,0.0,0.0,0.0,0.0,0.0,0.0,0.0,0.0,0.0,0.0,0.0,0.0,0.0,0.0,0.0,0.0,0.0,0.0,0.0,0.7412,0.0,0.0,0.0,0.0,0.0,0.0,0.0,0.0,0.0,0.0,0.0,0.0,0.0,0.0,0.0,0.0,0.0,0.0,0.0,0.0,0.0,0.0,0.0,0.0,0.0,0.0,0.0,0.0,0.0,0.0,0.0,0.0,0.0,0.0,0.0,0.0,0.0,0.0,0.0,0.0,0.0,0.0,0.0,0.0,0.0,0.0,0.0,0.0,0.0,0.0,0.0,0.0,0.0,0.0,0.0,0.0,0.0,0.0,0.0,0.0,0.0,0.0,0.0,0.0,0.0,0.0,0.0,0.0,0.0,0.0,0.0,0.0,0.0,0.0,0.0,0.0,0.0,0.0,0.0,0.0,0.0,0.0,0.0,0.0,0.0,0.0,0.0,0.0,0.0,0.0,0.0,0.0,0.0,0.0,0.0,0.0,0.0,0.0,0.0,0.0,0.0,0.0,0.0,0.0,0.0,0.0,0.0,0.0,0.0,0.0,0.857,0.804,0.8193,0.8008,0.7425,0.0,0.0,0.0,0.0,0.0,0.0,0.0,0.0,0.0,0.0,0.0,0.0,0.0,0.0,0.0,0.0,0.0,0.0,0.0,0.0,0.0,0.0,0.0,0.0,0.0,0.0,0.0,0.0,0.0,0.0,0.0,0.0,0.0,0.0,0.0,0.0,0.0,0.0,0.0,0.0,0.0,0.0,0.0,0.0,0.0,0.0,0.0,0.0,0.0,0.0,0.0,0.0,0.0,0.0,0.0,0.0,0.0,0.0,0.0,0.0,0.0,0.0,0.0,0.0,0.0,0.0,0.0,0.0,0.0,0.0,0.0,0.0,0.0,0.0,0.0,0.0,0.0,0.0,0.0,0.0,0.0,0.0,0.0,0.0,0.0,0.0,0.0,0.0,0.0,0.0,0.0,0.0,0.0,0.0,0.0,0.0,0.0,0.0,0.0,0.0,0.0,0.0,0.0,0.0,0.0,0.0,0.0,0.0,0.0,0.0,0.0,0.0,0.8298,0.7987,0.7354,0.0,0.0,0.0,0.0,0.0,0.0,0.0,0.0,0.0,0.0,0.0,0.0,0.0,0.0,0.0,0.0,0.0,0.0,0.0,0.0,0.0,0.0,0.0,0.0,0.0,0.0,0.0,0.0,0.0,0.0,0.0,0.0,0.0,0.0,0.0,0.0,0.0,0.0,0.0,0.0,0.0,0.0,0.0,0.0,0.0,0.0,0.0,0.0,0.0,0.0,0.0,0.0,0.0,0.0,0.0,0.0,0.0,0.0,0.0,0.0,0.0,0.0,0.0,0.0,0.0,0.0,0.0,0.0,0.0,0.0,0.0,0.0,0.0,0.0,0.0,0.0,0.0,0.0,0.0,0.0,0.0,0.0,0.0,0.0,0.0,0.0,0.0,0.0,0.0,0.0,0.0,0.0,0.0,0.0,0.0,0.0,0.0,0.0,0.0,0.0,0.0,0.0,0.0,0.0,0.0,0.0,0.0,0.0,0.0,0.0,0.7795,0.8286,0.8292,0.0,0.7195,0.0,0.0,0.0,0.0,0.0,0.0,0.0,0.0,0.0,0.0,0.0,0.0,0.0,0.0,0.0,0.0,0.0,0.0,0.0,0.0,0.0,0.0,0.0,0.0,0.0,0.0,0.0,0.0,0.0,0.0,0.0,0.0,0.0,0.0,0.0,0.0,0.0,0.0,0.0,0.0,0.0,0.0,0.0,0.0,0.0,0.0,0.0,0.0,0.0,0.0,0.0,0.0,0.0,0.0,0.0,0.0,0.0,0.0,0.0,0.0,0.0,0.0,0.0,0.0,0.0,0.0,0.0,0.0,0.0,0.0,0.0,0.0,0.0,0.0,0.0,0.0,0.0,0.0,0.0,0.0,0.0,0.0,0.0,0.0,0.0,0.0,0.0,0.0,0.0,0.0,0.0,0.0,0.0,0.0,0.0,0.0,0.0,0.0,0.0,0.0,0.0,0.0,0.0,0.0,0.0,0.0,0.0,0.0,0.0,0.0,0.7889,0.777,0.7776,0.7611,0.0,0.0,0.0,0.0,0.0,0.0,0.0,0.0,0.0,0.0,0.0,0.0,0.0,0.0,0.0,0.0,0.0,0.0,0.0,0.0,0.0,0.0,0.0,0.0,0.0,0.0,0.0,0.0,0.0,0.0,0.0,0.0,0.0,0.0,0.0,0.0,0.0,0.0,0.0,0.0,0.0,0.0,0.0,0.0,0.0,0.0,0.0,0.0,0.0,0.0,0.0,0.0,0.0,0.0,0.0,0.0,0.0,0.0,0.0,0.0,0.0,0.0,0.0,0.0,0.0,0.0,0.0,0.0,0.0,0.0,0.0,0.0,0.0,0.0,0.0,0.0,0.0,0.0,0.0,0.0,0.0,0.0,0.0,0.0,0.0,0.0,0.0,0.0,0.0,0.0,0.0,0.0,0.0,0.0,0.0,0.0,0.0,0.0,0.0,0.0,0.0,0.0,0.0,0.0,0.0,0.0,0.0,0.0,0.0,0.0,0.7626,0.7762,0.7504,0.7591,0.7568,0.7387,0.0,0.0,0.0,0.0,0.0,0.0,0.0,0.0,0.0,0.0,0.0,0.0,0.0,0.0,0.0,0.0,0.0,0.0,0.0,0.0,0.0,0.0,0.0,0.0,0.0,0.0,0.0,0.0,0.0,0.0,0.0,0.0,0.0,0.0,0.0,0.0,0.0,0.0,0.0,0.0,0.0,0.0,0.0,0.0,0.0,0.0,0.0,0.0,0.0,0.0,0.0,0.0,0.0,0.0,0.0,0.0,0.0,0.0,0.0,0.0,0.0,0.0,0.0,0.0,0.0,0.0,0.0,0.0,0.0,0.0,0.0,0.0,0.0,0.0,0.0,0.0,0.0,0.0,0.0,0.0,0.0,0.0,0.0,0.0,0.0,0.0,0.0,0.0,0.0,0.0,0.0,0.0,0.0,0.0,0.0,0.0,0.0,0.0,0.0,0.0,0.0,0.0,0.0,0.0,0.0,0.0,0.0,0.0,0.8102,0.7386,0.7202,0.769,0.8057,0.7983,0.0,0.0,0.0,0.0,0.0,0.0,0.0,0.0,0.0,0.0,0.0,0.0,0.0,0.0,0.0,0.0,0.0,0.0,0.0,0.0,0.0,0.0,0.0,0.0,0.0,0.0,0.0,0.0,0.0,0.0,0.0,0.0,0.0,0.0,0.0,0.0,0.0,0.0,0.0,0.0,0.0,0.0,0.0,0.0,0.0,0.0,0.0,0.0,0.0,0.0,0.0,0.0,0.0,0.0,0.0,0.0,0.0,0.0,0.0,0.0,0.0,0.0,0.0,0.0,0.0,0.0,0.0,0.0,0.0,0.0,0.0,0.0,0.0,0.0,0.0,0.0,0.0,0.0,0.0,0.0,0.0,0.0,0.0,0.0,0.0,0.0,0.0,0.0,0.0,0.0,0.0,0.0,0.0,0.0,0.0,0.0,0.0,0.0,0.0,0.0,0.0,0.0,0.0,0.0,0.0,0.0,0.0,0.0,0.0,0.6942,0.6995,0.7527,0.8518,0.8019,0.7801,0.0,0.0,0.0,0.0,0.0,0.0,0.0,0.0,0.0,0.0,0.0,0.0,0.0,0.0,0.0,0.0,0.0,0.0,0.0,0.0,0.0,0.0,0.0,0.0,0.0,0.0,0.0,0.0,0.0,0.0,0.0,0.0,0.0,0.0,0.0,0.0,0.0,0.0,0.0,0.0,0.0,0.0,0.0,0.0,0.0,0.0,0.0,0.0,0.0,0.0,0.0,0.0,0.0,0.0,0.0,0.0,0.0,0.0,0.0,0.0,0.0,0.0,0.0,0.0,0.0,0.0,0.0,0.0,0.0,0.0,0.0,0.0,0.0,0.0,0.0,0.0,0.0,0.0,0.0,0.0,0.0,0.0,0.0,0.0,0.0,0.0,0.0,0.0,0.0,0.0,0.0,0.0,0.0,0.0,0.0,0.0,0.0,0.0,0.0,0.0,0.0,0.0,0.0,0.0,0.0,0.0,0.0,0.0,0.0,0.6693,0.0,0.8029,0.8572,0.7937,0.7573,0.0,0.0,0.0,0.0,0.0,0.0,0.0,0.0,0.0,0.0,0.0,0.0,0.0,0.0,0.0,0.0,0.0,0.0,0.0,0.0,0.0,0.0,0.0,0.0,0.0,0.0,0.0,0.0,0.0,0.0,0.0,0.0,0.0,0.0,0.0,0.0,0.0,0.0,0.0,0.0,0.0,0.0,0.0,0.0,0.0,0.0,0.0,0.0,0.0,0.0,0.0,0.0,0.0,0.0,0.0,0.0,0.0,0.0,0.0,0.0,0.0,0.0,0.0,0.0,0.0,0.0,0.0,0.0,0.0,0.0,0.0,0.0,0.0,0.0,0.0,0.0,0.0,0.0,0.0,0.0,0.0,0.0,0.0,0.0,0.0,0.0,0.0,0.0,0.0,0.0,0.0,0.0,0.0,0.0,0.0,0.0,0.0,0.0,0.0,0.0,0.0,0.0,0.0,0.0,0.0,0.0,0.0,0.0,0.6956,0.7673,0.8553,0.859,0.7773,0.7848,0.7383,0.0,0.0,0.0,0.0,0.0,0.0,0.0,0.0,0.0,0.0,0.0,0.0,0.0,0.0,0.0,0.0,0.0,0.0,0.0,0.0,0.0,0.0,0.0,0.0,0.0,0.0,0.0,0.0,0.0,0.0,0.0,0.0,0.0,0.0,0.0,0.0,0.0,0.0,0.0,0.0,0.0,0.0,0.0,0.0,0.0,0.0,0.0,0.0,0.0,0.0,0.0,0.0,0.0,0.0,0.0,0.0,0.0,0.0,0.0,0.0,0.0,0.0,0.0,0.0,0.0,0.0,0.0,0.0,0.0,0.0,0.0,0.0,0.0,0.0,0.0,0.0,0.0,0.0,0.0,0.0,0.0,0.0,0.0,0.0,0.0,0.0,0.0,0.0,0.0,0.0,0.0,0.0,0.0,0.0,0.0,0.0,0.0,0.0,0.0,0.0,0.0,0.0,0.0,0.0,0.0,0.0,0.0,0.0,0.0,0.7508,0.8023,0.8397,0.8638,0.7946,0.7494,0.0,0.0,0.0,0.0,0.0,0.0,0.0,0.0,0.0,0.0,0.0,0.0,0.0,0.0,0.0,0.0,0.0,0.0,0.0,0.0,0.0,0.0,0.0,0.0,0.0,0.0,0.0,0.0,0.0,0.0,0.0,0.0,0.0,0.0,0.0,0.0,0.0,0.0,0.0,0.0,0.0,0.0,0.0,0.0,0.0,0.0,0.0,0.0,0.0,0.0,0.0,0.0,0.0,0.0,0.0,0.0,0.0,0.0,0.0,0.0,0.0,0.0,0.0,0.0,0.0,0.0,0.0,0.0,0.0,0.0,0.0,0.0,0.0,0.0,0.0,0.0,0.0,0.0,0.0,0.0,0.0,0.0,0.0,0.0,0.0,0.0,0.0,0.0,0.0,0.0,0.0,0.0,0.0,0.0,0.0,0.0,0.0,0.0,0.0,0.0,0.0,0.0,0.0,0.0,0.0,0.0,0.0,0.0,0.0,0.8064,0.8418,0.8786,0.91,0.8317,0.78,0.7594,0.0,0.0,0.0,0.0,0.0,0.0,0.0,0.0,0.0,0.0,0.0,0.0,0.0,0.0,0.0,0.0,0.0,0.0,0.0,0.0,0.0,0.0,0.0,0.0,0.0,0.0,0.0,0.0,0.0,0.0,0.0,0.0,0.0,0.0,0.0,0.0,0.0,0.0,0.0,0.0,0.0,0.0,0.0,0.0,0.0,0.0,0.0,0.0,0.0,0.0,0.0,0.0,0.0,0.0,0.0,0.0,0.0,0.0,0.0,0.0,0.0,0.0,0.0,0.0,0.0,0.0,0.0,0.0,0.0,0.0,0.0,0.0,0.0,0.0,0.0,0.0,0.0,0.0,0.0,0.0,0.0,0.0,0.0,0.0,0.0,0.0,0.0,0.0,0.0,0.0,0.0,0.0,0.0,0.0,0.0,0.0,0.0,0.0,0.0,0.0,0.0,0.0,0.0,0.0,0.0,0.0,0.0,0.0,0.9151,0.9629,0.9642,0.9152,0.8863,0.8242,0.0,0.0,0.0,0.0,0.0,0.0,0.0,0.0,0.0,0.0,0.0,0.0,0.0,0.0,0.0,0.0,0.0,0.0,0.0,0.0,0.0,0.0,0.0,0.0,0.0,0.0,0.0,0.0,0.0,0.0,0.0,0.0,0.0,0.0,0.0,0.0,0.0,0.0,0.0,0.0,0.0,0.0,0.0,0.0,0.0,0.0,0.0,0.0,0.0,0.0,0.0,0.0,0.0,0.0,0.0,0.0,0.0,0.0,0.0,0.0,0.0,0.0,0.0,0.0,0.0,0.0,0.0,0.0,0.0,0.0,0.0,0.0,0.0,0.0,0.0,0.0,0.0,0.0,0.0,0.0,0.0,0.0,0.0,0.0,0.0,0.0,0.0,0.0,0.0,0.0,0.0,0.0,0.0,0.0,0.0,0.0,0.0,0.0,0.0,0.0,0.0,0.0,0.0,0.0,0.0,0.0,0.0,0.0,0.0,0.9673,0.983,0.9856,0.9679,0.9242,0.8769,0.0,0.0,0.0,0.0,0.0,0.0,0.0,0.0,0.0,0.0,0.0,0.0,0.0,0.0,0.0,0.0,0.0,0.0,0.0,0.0,0.0,0.0,0.0,0.0,0.0,0.0,0.0,0.0,0.0,0.0,0.0,0.0,0.0,0.0,0.0,0.0,0.0,0.0,0.0,0.0,0.0,0.0,0.0,0.0,0.0,0.0,0.0,0.0,0.0,0.0,0.0,0.0,0.0,0.0,0.0,0.0,0.0,0.0,0.0,0.0,0.0,0.0,0.0,0.0,0.0,0.0,0.0,0.0,0.0,0.0,0.0,0.0,0.0,0.0,0.0,0.0,0.0,0.0,0.0,0.0,0.0,0.0,0.0,0.0,0.0,0.0,0.0,0.0,0.0,0.0,0.0,0.0,0.0,0.0,0.0,0.0,0.0,0.0,0.0,0.0,0.0,0.0,0.0,0.0,0.0,0.0,0.0,0.0,0.9579,0.9893,0.9873,0.9873,0.9899,0.9598,0.9261,0.0,0.0,0.0,0.0,0.0,0.0,0.0,0.0,0.0,0.0,0.0,0.0,0.0,0.0,0.0,0.0,0.0,0.0,0.0,0.0,0.0,0.0,0.0,0.0,0.0,0.0,0.0,0.0,0.0,0.0,0.0,0.0,0.0,0.0,0.0,0.0,0.0,0.0,0.0,0.0,0.0,0.0,0.0,0.0,0.0,0.0,0.0,0.0,0.0,0.0,0.0,0.0,0.0,0.0,0.0,0.0,0.0,0.0,0.0,0.0,0.0,0.0,0.0,0.0,0.0,0.0,0.0,0.0,0.0,0.0,0.0,0.0,0.0,0.0,0.0,0.0,0.0,0.0,0.0,0.0,0.0,0.0,0.0,0.0,0.0,0.0,0.0,0.0,0.0,0.0,0.0,0.0,0.0,0.0,0.0,0.0,0.0,0.0,0.0,0.0,0.0,0.0,0.0,0.0,0.0,0.0,0.0,0.0,0.9899,0.9873,0.9873,0.9873,0.9873,0.9873,0.9673,0.0,0.0,0.0,0.0,0.0,0.0,0.0,0.0,0.0,0.0,0.0,0.0,0.0,0.0,0.0,0.0,0.0,0.0,0.0,0.0,0.0,0.0,0.0,0.0,0.0,0.0,0.0,0.0,0.0,0.0,0.0,0.0,0.0,0.0,0.0,0.0,0.0,0.0,0.0,0.0,0.0,0.0,0.0,0.0,0.0,0.0,0.0,0.0,0.0,0.0,0.0,0.0,0.0,0.0,0.0,0.0,0.0,0.0,0.0,0.0,0.0,0.0,0.0,0.0,0.0,0.0,0.0,0.0,0.0,0.0,0.0,0.0,0.0,0.0,0.0,0.0,0.0,0.0,0.0,0.0,0.0,0.0,0.0,0.0,0.0,0.0,0.0,0.0,0.0,0.0,0.0,0.0,0.0,0.0,0.0,0.0,0.0,0.0,0.0,0.0,0.0,0.0,0.0,0.0,0.0,0.0,0.0,0.0,0.9873,0.9873,0.9873,0.9873,0.9873,0.9873,0.9855,0.0,0.0,0.0,0.0,0.0,0.0,0.0,0.0,0.0,0.0,0.0,0.0,0.0,0.0,0.0,0.0,0.0,0.0,0.0,0.0,0.0,0.0,0.0,0.0,0.0,0.0,0.0,0.0,0.0,0.0,0.0,0.0,0.0,0.0,0.0,0.0,0.0,0.0,0.0,0.0,0.0,0.0,0.0,0.0,0.0,0.0,0.0,0.0,0.8874,0.0,0.0,0.0,0.0,0.0,0.0,0.0,0.0,0.0,0.0,0.0,0.0,0.0,0.0,0.0,0.0,0.0,0.0,0.0,0.0,0.0,0.0,0.0,0.0,0.0,0.0,0.0,0.0,0.0,0.0,0.0,0.0,0.0,0.0,0.0,0.0,0.0,0.0,0.0,0.0,0.0,0.0,0.0,0.0,0.0,0.0,0.0,0.0,0.0,0.0,0.0,0.0,0.0,0.0,0.0,0.0,0.0,0.0,0.0,0.9873,0.9873,0.9873,0.9873,0.9873,0.9873,0.9873,0.0,0.0,0.0,0.0,0.0,0.0,0.0,0.0,0.0,0.0,0.0,0.0,0.0,0.0,0.0,0.0,0.0,0.0,0.0,0.0,0.0,0.0,0.0,0.0,0.0,0.0,0.0,0.0,0.0,0.0,0.0,0.0,0.0,0.0,0.0,0.0,0.0,0.0,0.0,0.0,0.0,0.0,0.0,0.0,0.0,0.0,0.0,0.0,0.0,0.0,0.0,0.0,0.0,0.0,0.0,0.0,0.0,0.0,0.0,0.0,0.0,0.0,0.0,0.0,0.0,0.0,0.0,0.0,0.0,0.0,0.0,0.0,0.0,0.0,0.0,0.0,0.0,0.0,0.0,0.0,0.0,0.0,0.0,0.0,0.0,0.0,0.0,0.0,0.0,0.0,0.0,0.0,0.0,0.0,0.0,0.0,0.0,0.0,0.0,0.0,0.0,0.0,0.0,0.0,0.0,0.0,0.0,0.9315,0.9818,0.9893,0.9873,0.9873,0.9873,0.9873,0.9873,0.9887,0.0,0.0,0.0,0.0,0.0,0.0,0.0,0.0,0.0,0.0,0.0,0.0,0.0,0.0,0.0,0.0,0.0,0.0,0.0,0.0,0.0,0.0,0.0,0.0,0.0,0.0,0.0,0.0,0.0,0.0,0.0,0.0,0.0,0.0,0.0,0.0,0.0,0.0,0.8884,0.9787,0.0,0.0,0.0,0.0,0.0,0.0,0.0,0.0,0.997,0.0,0.0,0.0,0.0,0.0,0.0,0.0,0.0,0.0,0.0,0.0,0.0,0.0,0.0,0.0,0.0,0.0,0.0,0.0,0.0,0.0,0.0,0.0,0.0,0.0,0.0,0.0,0.0,0.0,0.0,0.0,0.0,0.0,0.0,0.0,0.0,0.0,0.0,0.0,0.0,0.0,0.0,0.0,0.0,0.0,0.0,0.0,0.0,0.0,0.0,0.0,0.0,0.0,0.0,0.0,0.0,0.8939,0.9151,0.9428,0.9893,0.9873,0.9873,0.9873,0.9873,0.9873,0.9855,0.0,0.0,0.0,0.0,0.0,0.0,0.0,0.0,0.0,0.0,0.0,0.0,0.0,0.0,0.0,0.0,0.0,0.0,0.0,0.0,0.0,0.0,0.0,0.0,0.0,0.0,0.0,0.0,0.0,0.0,0.0,0.0,0.0,0.0,0.0,0.0,0.0,0.0,0.0,0.9883,1.0192,0.0,0.0,0.0,0.0,0.0,0.0,0.0,0.0,1.031,0.0,0.0,0.0,0.0,0.0,0.0,0.0,0.0,0.0,0.0,0.0,0.0,0.0,0.0,0.0,0.0,0.0,0.0,0.0,0.0,0.0,0.0,0.0,0.0,0.0,0.0,0.0,0.0,0.0,0.0,0.0,0.0,0.0,0.0,0.0,0.0,0.0,0.0,0.0,0.0,0.0,0.0,0.0,0.0,0.0,0.0,0.0,0.0,0.0,0.0,0.0,0.0,0.0,0.0,0.0,0.8844,0.9274,0.9636,0.9887,0.9873,0.9873,0.9893,0.9623,0.9617,0.0,0.0,0.0,0.0,0.0,0.0,0.0,0.0,0.0,0.0,0.0,0.0,0.0,0.0,0.0,0.0,0.0,0.0,0.0,0.0,0.0,0.0,0.0,0.0,0.0,0.0,0.0,0.0,0.0,0.0,0.0,0.0,0.0,0.0,0.0,0.0,0.0,0.0,0.0,0.0,1.0664,1.0943,1.1091,0.0,0.0,0.0,0.0,0.0,0.0,1.0254,1.031,0.0,0.0,0.0,0.0,0.0,0.0,0.0,0.0,0.0,0.0,0.0,0.0,0.0,0.0,0.0,0.0,0.0,0.0,0.0,0.0,0.0,0.0,0.0,0.0,0.0,0.0,0.0,0.0,0.0,0.0,0.0,0.0,0.0,0.0,0.0,0.0,0.0,0.0,0.0,0.0,0.0,0.0,0.0,0.0,0.0,0.0,0.0,0.0,0.0,0.0,0.0,0.0,0.0,0.0,0.0,0.8606,0.9412,0.99,1.0015,0.9995,0.9995,0.9989,0.9515,0.9428,0.0,0.0,0.0,0.0,0.0,0.0,0.0,0.0,0.0,0.0,0.0,0.0,0.0,0.0,0.0,0.0,0.0,0.0,0.0,0.0,0.0,0.0,0.0,0.0,0.0,0.0,0.0,0.0,0.0,0.0,0.0,0.0,0.0,0.0,0.0,0.0,0.0,0.0,0.0,0.0,0.0,1.1733,1.1272,1.116,0.0,0.0,0.0,0.0,1.0724,1.0549,0.0,0.0,0.0,0.0,0.0,0.0,0.0,0.0,0.0,0.0,0.0,0.0,0.0,0.0,0.0,0.0,0.0,0.0,0.0,0.0,0.0,0.0,0.0,0.0,0.0,0.0,0.0,0.0,0.0,0.0,0.0,0.0,0.0,0.0,0.0,0.0,0.0,0.0,0.0,0.0,0.0,0.0,0.0,0.0,0.0,0.0,0.0,0.0,0.0,0.0,0.0,0.0,0.0,0.0,0.0,0.0,0.8594,0.9278,0.9866,1.0302,1.0328,1.0328,1.0353,1.0001,0.9598,0.0,0.0,0.0,0.0,0.0,0.0,0.0,0.0,0.0,0.0,0.0,0.0,0.0,0.0,0.0,0.0,0.0,0.0,0.0,0.0,0.0,0.0,0.0,0.0,0.0,0.0,0.0,0.0,0.0,0.0,0.0,0.0,0.0,0.0,0.0,0.0,0.0,0.0,0.0,0.0,0.0,1.1928,1.1078,1.1433,1.1774,0.0,0.0,1.1426,1.1975,1.2049,0.0,0.0,0.0,0.0,0.0,0.0,0.0,0.0,0.0,0.0,0.0,0.0,0.0,0.0,0.0,0.0,0.0,0.0,0.0,0.0,0.0,0.0,0.0,0.0,0.0,0.0,0.0,0.0,0.0,0.0,0.0,0.0,0.0,0.0,0.0,0.0,0.0,0.0,0.0,0.0,0.0,0.0,0.0,0.0,0.0,0.0,0.0,0.0,0.0,0.0,0.0,0.0,0.0,0.0,0.0,0.8662,0.8634,0.9553,1.0074,1.0103,1.0116,1.0116,1.0116,0.9691,0.9322,0.0,0.0,0.0,0.0,0.0,0.0,0.0,0.0,0.0,0.0,0.0,0.0,0.0,0.0,0.0,0.0,0.0,0.0,0.0,0.0,0.0,0.0,0.0,0.0,0.0,0.0,0.0,0.0,0.0,0.0,0.0,0.0,0.0,0.0,0.0,0.0,0.0,0.0,0.0,0.0,0.0,0.0,1.2049,1.2069,0.0,0.0,0.0,1.1376,1.2187,0.0,0.0,0.0,0.0,0.0,0.0,0.0,0.0,0.0,0.0,0.0,0.0,0.0,0.0,0.0,0.0,0.0,0.0,0.0,0.0,0.0,0.0,0.0,0.0,0.0,0.0,0.0,0.0,0.0,0.0,0.0,0.0,0.0,0.0,0.0,0.0,0.0,0.0,0.0,0.0,0.0,0.0,0.0,0.0,0.0,0.0,0.0,0.0,0.0,0.0,0.0,0.0,0.0,0.0,0.0,0.0,0.0,0.8634,0.9791,1.0279,1.0046,1.0021,1.0027,1.0015,0.9547,0.0,0.0,0.0,0.0,0.0,0.0,0.0,0.0,0.0,0.0,0.0,0.0,0.0,0.0,0.0,0.0,0.0,0.0,0.0,0.0,0.0,0.0,0.0,0.0,0.0,0.0,0.0,0.6633,0.0,0.0,0.0,0.0,0.0,0.0,0.0,0.0,0.0,0.0,0.0,0.0,0.0,0.0,1.3194,1.2967,1.2843,1.2802,0.0,0.0,1.1763,1.2572,1.194,1.1442,0.0,0.0,0.0,0.0,0.0,0.0,0.0,0.0,0.0,0.0,0.0,0.0,0.0,0.0,0.0,0.0,0.0,0.0,0.0,0.0,0.0,0.0,0.0,0.0,0.0,0.0,0.0,0.0,0.0,0.0,0.0,0.0,0.0,0.0,0.0,0.0,0.0,0.0,0.0,0.0,0.0,0.0,0.0,0.0,0.0,0.0,0.0,0.0,0.0,0.0,0.0,0.0,0.0,0.0,0.8656,0.8633,0.9791,1.0403,1.0353,1.0378,1.0378,1.0353,1.0027,0.9372,0.0,0.0,0.0,0.0,0.0,0.0,0.0,0.0,0.0,0.0,0.0,0.0,0.0,0.0,0.0,0.0,0.0,0.0,0.0,0.0,0.0,0.0,0.0,0.0,0.0,0.0,0.0,0.0,0.0,0.0,0.0,0.0,0.0,0.0,0.0,0.0,0.0,0.0,0.0,0.0,0.0,1.4336,1.3391,1.3782,1.4153,0.0,1.3588,1.3275,1.3644,1.3111,1.2362,1.1465,0.0,0.0,0.0,0.0,0.0,0.0,0.0,0.0,0.0,0.0,0.0,0.0,0.0,0.0,0.0,0.0,0.0,0.0,0.0,0.0,0.0,0.0,0.0,0.0,0.0,0.0,0.0,0.0,0.0,0.0,0.0,0.0,0.0,0.0,0.0,0.0,0.0,0.0,0.0,0.0,0.0,0.0,0.0,0.0,0.0,0.0,0.0,0.0,0.0,0.0,0.0,0.0,0.0,0.8819,0.8628,0.9784,1.0304,1.0091,1.0097,1.0091,1.0091,0.997,0.9403,0.0,0.0,0.0,0.0,0.0,0.0,0.0,0.0,0.0,0.0,0.0,0.0,0.0,0.0,0.0,0.0,0.0,0.0,0.0,0.0,0.0,0.0,0.0,0.0,0.0,0.0,0.0,0.0,0.6931,0.7232,0.7598,0.0,0.0,0.0,0.0,0.0,0.0,0.0,0.0,0.0,0.0,1.4658,1.4275,1.4448,0.0,0.0,1.4049,1.3653,1.3784,1.3226,1.2537,1.1733,1.1962,0.0,0.0,0.0,0.0,0.0,0.0,0.0,0.0,0.0,0.0,0.0,0.0,0.0,0.0,0.0,0.0,0.0,0.0,0.0,0.0,0.0,0.0,0.0,0.0,0.0,0.0,0.0,0.0,0.0,0.0,0.0,0.0,0.0,0.0,0.0,0.0,0.0,0.0,0.0,0.0,0.0,0.0,0.0,0.0,0.0,0.0,0.0,0.0,0.0,0.0,0.0,0.0,0.8873,0.8742,0.9741,1.0135,0.9912,0.9873,0.9873,0.9873,0.9873,0.9472,0.0,0.0,0.0,0.0,0.0,0.0,0.0,0.0,0.0,0.0,0.0,0.0,0.0,0.0,0.0,0.0,0.0,0.0,0.0,0.0,0.0,0.0,0.0,0.0,0.0,0.0,0.0,0.0,0.7064,0.7549,0.8124,0.0,0.0,0.0,0.0,0.0,0.0,0.0,0.0,0.0,0.0,1.5117,1.5102,1.5109,1.5117,1.5089,1.4528,1.4109,1.4101,1.3705,1.3175,1.2516,0.0,0.0,0.0,0.0,0.0,0.0,0.0,0.0,0.0,0.0,0.0,0.0,0.0,0.0,0.0,0.0,0.0,0.0,0.0,0.0,0.0,0.0,0.0,0.0,0.0,0.0,0.0,0.7369,0.0,0.0,0.6657,0.0,0.0,0.0,0.0,0.0,0.0,0.0,0.0,0.0,0.0,0.0,0.0,0.0,0.0,0.0,0.0,0.0,0.0,0.0,0.0,0.0,0.0,0.8775,0.9105,0.9667,0.9905,0.9918,0.9905,0.9873,0.9873,0.9873,0.9636,0.9088,0.0,0.0,0.0,0.0,0.0,0.0,0.0,0.0,0.0,0.0,0.0,0.0,0.0,0.0,0.0,0.0,0.0,0.0,0.0,0.0,0.0,0.0,0.0,0.0,0.0,0.0,0.6913,0.7328,0.7934,0.0,0.0,0.0,0.0,0.0,0.0,0.0,0.0,0.0,1.4797,1.5379,1.5776,1.5776,1.5791,1.5784,1.5784,1.5236,1.4782,1.4775,1.4745,1.4543,0.0,0.0,0.0,0.0,0.0,0.0,0.0,0.0,0.0,0.0,0.0,0.0,0.0,0.0,0.0,0.0,0.0,0.0,0.0,0.0,0.0,0.0,0.0,0.0,0.0,0.0,0.0,0.8321,0.7983,0.0,0.0,0.0,0.0,0.0,0.0,0.0,0.0,0.0,0.0,0.0,0.9397,1.0131,0.0,0.0,0.0,0.0,0.0,0.0,0.0,0.0,0.0,0.0,0.0,0.0,0.9222,0.9821,0.9875,1.0075,1.0399,1.0087,0.9873,0.9873,0.9873,0.9636,0.9119,0.0,0.0,0.0,0.0,0.0,0.0,0.0,0.0,0.0,0.0,0.0,0.0,0.0,0.0,0.0,0.0,0.0,0.0,0.0,0.0,0.0,0.0,0.0,0.0,0.0,0.7382,0.0,0.0,0.0,0.0,0.0,0.0,0.0,0.0,0.0,0.0,1.4244,1.4982,1.5424,1.5656,1.5927,1.6331,1.6413,1.6398,0.0,0.0,0.0,0.0,0.0,0.0,0.0,0.0,0.0,0.0,0.0,0.0,0.0,0.0,1.583,1.4105,1.3802,1.3952,1.4378,0.0,0.0,0.0,0.0,0.0,0.0,0.0,0.0,0.0,0.0,0.0,0.0,0.0,0.0,0.9466,0.9122,0.8939,0.0,0.0,0.0,0.0,0.0,0.0,0.0,0.0,1.0238,1.0495,1.0521,1.1236,1.1393,1.1029,1.0853,1.032,0.0,0.0,0.0,0.0,0.0,0.0,0.0,0.0,0.9779,1.0334,1.0234,1.0343,1.0656,1.0182,0.9873,0.9873,0.9873,0.9636,0.9119,0.8386,0.7901,0.0,0.0,0.0,0.0,0.0,0.0,0.0,0.0,0.0,0.0,0.0,0.0,0.0,0.0,0.0,0.0,0.0,0.0,0.0,0.0,0.0,0.0,0.0,0.8095,0.0,0.0,0.0,0.0,0.0,0.0,0.0,0.0,0.0,1.458,1.5059,1.571,1.6361,1.6083,1.6113,1.6936,0.0,0.0,0.0,0.0,0.0,0.0,0.0,1.6219,1.6421,1.6863,1.7191,1.7369,1.7742,1.7959,1.7727,0.0,0.0,1.5487,1.5143,1.5306,1.5732,1.5815,1.5942,1.6361,1.645,1.645,0.0,0.0,0.0,0.0,1.1594,0.0,0.0,0.0,1.1023,1.0725,0.0,1.0182,0.0,0.0,0.0,0.0,0.9264,1.0244,0.0,0.0,1.1343,1.1619,1.1644,1.1657,1.1644,1.1682,1.214,1.209,1.1487,0.9472,0.0,0.0,0.0,0.0,0.0,0.0,1.0417,1.0765,1.0744,1.0719,1.0712,1.0219,0.9924,0.9905,0.9873,0.9648,0.9163,0.9094,0.8832,0.8349,0.7763,0.0,0.0,0.0,0.0,0.0,0.0,0.0,0.0,0.0,0.0,0.0,0.0,0.0,0.0,0.0,0.0,0.0,0.0,0.0,0.0,0.8199,0.0,0.0,0.0,0.0,0.0,0.0,0.0,0.0,0.0,1.6502,1.5993,1.6361,1.6973,1.7593,0.0,0.0,0.0,0.0,1.7003,1.7623,1.7705,1.7682,1.7705,1.8208,1.8381,1.7832,0.0,0.0,1.8837,1.8732,1.8545,1.7891,1.8336,1.8523,1.7839,1.7617,1.7593,1.766,1.763,1.772,1.7749,1.7749,1.7749,1.2303,0.0,0.0,0.0,0.0,1.1751,1.204,1.2724,1.214,1.1701,1.133,1.118,0.0,0.0,0.0,0.0,0.0,0.0,1.1544,1.1889,1.2096,1.2391,1.2735,1.2722,1.2728,1.2728,1.2529,1.2335,1.2134,1.1142,1.0561,1.0385,0.0,0.0,0.0,0.0,1.1433,1.1876,1.1538,1.1343,1.1343,1.0778,1.0301,0.9918,0.9873,0.9818,0.9667,0.9314,0.9037,0.8874,0.8349,0.0,0.0,0.0,0.0,0.0,0.0,0.0,0.0,0.0,0.0,0.0,0.0,0.0,0.0,0.0,0.0,0.0,0.0,0.0,0.8852,0.8814,0.936,0.0,0.0,0.0,0.0,0.0,0.0,0.0,0.0,0.0,1.7827,1.761,1.7481,0.0,0.0,1.7468,1.8313,1.8261,1.8216,1.8395,1.8029,0.0,1.8366,1.7757,1.769,1.8919,1.9443,1.963,1.9443,1.9398,1.9338,1.9144,1.9271,1.9338,1.9129,1.8336,1.7921,1.8257,1.8425,1.8597,1.9001,1.9121,1.9114,1.2803,1.2241,1.2241,1.2429,1.2666,1.2379,1.2623,1.3167,1.2841,1.2554,1.2247,1.2247,1.1745,1.0929,1.1451,0.0,0.0,0.0,1.263,1.2736,1.2716,1.2885,1.3192,1.321,1.321,1.3185,1.2866,1.2703,1.2691,1.2404,1.2045,1.1693,0.0,1.1524,1.1386,1.1709,1.2071,1.2379,1.2077,1.1914,1.1908,1.1129,1.0565,1.0232,1.0018,0.9873,0.9893,0.9592,0.9428,0.9428,0.8895,0.8455,0.0,0.0,0.0,0.0,0.0,0.0,0.0,0.0,0.0,0.0,0.0,0.7262,0.6956,0.0,0.0,0.0,0.8266,0.9191,1.0071,1.0625,0.0,0.0,0.0,0.0,0.0,0.0,0.0,1.7003,1.7906,1.8553,1.8687,1.859,1.8508,1.8493,1.8011,1.8026,1.8972,0.0,1.8799,1.9054,1.8538,1.8253,1.8635,1.8036,1.7981,1.9443,1.9697,1.9697,1.9697,1.9697,1.9697,1.9697,1.9697,1.9697,1.9697,1.9016,1.8597,1.9001,1.9099,1.9241,1.9615,1.9697,1.9697,1.3217,1.3267,1.3261,1.3242,1.321,1.3248,1.3229,1.321,1.3204,1.321,1.321,1.321,1.2941,1.258,1.3079,0.0,1.2649,1.3644,1.3766,1.3261,1.3223,1.321,1.321,1.321,1.321,1.321,1.321,1.321,1.3204,1.3198,1.2935,1.2485,1.1964,1.1701,1.1712,1.2197,1.2473,1.2479,1.2479,1.2454,1.2391,1.132,1.0769,1.0762,1.0251,0.9962,0.9968,0.9924,0.9873,0.988,0.9416,0.9144,0.9069,0.0,0.0,0.0,0.0,0.0,0.0,0.0,0.0,0.0,0.0,0.0,0.0,0.0,0.0,0.0,1.0089,0.0,1.1192,1.3044,0.0,0.0,0.0,1.5777,1.6753,1.7191,1.7537,1.7806,0.0,0.0,1.8867,1.9308,1.9697,1.9697,1.8642,1.8321,1.9518,1.9166,1.8994,1.9563,1.9114,1.8732,1.8822,1.8762,1.8934,1.957,1.9697,1.9697,1.9697,1.9697,1.9697,1.9697,1.9697,1.9697,1.9697,1.963,1.9697,1.966,1.9667,1.9682,1.9697,1.9697,1.9697,1.3477,1.389,1.3896,1.3615,1.3235,1.3678,1.3615,1.3217,1.321,1.321,1.321,1.321,1.3389,1.3726,1.428,1.4412,1.4287,1.4154,1.4016,1.3871,1.3392,1.321,1.321,1.321,1.321,1.321,1.321,1.321,1.321,1.321,1.3135,1.3004,1.2879,1.2636,1.2253,1.2728,1.3004,1.3004,1.3004,1.2803,1.241,1.1732,1.1374,1.1374,1.0828,1.0506,1.0493,1.0125,0.9873,0.9893,0.9774,0.9523,0.9113,0.8455,0.0,0.0,0.0,0.0,0.0,0.0,0.0,0.0,0.0,0.833,0.7468,0.0,0.8851,0.0,1.003,1.1342,1.2907,1.3439,0.0,0.0,1.6349,1.6892,1.8222,1.8381,1.8589,1.9166,1.9503,1.963,1.9508,1.9585,1.9697,1.9682,1.9413,1.9346,1.9652,1.9606,1.9503,1.96,1.9121,1.8889,1.9301,1.945,1.9488,1.9652,1.9697,1.9697,1.9697,1.9697,1.9697,1.9697,1.9697,1.9697,1.9697,1.9697,1.9697,1.9697,1.9697,1.9697,1.9697,1.9697,1.9697,1.3421,1.377,1.4249,1.4129,1.3628,1.3959,1.4047,1.3948,1.3703,1.3735,1.3961,1.3967,1.4136,1.4481,1.5029,1.5103,1.4916,1.4853,1.4557,1.4079,1.377,1.3477,1.321,1.321,1.321,1.321,1.321,1.321,1.3217,1.3471,1.3596,1.3603,1.3848,1.3816,1.3521,1.3571,1.3483,1.321,1.321,1.3041,1.2741,1.2241,1.1833,1.1594,1.128,1.0866,1.0349,1.0295,1.0157,0.9912,0.9873,0.9767,0.9478,0.8962,0.8619,0.0,0.0,0.0,0.0,0.0,0.0,0.0,0.0,0.0,0.0,0.0,0.9756,1.0125,1.1429,1.2721,1.384,1.4859,1.5975,1.7211,1.7758,1.8376,1.9178,1.9211,1.9278,1.9681,1.9697,1.9697,1.9697,1.9697,1.9697,1.9697,1.9697,1.9697,1.9697,1.9697,1.9697,1.9675,1.9121,1.8814,1.9203,1.9256,1.9353,1.9622,1.9697,1.9697,1.9697,1.9697,1.9697,1.9697,1.9697,1.9697,1.9697,1.9697,1.9697,1.9697,1.9697,1.9697,1.9697,1.9697,1.9697,1.3448,1.3599,1.4576,1.4771,1.44,1.433,1.4532,1.4878,1.44,1.4462,1.4909,1.4979,1.5016,1.5054,1.5555,1.5536,1.5116,1.5511,1.5178,1.4305,1.4148,1.3833,1.3311,1.3311,1.3304,1.3311,1.3379,1.3417,1.3417,1.3959,1.4198,1.4217,1.4664,1.4909,1.489,1.4507,1.3997,1.3317,1.3311,1.3279,1.3198,1.2722,1.2284,1.182,1.1726,1.1205,1.0188,1.055,1.055,1.005,1.0075,1.0087,1.0,0.9548,0.9466,0.0,0.9472,0.0,0.0,0.0,0.0,0.0,0.0,0.0,0.0,1.078,1.1136,1.1953,1.3628,1.4699,1.4782,1.6731,1.8021,1.8151,1.9066,1.9697,1.9697,1.9697,1.9697,1.9697,1.9697,1.9697,1.9697,1.9697,1.9697,1.9697,1.9697,1.9697,1.9697,1.9697,1.9697,1.9697,1.9211,1.8942,1.8949,1.8904,1.9084,1.9577,1.9697,1.9697,1.9697,1.9697,1.9697,1.9697,1.9697,1.9697,1.9697,1.9697,1.9697,1.9697,1.9697,1.9697,1.9697,1.9697,1.9697,1.482,1.5254,1.5454,1.5731,1.6013,1.5567,1.5185,1.4903,1.4796,1.4809,1.4908,1.5388,1.553,1.5586,1.6114,1.6302,1.6195,1.585,1.5586,1.5348,1.45,1.4028,1.3934,1.3934,1.3934,1.3959,1.4381,1.4563,1.4563,1.4695,1.4758,1.4758,1.4853,1.4909,1.4935,0.0,0.0,0.0,1.3928,1.3684,1.3223,1.3098,1.2991,1.2885,1.2485,0.0,1.1318,1.1368,1.1155,1.0593,1.101,0.0,0.0,0.0,0.0,0.0,0.0,0.0,0.0,0.0,0.0,0.0,1.2232,1.2104,1.1408,1.2823,1.4127,1.4794,1.5889,1.6795,1.7339,1.8064,1.8758,1.9321,1.9571,1.9697,1.9697,1.9697,1.9697,1.9697,1.9697,1.9697,1.9697,1.9697,1.9697,1.9697,1.9697,1.9697,1.9697,1.9697,1.9697,1.9675,1.954,1.9488,1.9495,1.9508,1.9473,1.9675,1.9697,1.9697,1.9697,1.9697,1.9697,1.9697,1.9697,1.9697,1.9697,1.9697,1.9697,1.9697,1.9697,1.9697,1.9697,1.9697,1.9697,1.5079,1.535,1.558,1.5856,0.0,1.6107,1.5944,1.5655,1.5392,1.5429,1.5699,1.5982,1.6101,1.6114,1.6396,1.6528,1.6503,1.622,1.5957,1.5668,1.5161,1.4752,1.4494,1.4488,1.4494,1.4507,1.4771,1.4909,1.4922,1.5186,1.5279,1.5272,1.5549,1.568,1.5699,1.5969,1.5693,1.4903,1.4368,1.3959,1.364,1.3377,1.3073,1.281,1.2791,0.0,0.0,0.0,0.0,0.0,0.0,0.0,0.0,0.0,0.0,1.1142,1.1142,1.1268,1.1526,1.2059,1.2504,1.2799,1.3994,1.439,1.3518,1.479,1.5711,1.6033,1.6754,1.7348,1.769,1.8375,1.8928,1.9288,1.9559,1.9697,1.9697,1.9697,1.9697,1.9697,1.9697,1.9697,1.9697,1.9697,1.9697,1.9697,1.9697,1.9697,1.9697,1.9697,1.9697,1.9697,1.9697,1.9697,1.9697,1.9697,1.9697,1.9697,1.9697,1.9697,1.9697,1.9697,1.9697,1.9697,1.9697,1.9697,1.9697,1.9697,1.9697,1.9697,1.9697,1.9697,1.9697,1.9697,1.9697,1.5205,1.5203,1.5649,1.5837,1.5881,1.6333,1.6528,1.6484,1.6038,0.0,0.0,1.6528,1.6528,1.6528,1.6528,1.6528,1.6528,1.6528,1.6264,1.5844,1.5743,1.5454,1.5067,1.506,1.5048,1.5067,1.5161,1.5166,1.5218,1.5624,1.5837,1.5875,1.6296,1.6528,1.6528,1.6528,1.6296,1.5825,1.489,1.4274,1.4085,1.3609,1.3113,1.2567,1.296,1.2722,1.1782,1.2259,1.2297,1.1776,1.1857,1.1833,1.1745,1.1826,1.2033,1.2372,1.2592,1.2693,1.2711,1.367,1.4145,1.3954,1.551,1.6326,1.5922,1.6494,1.6937,1.7029,1.7489,1.7742,1.7742,1.8487,1.905,1.9043,1.945,1.9697,1.9697,1.9697,1.9697,1.9697,1.9697,1.9697,1.9697,1.9697,1.9697,1.9697,1.9697,1.9697,1.9697,1.9697,1.9697,1.9697,1.9697,1.9697,1.9697,1.9697,1.9697,1.9697,1.9697,1.9697,1.9697,1.9697,1.9697,1.9697,1.9697,1.9697,1.9697,1.9697,1.9697,1.9697,1.9697,1.9697,1.9697,1.9697,1.9697,1.6283,1.6289,1.6371,1.6396,1.6402,1.649,1.6528,1.6509,1.6427,1.6453,1.6528,1.6528,1.6528,1.6528,1.6528,1.6528,1.6528,1.6528,1.6435,1.6371,1.5919,1.5655,1.558,1.5574,1.558,1.5618,1.6063,1.6277,1.6302,1.6365,1.6402,1.6409,1.6435,1.6528,1.6528,1.6528,1.6478,1.6396,1.5787,1.5048,1.4116,1.4009,1.3672,1.3117,1.316,1.2916,1.2335,1.2791,1.2835,1.2341,1.2722,1.2753,1.2341,1.2743,1.2803,1.2504,1.333,1.3858,1.3871,1.4444,1.5362,1.6596,1.698,1.714,1.7114,1.7883,1.8619,1.9166,1.9228,1.9338,1.9396,1.9471,1.9574,1.9566,1.9639,1.969,1.9697,1.9697,1.9697,1.9697,1.9697,1.9697,1.9697,1.9697,1.9697,1.9697,1.9697,1.9697,1.9697,1.9697,1.9697,1.9697,1.9697,1.9697,1.9697,1.9697,1.9697,1.9697,1.9697,1.9697,1.9697,1.9697,1.9697,1.9697,1.9697,1.9697,1.9697,1.9697,1.9697,1.9697,1.9697,1.9697,1.9697,1.9697,1.9697,1.6528,1.6528,1.6528,1.6528,1.6528,1.6528,1.6528,1.6528,1.6528,1.6528,1.6528,1.6528,1.6528,1.6528,1.6528,1.6528,1.6528,1.6528,1.6528,1.6503,1.6264,1.6132,1.6145,1.6145,1.6139,1.6164,1.6347,1.6528,1.6528,1.6528,1.6528,1.6528,1.6528,1.6528,1.6528,1.6528,1.6528,1.6509,1.5975,1.5454,1.4979,1.4393,1.3965,1.3684,1.3402,1.3085,1.2847,1.3383,1.3552,1.3336,1.3835,1.4004,1.3772,1.3986,1.4011,1.3785,1.4242,1.4532,1.4532,1.5299,1.6225,1.7208,1.7838,1.8148,1.8148,1.8847,1.9368,1.966,1.9697,1.9697,1.9697,1.9697,1.9697,1.9697,1.9697,1.9697,1.9697,1.9697,1.9697,1.9697,1.9697,1.9697,1.9697,1.9697,1.9697,1.9697,1.9697,1.9697,1.9697,1.9697,1.9697,1.9697,1.9697,1.9697,1.9697,1.9697,1.9697,1.9697,1.9697,1.9697,1.9697,1.9697,1.9697,1.9697,1.9697,1.9697,1.9697,1.9697,1.9697,1.9697,1.9697,1.9697,1.9697,1.9697,1.9697,1.6528,1.6528,1.6528,1.6528,1.6528,1.6528,1.6528,1.6528,1.6528,1.6528,1.6528,1.6528,1.6528,1.6528,1.6528,1.6528,1.6528,1.6528,1.6528,1.6528,1.6528,1.6528,1.6528,1.6528,1.6558,1.6637,1.6558,1.6565,1.6631,1.6552,1.6528,1.6528,1.6528,1.6565,1.6674,1.6558,1.6595,1.6805,1.6319,1.6017,1.5864,1.5063,1.4585,1.4413,1.3894,1.3603,1.3628,1.4053,1.4274,1.4293,1.4683,1.4909,1.4909,1.4909,1.4909,1.4916,1.5035,1.5188,1.5478,1.631,1.7109,1.7626,1.8412,1.893,1.9088,1.9442,1.9697,1.9697,1.9697,1.9697,1.9697,1.9697,1.9697,1.9697,1.9697,1.9697,1.9697,1.9697,1.9697,1.9697,1.9697,1.9697,1.9697,1.9697,1.9697,1.9697,1.9697,1.9697,1.9697,1.9697,1.9697,1.9697,1.9697,1.9697,1.9697,1.9697,1.9697,1.9697,1.9697,1.9697,1.9697,1.9697,1.9697,1.9697,1.9697,1.9697,1.9697,1.9697,1.9697,1.9697,1.9697,1.9697,1.9697,1.9818,1.979,1.6528,1.6528,1.6528,1.6528,1.6528,1.6528,1.6528,1.6528,1.6528,1.6528,1.6528,1.6528,1.6528,1.6528,1.6528,1.6528,1.6528,1.6528,1.6528,1.6522,1.6522,1.6528,1.6522,1.6522,1.6765,1.7111,1.671,1.6759,1.7153,1.6765,1.6528,1.6528,1.6528,1.6795,1.7111,1.6752,1.6993,1.7907,1.741,1.6935,1.6448,1.6342,1.6039,1.5568,1.5024,1.4758,1.4689,1.4809,1.484,1.484,1.4903,1.4928,1.4935,1.4922,1.4922,1.496,1.5388,1.6023,1.6986,1.7625,1.814,1.8681,1.881,1.9125,1.9522,1.9654,1.9697,1.9697,1.9697,1.9697,1.9697,1.9697,1.9697,1.9697,1.9697,1.9697,1.9697,1.9697,1.9697,1.9697,1.9697,1.9697,1.9697,1.9697,1.9697,1.9697,1.9697,1.9726,1.979,1.9733,1.9726,1.9726,1.9726,1.9718,1.9726,1.9697,1.9697,1.9697,1.9697,1.9697,1.9697,1.9697,1.9697,1.9697,1.9697,1.9697,1.9697,1.9697,1.9697,1.9697,1.9697,1.9697,1.9754,1.9965,2.0062,1.6528,1.6528,1.6528,1.6528,1.6528,1.6528,1.6528,1.6528,1.6528,1.6528,1.6528,1.6528,1.6528,1.6528,1.6528,1.6528,1.6528,1.6528,1.6674,1.6915,1.6631,1.6674,1.6909,1.6631,1.6795,1.7236,1.6752,1.6808,1.7188,1.707,1.7111,1.7429,1.7463,1.7544,1.7754,1.7544,1.7666,1.8059,1.8185,1.8124,1.7835,1.6965,1.6381,1.613,1.5331,1.4909,1.4941,1.5218,1.536,1.5392,1.5655,1.5837,1.5844,1.585,1.585,1.5856,1.6357,1.6823,1.7292,1.8113,1.865,1.8893,1.9214,1.9479,1.9682,1.9697,1.9697,1.9697,1.9697,1.9697,1.9697,1.9697,1.9697,1.9697,1.9697,1.9697,1.9697,1.9697,1.9697,1.9697,1.9697,1.9697,1.9697,1.9697,1.9697,1.9697,1.9733,1.9775,2.0,1.9882,1.9818,2.0,2.0062,1.9937,1.979,1.9697,1.9733,1.9733,1.9697,1.9697,1.9697,1.9697,1.9697,1.9697,1.9697,1.9697,1.9697,1.9697,1.9697,1.9733,1.9697,1.9697,1.9697,2.0035,2.0151,1.6528,1.6528,1.6528,1.6528,1.6528,1.6528,1.6528,1.6528,1.6528,1.6528,1.6528,1.6528,1.6528,1.6528,1.6528,1.6528,1.6528,1.6528,1.6716,1.7034,1.668,1.6716,1.6993,1.6716,1.6873,1.736,1.6993,1.6993,1.7463,1.751,1.77,1.8059,1.8099,1.8178,1.8295,1.8178,1.8256,1.8535,1.881,1.8968,1.8903,1.7831,1.7136,1.7063,1.6251,1.5692,1.5548,1.5943,1.6071,1.5938,1.6422,1.671,1.6716,1.6831,1.6951,1.6993,1.7463,1.774,1.7754,1.8612,1.9125,1.9162,1.9486,1.9697,1.9697,1.9697,1.9697,1.9697,1.9697,1.9697,1.9697,1.9697,1.9697,1.9697,1.9697,1.9697,1.9697,1.9697,1.9697,1.9697,1.9697,1.9697,1.9697,1.9697,1.9697,1.9697,1.9811,1.9937,2.0212,2.0166,2.0216,2.0457,2.0491,2.0246,1.9846,1.9846,1.9811,1.9726,1.9697,1.9697,1.9697,1.9697,1.9697,1.9697,1.9697,1.9697,1.9697,1.9697,1.9762,1.9762,1.979,1.9882,1.9902,2.0288,2.0616,1.6528,1.6528,1.6515,1.6565,1.6528,1.6565,1.6565,1.6644,1.6565,1.6565,1.6601,1.6565,1.6522,1.6565,1.6601,1.6528,1.6528,1.6565,1.6631,1.671,1.6637,1.6558,1.6558,1.6515,1.7076,1.794,1.751,1.7544,1.802,1.8059,1.8066,1.8152,1.8178,1.8412,1.8734,1.8412,1.8612,1.9406,1.9162,1.9162,1.9515,1.9044,1.8724,1.8627,1.8197,1.7578,1.718,1.7192,1.6983,1.6459,1.6931,1.7236,1.7319,1.77,1.794,1.802,1.8496,1.8772,1.881,1.9288,1.961,1.9646,1.9646,1.9697,1.9697,1.9697,1.9697,1.9697,1.9697,1.9697,1.9697,1.9697,1.9697,1.9697,1.9697,1.9697,1.9697,1.9697,1.9697,1.9697,1.9697,1.9697,1.9697,1.9697,1.9726,1.9818,2.0027,2.0314,2.0442,2.0682,2.087,2.0934,2.0902,2.0665,1.9952,2.0077,2.0104,1.9882,1.9754,1.9733,1.9733,1.9697,1.9733,1.9726,1.979,1.979,1.9733,1.9762,1.9782,1.9909,2.0131,2.0227,2.0158,2.0975,2.1298,1.7517,1.7504,1.7504,1.7544,1.7504,1.751,1.7517,1.7504,1.7544,1.7504,1.7504,1.751,1.7504,1.7517,1.751,1.7305,1.707,1.7347,1.77,1.7954,1.77,1.77,1.798,1.7706,1.7907,1.8419,1.8073,1.8099,1.8581,1.8619,1.881,1.9095,1.9125,1.9244,1.9325,1.9207,1.9361,1.9639,1.9486,1.9522,1.9646,1.9522,1.9413,1.9376,1.8542,1.786,1.7305,1.7305,1.7188,1.7028,1.6915,1.7118,1.7747,1.7987,1.8099,1.8138,1.8612,1.8885,1.8968,1.942,1.9697,1.9697,1.9697,1.9697,1.9697,1.9697,1.9697,1.9697,1.9697,1.9697,1.9697,1.9697,1.9697,1.9697,1.9697,1.9697,1.9697,1.9697,1.9697,1.9697,1.9697,1.9697,1.9762,1.9733,1.9818,2.0027,2.0219,2.0542,2.0959,2.1078,2.1134,2.1323,2.1368,2.1173,2.0665,2.0632,2.0591,2.0062,1.9839,1.9882,1.9882,2.0042,2.0104,1.9952,1.9945,2.007,2.0139,2.0311,2.0269,2.02,2.0424,2.0583,2.0348,2.1173,2.1529,1.8099,1.8099,1.8099,1.8099,1.8099,1.8099,1.8099,1.8099,1.8099,1.8099,1.8099,1.8099,1.8099,1.8138,1.8295,1.8185,1.7867,1.8027,1.8295,1.8574,1.8256,1.8295,1.8535,1.8256,1.8373,1.8817,1.8727,1.881,1.9125,1.9162,1.9361,1.9682,1.9697,1.9697,1.9697,1.9697,1.9697,1.9697,1.9697,1.9697,1.9697,1.9697,1.9697,1.961,1.8975,1.838,1.786,1.7827,1.77,1.7544,1.7347,1.7659,1.8496,1.8626,1.8612,1.865,1.893,1.9162,1.9214,1.9501,1.9697,1.9697,1.9697,1.9697,1.9697,1.9697,1.9697,1.9697,1.9697,1.9697,1.9697,1.9697,1.9697,1.9697,1.9697,1.9697,1.9697,1.9697,1.9775,1.9874,1.9937,1.9972,2.0085,2.0154,2.0269,2.0524,2.0616,2.1007,2.1422,2.1529,2.1485,2.1764,2.1832,2.1637,2.1314,2.1283,2.1086,2.0624,2.033,2.0269,2.0235,2.0398,2.0424,2.0235,2.0261,2.0449,2.0616,2.0821,2.0797,2.0624,2.0846,2.107,2.1134,2.136,2.1697,1.8138,1.8185,1.8138,1.8217,1.8256,1.8256,1.8178,1.8224,1.8231,1.8256,1.8334,1.8217,1.8295,1.8295,1.8734,1.8885,1.8772,1.8458,1.8302,1.8341,1.8263,1.8256,1.8295,1.8341,1.8489,1.9006,1.945,1.9654,1.9617,1.961,1.9654,1.9697,1.9697,1.9697,1.9697,1.9697,1.9697,1.9697,1.9697,1.9697,1.9697,1.9697,1.9697,1.9697,1.961,1.9325,1.8885,1.881,1.8535,1.8217,1.8503,1.9088,1.9406,1.953,1.9654,1.9574,1.9646,1.9682,1.969,1.9697,1.9697,1.9697,1.9697,1.9697,1.9697,1.9697,1.9697,1.9697,1.9697,1.9697,1.9697,1.9697,1.9697,1.9697,1.9697,1.9697,1.9697,1.9726,1.9874,2.0185,2.0288,2.0483,2.0829,2.087,2.0862,2.1015,2.1244,2.1499,2.1688,2.1899,2.2217,2.2254,2.218,2.1966,2.1936,2.1899,2.1576,2.126,2.1063,2.0902,2.0804,2.0862,2.0854,2.0731,2.0789,2.0943,2.1007,2.1181,2.1189,2.1118,2.1407,2.1521,2.156,2.1658,2.2011,1.9207,1.9207,1.9207,1.9207,1.9207,1.9207,1.9207,1.9207,1.9214,1.9207,1.9207,1.9207,1.9207,1.9214,1.9413,1.945,1.9442,1.9288,1.9214,1.9169,1.9184,1.9169,1.9169,1.9207,1.9281,1.9442,1.9603,1.9697,1.9697,1.9697,1.9697,1.9697,1.9697,1.9697,1.9697,1.9697,1.9697,1.9697,1.9697,1.9697,1.9697,1.9697,1.9697,1.9697,1.9697,1.961,1.9442,1.9088,1.8855,1.865,1.8451,1.8612,1.9088,1.9493,1.9697,1.9697,1.9697,1.9697,1.9697,1.9697,1.9697,1.9697,1.9697,1.9697,1.9697,1.9697,1.9697,1.9697,1.9697,1.9697,1.9697,1.9697,1.9697,1.9697,1.9697,1.9697,1.9726,1.9929,2.0158,2.0306,2.0583,2.0829,2.0967,2.1031,2.1158,2.1368,2.156,2.1726,2.2003,2.2172,2.2282,2.2319,2.2274,2.2265,2.2172,2.2115,2.1953,2.1721,2.1554,2.1393,2.1323,2.1291,2.1291,2.1291,2.1346,2.1407,2.1469,2.1507,2.1554,2.1615,2.1773,2.1794,2.1688,2.1861,2.218,1.9697,1.9697,1.9697,1.9697,1.9697,1.9697,1.9697,1.9697,1.9697,1.9697,1.9697,1.9697,1.9697,1.9697,1.9697,1.9697,1.9697,1.9697,1.9697,1.9697,1.9697,1.9697,1.9697,1.9697,1.9697,1.9697,1.9697,1.9697,1.9697,1.9697,1.9697,1.9697,1.9697,1.9697,1.9697,1.9697,1.9697,1.9697,1.9697,1.9697,1.9697,1.9697,1.9697,1.9697,1.9697,1.9697,1.9682,1.9361,1.9207,1.9132,1.8848,1.8893,1.9214,1.953,1.9697,1.9697,1.9697,1.9697,1.9697,1.9697,1.9697,1.9697,1.9697,1.9697,1.9697,1.9697,1.9697,1.9697,1.9697,1.9697,1.9697,1.9697,1.9697,1.9697,1.9697,1.9697,1.9754,1.9909,2.0261,2.0491,2.0837,2.1126,2.1385,2.1493,2.1593,2.1802,2.1861,2.1928,2.2217,2.2291,2.2319,2.2319,2.2291,2.2291,2.2291,2.2291,2.2291,2.2152,2.2011,2.1878,2.1743,2.1811,2.1811,2.1789,2.1819,2.1869,2.1899,2.2011,2.2086,2.2143,2.2077,2.2069,2.2003,2.2061,2.2274,1.9697,1.9697,1.9697,1.9697,1.9697,1.9697,1.9697,1.9697,1.9697,1.9697,1.9697,1.9697,1.9697,1.9697,1.9697,1.9697,1.9697,1.9697,1.9697,1.9697,1.9697,1.9697,1.9697,1.9697,1.9697,1.9697,1.9697,1.9697,1.9697,1.9697,1.9697,1.9697,1.9697,1.9697,1.9697,1.9697,1.9697,1.9697,1.9697,1.9697,1.9697,1.9697,1.9697,1.9697,1.9697,1.9697,1.9697,1.9646,1.9654,1.9697,1.9581,1.9574,1.9697,1.969,1.9697,1.9697,1.9697,1.9697,1.9697,1.9697,1.9697,1.9697,1.9697,1.9697,1.9697,1.9697,1.9697,1.9697,1.9697,1.9697,1.9697,1.9697,1.9697,1.9697,1.9697,1.9697,1.9697,1.9762,2.0174,2.0772,2.1039,2.1323,2.204,2.2189,2.2225,2.2225,2.2209,2.2245,2.2282,2.2319,2.2319,2.2319,2.2319,2.2319,2.2319,2.2319,2.2319,2.2282,2.218,2.2115,2.2049,2.2115,2.218,2.2152,2.2152,2.2209,2.2265,2.2282,2.2319,2.2254,2.2254,2.2291,2.2319,2.2282,2.2274,1.9697,1.9697,1.9697,1.9697,1.9697,1.9697,1.9697,1.9697,1.9697,1.9697,1.9697,1.9697,1.9697,1.9697,1.9697,1.9697,1.9697,1.9697,1.9697,1.9697,1.9697,1.9697,1.9697,1.9697,1.9697,1.9697,1.9697,1.9697,1.9697,1.9697,1.9697,1.9697,1.9697,1.9697,1.9697,1.9697,1.9697,1.9697,1.9697,1.9697,1.9697,1.9697,1.9697,1.9697,1.9697,1.9697,1.9697,1.9697,1.9697,1.9697,1.9697,1.9697,1.9697,1.9697,1.9697,1.9697,1.9697,1.9697,1.9697,1.9697,1.9697,1.9697,1.9697,1.9697,1.9697,1.9697,1.9697,1.9697,1.9697,1.9697,1.9697,1.9697,1.9697,1.9697,1.9697,1.9697,1.9762,1.998,2.0398,2.0894,2.1213,2.1637,2.204,2.2291,2.2291,2.2319,2.2319,2.2319,2.2319,2.2319,2.2319,2.2319,2.2319,2.2319,2.2319,2.2319,2.2319,2.2319,2.2282,2.2254,2.2217,2.2254,2.2254,2.2291,2.2254,2.2282,2.2282,2.2319,2.2319,2.2319,2.2319,2.2319,2.2319,2.2291,2.2291,1.9697,1.9697,1.9697,1.9697,1.9697,1.9697,1.9697,1.9697,1.9697,1.9697,1.9697,1.9697,1.9697,1.9697,1.9697,1.9697,1.9697,1.9697,1.9697,1.9697,1.9697,1.9697,1.9697,1.9697,1.9697,1.9697,1.9697,1.9697,1.9697,1.9697,1.9697,1.9697,1.9697,1.9697,1.9697,1.9697,1.9697,1.9697,1.9697,1.9697,1.9697,1.9697,1.9697,1.9697,1.9697,1.9697,1.9697,1.9697,1.9697,1.9697,1.9697,1.9697,1.9697,1.9697,1.9697,1.9697,1.9697,1.9697,1.9697,1.9697,1.9697,1.9697,1.9697,1.9697,1.9697,1.9697,1.9697,1.9697,1.9697,1.9697,1.9697,1.9697,1.9697,1.9697,1.9697,1.9697,1.9697,1.9889,2.0235,2.0657,2.1086,2.1507,2.1936,2.2135,2.2274,2.2319,2.2319,2.2319,2.2319,2.2319,2.2319,2.2319,2.2319,2.2319,2.2319,2.2319,2.2319,2.2319,2.2319,2.2319,2.2319,2.2319,2.2319,2.2319,2.2319,2.2319,2.2319,2.2319,2.2319,2.2319,2.2319,2.2319,2.2319,2.2319,2.2319,1.9697,1.9697,1.9697,1.9697,1.9697,1.9697,1.9697,1.9697,1.9697,1.9697,1.9697,1.9697,1.9697,1.9697,1.9697,1.9697,1.9697,1.9697,1.9697,1.9697,1.9697,1.9697,1.9697,1.9697,1.9697,1.9697,1.9697,1.9697,1.9697,1.9697,1.9697,1.9697,1.9697,1.9697,1.9697,1.9697,1.9697,1.9697,1.9697,1.9697,1.9697,1.9697,1.9697,1.9697,1.9697,1.9697,1.9697,1.9697,1.9697,1.9697,1.9697,1.9697,1.9697,1.9697,1.9697,1.9697,1.9697,1.9697,1.9697,1.9697,1.9697,1.9697,1.9697,1.9697,1.9697,1.9697,1.9697,1.9697,1.9697,1.9697,1.9697,1.9697,1.9697,1.9697,1.9697,1.9697,1.9697,1.9697,1.9846,2.0238,2.069,2.1095,2.1507,2.1899,2.2225,2.2077,2.2152,2.2319,2.2319,2.2319,2.2319,2.2319,2.2319,2.2319,2.2319,2.2319,2.2319,2.2319,2.2319,2.2319,2.2319,2.2319,2.2319,2.2319,2.2319,2.2319,2.2319,2.2319,2.2319,2.2319,2.2319,2.2319,2.2319,2.2319,2.2319,1.9697,1.9697,1.9697,1.9697,1.9697,1.9697,1.9697,1.9697,1.9697,1.9697,1.9697,1.9697,1.9697,1.9697,1.9697,1.9697,1.9697,1.9697,1.9697,1.9697,1.9697,1.9697,1.9697,1.9697,1.9697,1.9697,1.9697,1.9697,1.9697,1.9697,1.9697,1.9697,1.9697,1.9697,1.9697,1.9697,1.9697,1.9697,1.9697,1.9697,1.9697,1.9697,1.9697,1.9697,1.9697,1.9697,1.9697,1.9697,1.9697,1.9697,1.9697,1.9697,1.9697,1.9697,1.9697,1.9697,1.9697,1.9697,1.9697,1.9697,1.9697,1.9697,1.9697,1.9697,1.9697,1.9697,1.9697,1.9697,1.9697,1.9697,1.9697,1.9697,1.9697,1.9697,1.9697,1.9697,1.9697,1.9697,1.9874,2.0185,2.0374,2.0608,2.1086,2.1499,2.1735,2.1802,2.2011,2.2254,2.2291,2.2254,2.2319,2.2319,2.2319,2.2319,2.2319,2.2319,2.2319,2.2319,2.2319,2.2319,2.2319,2.2319,2.2319,2.2319,2.2319,2.2319,2.2319,2.2319,2.2319,2.2319,2.2319,2.2319,2.2319,2.2319,2.2319,1.9697,1.9697,1.9697,1.9697,1.9697,1.9697,1.9697,1.9697,1.9697,1.9697,1.9697,1.9697,1.9697,1.9697,1.9697,1.9697,1.9697,1.9697,1.9697,1.9697,1.9697,1.9697,1.9697,1.9697,1.9697,1.9697,1.9697,1.9697,1.9697,1.9697,1.9697,1.9697,1.9697,1.9697,1.9697,1.9697,1.9697,1.9697,1.9697,1.9697,1.9697,1.9697,1.9697,1.9697,1.9697,1.9697,1.9697,1.9697,1.9697,1.9697,1.9697,1.9697,1.9697,1.9697,1.9697,1.9697,1.9697,1.9697,1.9697,1.9697,1.9697,1.9697,1.9697,1.9697,1.9697,1.9697,1.9697,1.9697,1.9697,1.9697,1.9697,1.9697,1.9697,1.9697,1.9697,1.9697,1.9697,1.9726,1.9782,2.0035,2.0177,2.0382,2.0715,2.107,2.1275,2.1346,2.1667,2.1907,2.204,2.204,2.2254,2.2319,2.2319,2.2319,2.2319,2.2319,2.2319,2.2319,2.2319,2.2319,2.2319,2.2319,2.2319,2.2319,2.2319,2.2319,2.2319,2.2319,2.2319,2.2319,2.2319,2.2319,2.2319,2.2319,2.2319,1.9697,1.9697,1.9697,1.9697,1.9697,1.9697,1.9697,1.9697,1.9697,1.9697,1.9697,1.9697,1.9697,1.9697,1.9697,1.9697,1.9697,1.9697,1.9697,1.9697,1.9697,1.9697,1.9697,1.9697,1.9697,1.9697,1.9697,1.9697,1.9697,1.9697,1.9697,1.9697,1.9697,1.9697,1.9697,1.9697,1.9697,1.9697,1.9697,1.9697,1.9697,1.9697,1.9697,1.9697,1.9697,1.9697,1.9697,1.9697,1.9697,1.9697,1.9697,1.9697,1.9697,1.9697,1.9697,1.9697,1.9697,1.9697,1.9697,1.9697,1.9697,1.9697,1.9697,1.9697,1.9697,1.9697,1.9697,1.9697,1.9697,1.9697,1.9697,1.9697,1.9697,1.9697,1.9697,1.9697,1.9697,1.9697,1.9726,1.9747,1.9937,2.0131,2.0322,2.0583,2.0748,2.0951,2.1267,2.1529,2.1628,2.1764,2.1915,2.2077,2.204,2.2225,2.2262,2.2319,2.2319,2.2319,2.2319,2.2319,2.2319,2.2319,2.2319,2.2319,2.2319,2.2319,2.2319,2.2319,2.2319,2.2319,2.2319,2.2319,2.2319,2.2319,2.2319,1.9697,1.9697,1.9697,1.9697,1.9697,1.9697,1.9697,1.9697,1.9697,1.9697,1.9697,1.9697,1.9697,1.9697,1.9697,1.9697,1.9697,1.9697,1.9697,1.9697,1.9697,1.9697,1.9697,1.9697,1.9697,1.9697,1.9697,1.9697,1.9697,1.9697,1.9697,1.9697,1.9697,1.9697,1.9697,1.9697,1.9697,1.9697,1.9697,1.9697,1.9697,1.9697,1.9697,1.9697,1.9697,1.9697,1.9697,1.9697,1.9697,1.9697,1.9697,1.9697,1.9697,1.9697,1.9697,1.9697,1.9697,1.9697,1.9697,1.9697,1.9697,1.9697,1.9697,1.9697,1.9697,1.9697,1.9697,1.9697,1.9697,1.9697,1.9697,1.9697,1.9697,1.9697,1.9697,1.9697,1.9697,1.9697,1.9697,1.9733,1.979,1.9846,2.0035,2.0193,2.033,2.0558,2.0813,2.1007,2.111,2.1244,2.1376,2.1538,2.1688,2.1974,2.2225,2.2291,2.2319,2.2319,2.2319,2.2319,2.2319,2.2319,2.2319,2.2319,2.2319,2.2319,2.2319,2.2319,2.2319,2.2319,2.2319,2.2319,2.2319,2.2319,2.2319,1.9697,1.9697,1.9697,1.9697,1.9697,1.9697,1.9697,1.9697,1.9697,1.9697,1.9697,1.9697,1.9697,1.9697,1.9697,1.9697,1.9697,1.9697,1.9697,1.9697,1.9697,1.9697,1.9697,1.9697,1.9697,1.9697,1.9697,1.9697,1.9697,1.9697,1.9697,1.9697,1.9697,1.9697,1.9697,1.9697,1.9697,1.9697,1.9697,1.9697,1.9697,1.9697,1.9697,1.9697,1.9697,1.9697,1.9697,1.9697,1.9697,1.9697,1.9697,1.9697,1.9697,1.9697,1.9697,1.9697,1.9697,1.9697,1.9697,1.9697,1.9697,1.9697,1.9697,1.9697,1.9697,1.9697,1.9697,1.9697,1.9697,1.9697,1.9697,1.9697,1.9697,1.9697,1.9697,1.9697,1.9697,1.9697,1.9697,1.9697,1.9762,1.9754,1.9754,1.9882,1.9972,2.0166,2.039,2.0524,2.0624,2.0789,2.0918,2.1181,2.1399,2.1743,2.202,2.2152,2.218,2.2217,2.2319,2.2319,2.2319,2.2319,2.2319,2.2319,2.2319,2.2319,2.2319,2.2319,2.2319,2.2319,2.2319,2.2319,2.2319,2.2319,2.2319,1.9697,1.9697,1.9697,1.9697,1.9697,1.9697,1.9697,1.9697,1.9697,1.9697,1.9697,1.9697,1.9697,1.9697,1.9697,1.9697,1.9697,1.9697,1.9697,1.9697,1.9697,1.9697,1.9697,1.9697,1.9697,1.9697,1.9697,1.9697,1.9697,1.9697,1.9697,1.9697,1.9697,1.9697,1.9697,1.9697,1.9697,1.9697,1.9697,1.9697,1.9697,1.9697,1.9697,1.9697,1.9697,1.9697,1.9697,1.9697,1.9697,1.9697,1.9697,1.9697,1.9697,1.9697,1.9697,1.9697,1.9697,1.9697,1.9697,1.9697,1.9697,1.9697,1.9697,1.9697,1.9697,1.9697,1.9697,1.9697,1.9697,1.9697,1.9697,1.9697,1.9697,1.9697,1.9697,1.9697,1.9697,1.9697,1.9697,1.9697,1.9697,1.9733,1.9726,1.9726,1.9854,1.9882,2.0104,2.0139,2.0235,2.0371,2.0565,2.0862,2.115,2.1515,2.1781,2.1945,2.1966,2.1966,2.218,2.2319,2.2319,2.2319,2.2291,2.2291,2.2319,2.2319,2.2319,2.2319,2.2319,2.2319,2.2319,2.2319,2.2319,2.2319,2.2319,1.9697,1.9697,1.9697,1.9697,1.9697,1.9697,1.9697,1.9697,1.9697,1.9697,1.9697,1.9697,1.9697,1.9697,1.9697,1.9697,1.9697,1.9697,1.9697,1.9697,1.9697,1.9697,1.9697,1.9697,1.9697,1.9697,1.9697,1.9697,1.9697,1.9697,1.9697,1.9697,1.9697,1.9697,1.9697,1.9697,1.9697,1.9697,1.9697,1.9697,1.9697,1.9697,1.9697,1.9697,1.9697,1.9697,1.9697,1.9697,1.9697,1.9697,1.9697,1.9697,1.9697,1.9697,1.9697,1.9697,1.9697,1.9697,1.9697,1.9697,1.9697,1.9697,1.9697,1.9697,1.9697,1.9697,1.9697,1.9697,1.9697,1.9697,1.9697,1.9697,1.9697,1.9697,1.9697,1.9697,1.9697,1.9697,1.9697,1.9697,1.9697,1.9697,1.9733,1.9697,1.9733,1.9726,1.9754,1.9782,1.9846,2.005,2.0269,2.0558,2.0789,2.1126,2.1424,2.1615,2.1675,2.1688,2.1869,2.2123,2.2143,2.2143,2.2282,2.2282,2.2291,2.2319,2.2319,2.2319,2.2319,2.2319,2.2319,2.2319,2.2319,2.2319,2.2319,1.9697,1.9697,1.9697,1.9697,1.9697,1.9697,1.9697,1.9697,1.9697,1.9697,1.9697,1.9697,1.9697,1.9697,1.9697,1.9697,1.9697,1.9697,1.9697,1.9697,1.9697,1.9697,1.9697,1.9697,1.9697,1.9697,1.9697,1.9697,1.9697,1.9697,1.9697,1.9697,1.9697,1.9697,1.9697,1.9697,1.9697,1.9697,1.9697,1.9697,1.9697,1.9697,1.9697,1.9697,1.9697,1.9697,1.9697,1.9697,1.9697,1.9697,1.9697,1.9697,1.9697,1.9697,1.9697,1.9697,1.9697,1.9697,1.9697,1.9697,1.9697,1.9697,1.9697,1.9697,1.9697,1.9697,1.9697,1.9697,1.9697,1.9697,1.9697,1.9697,1.9697,1.9697,1.9697,1.9697,1.9697,1.9697,1.9697,1.9697,1.9697,1.9697,1.9697,1.9697,1.9697,1.9733,1.9726,1.9762,1.9762,1.9826,2.0042,2.0322,2.0524,2.0723,2.0991,2.1221,2.126,2.1283,2.1314,2.1554,2.1794,2.189,2.2003,2.218,2.2282,2.2291,2.2291,2.2319,2.2319,2.2319,2.2319,2.2319,2.2319,2.2319,2.2319,1.9697,1.9697,1.9697,1.9697,1.9697,1.9697,1.9697,1.9697,1.9697,1.9697,1.9697,1.9697,1.9697,1.9697,1.9697,1.9697,1.9697,1.9697,1.9697,1.9697,1.9697,1.9697,1.9697,1.9697,1.9697,1.9697,1.9697,1.9697,1.9697,1.9697,1.9697,1.9697,1.9697,1.9697,1.9697,1.9697,1.9697,1.9697,1.9697,1.9697,1.9697,1.9697,1.9697,1.9697,1.9697,1.9697,1.9697,1.9697,1.9697,1.9697,1.9697,1.9697,1.9697,1.9697,1.9697,1.9697,1.9697,1.9697,1.9697,1.9697,1.9697,1.9697,1.9697,1.9697,1.9697,1.9697,1.9697,1.9697,1.9697,1.9697,1.9697,1.9697,1.9697,1.9697,1.9697,1.9697,1.9697,1.9697,1.9697,1.9697,1.9697,1.9697,1.9697,1.9697,1.9697,1.9697,1.9697,1.9697,1.9697,1.9697,1.9861,2.0104,2.0139,2.0269,2.0431,2.0665,2.0739,2.087,2.0902,2.1063,2.1337,2.1529,2.1598,2.184,2.2152,2.2245,2.2217,2.2254,2.2319,2.2319,2.2319,2.2319,2.2319,2.2319,2.2319,1.9697,1.9697,1.9697,1.9697,1.9697,1.9697,1.9697,1.9697,1.9697,1.9697,1.9697,1.9697,1.9697,1.9697,1.9697,1.9697,1.9697,1.9697,1.9697,1.9697,1.9697,1.9697,1.9697,1.9697,1.9697,1.9697,1.9697,1.9697,1.9697,1.9697,1.9697,1.9697,1.9697,1.9697,1.9697,1.9697,1.9697,1.9697,1.9697,1.9697,1.9697,1.9697,1.9697,1.9697,1.9697,1.9697,1.9697,1.9697,1.9697,1.9697,1.9697,1.9697,1.9697,1.9697,1.9697,1.9697,1.9697,1.9697,1.9697,1.9697,1.9697,1.9697,1.9697,1.9697,1.9697,1.9697,1.9697,1.9697,1.9697,1.9697,1.9697,1.9697,1.9697,1.9697,1.9697,1.9697,1.9697,1.9697,1.9697,1.9697,1.9697,1.9697,1.9697,1.9697,1.9697,1.9697,1.9697,1.9697,1.9697,1.9697,1.9697,1.9826,1.979,1.9826,1.9846,2.0007,2.0303,2.0439,2.0499,2.0731,2.0991,2.1118,2.1306,2.1637,2.1936,2.204,2.218,2.2254,2.2319,2.2319,2.2319,2.2319,2.2319,2.2319,2.2319,1.9697,1.9697,1.9697,1.9697,1.9697,1.9697,1.9697,1.9697,1.9697,1.9697,1.9697,1.9697,1.9697,1.9697,1.9697,1.9697,1.9697,1.9697,1.9697,1.9697,1.9697,1.9697,1.9697,1.9697,1.9697,1.9697,1.9697,1.9697,1.9697,1.9697,1.9697,1.9697,1.9697,1.9697,1.9697,1.9697,1.9697,1.9697,1.9697,1.9697,1.9697,1.9697,1.9697,1.9697,1.9697,1.9697,1.9697,1.9697,1.9697,1.9697,1.9697,1.9697,1.9697,1.9697,1.9697,1.9697,1.9697,1.9697,1.9697,1.9697,1.9697,1.9697,1.9697,1.9697,1.9697,1.9697,1.9697,1.9697,1.9697,1.9697,1.9697,1.9697,1.9697,1.9697,1.9697,1.9697,1.9697,1.9697,1.9697,1.9697,1.9697,1.9697,1.9697,1.9697,1.9697,1.9697,1.9697,1.9697,1.9697,1.9697,1.9697,1.9697,1.9697,1.9697,1.9718,1.9846,1.9937,2.0035,2.0166,2.033,2.0599,2.0967,2.1189,2.1477,2.1794,2.2032,2.2209,2.2282,2.2319,2.2319,2.2319,2.2319,2.2319,2.2319,2.2319,1.9697,1.9697,1.9697,1.9697,1.9697,1.9697,1.9697,1.9697,1.9697,1.9697,1.9697,1.9697,1.9697,1.9697,1.9697,1.9697,1.9697,1.9697,1.9697,1.9697,1.9697,1.9697,1.9697,1.9697,1.9697,1.9697,1.9697,1.9697,1.9697,1.9697,1.9697,1.9697,1.9697,1.9697,1.9697,1.9697,1.9697,1.9697,1.9697,1.9697,1.9697,1.9697,1.9697,1.9697,1.9697,1.9697,1.9697,1.9697,1.9697,1.9697,1.9697,1.9697,1.9697,1.9697,1.9697,1.9697,1.9697,1.9697,1.9697,1.9697,1.9697,1.9697,1.9697,1.9697,1.9697,1.9697,1.9697,1.9697,1.9697,1.9697,1.9697,1.9697,1.9697,1.9697,1.9697,1.9697,1.9697,1.9697,1.9697,1.9697,1.9697,1.9697,1.9697,1.9697,1.9697,1.9697,1.9697,1.9697,1.9697,1.9697,1.9697,1.9697,1.9697,1.9697,1.9733,1.979,1.9854,1.9854,1.9917,1.9937,2.0166,2.0599,2.0999,2.1252,2.1606,2.2032,2.2237,2.2282,2.2291,2.2319,2.2319,2.2319,2.2319,2.2319,2.2319,1.9697,1.9697,1.9697,1.9697,1.9697,1.9697,1.9697,1.9697,1.9697,1.9697,1.9697,1.9697,1.9697,1.9697,1.9697,1.9697,1.9697,1.9697,1.9697,1.9697,1.9697,1.9697,1.9697,1.9697,1.9697,1.9697,1.9697,1.9697,1.9697,1.9697,1.9697,1.9697,1.9697,1.9697,1.9697,1.9697,1.9697,1.9697,1.9697,1.9697,1.9697,1.9697,1.9697,1.9697,1.9697,1.9697,1.9697,1.9697,1.9697,1.9697,1.9697,1.9697,1.9697,1.9697,1.9697,1.9697,1.9697,1.9697,1.9697,1.9697,1.9697,1.9697,1.9697,1.9697,1.9697,1.9697,1.9697,1.9697,1.9697,1.9697,1.9697,1.9697,1.9697,1.9697,1.9697,1.9697,1.9697,1.9697,1.9697,1.9697,1.9697,1.9697,1.9697,1.9697,1.9697,1.9697,1.9697,1.9697,1.9697,1.9697,1.9697,1.9697,1.9697,1.9697,1.9697,1.9697,1.9733,1.9697,1.9726,1.9782,1.9965,2.0364,2.0723,2.0991,2.1415,2.1861,2.2098,2.2274,2.2282,2.2319,2.2319,2.2319,2.2319,2.2319,2.2319,1.9697,1.9697,1.9697,1.9697,1.9697,1.9697,1.9697,1.9697,1.9697,1.9697,1.9697,1.9697,1.9697,1.9697,1.9697,1.9697,1.9697,1.9697,1.9697,1.9697,1.9697,1.9697,1.9697,1.9697,1.9697,1.9697,1.9697,1.9697,1.9697,1.9697,1.9697,1.9697,1.9697,1.9697,1.9697,1.9697,1.9697,1.9697,1.9697,1.9697,1.9697,1.9697,1.9697,1.9697,1.9697,1.9697,1.9697,1.9697,1.9697,1.9697,1.9697,1.9697,1.9697,1.9697,1.9697,1.9697,1.9697,1.9697,1.9697,1.9697,1.9697,1.9697,1.9697,1.9697,1.9697,1.9697,1.9697,1.9697,1.9697,1.9697,1.9697,1.9697,1.9697,1.9697,1.9697,1.9697,1.9697,1.9697,1.9697,1.9697,1.9697,1.9697,1.9697,1.9697,1.9697,1.9697,1.9697,1.9697,1.9697,1.9697,1.9697,1.9697,1.9697,1.9697,1.9697,1.9697,1.9697,1.9697,1.9697,1.9726,1.9945,2.0296,2.0524,2.0821,2.1244,2.1658,2.1928,2.2172,2.2282,2.2319,2.2319,2.2319,2.2319,2.2319,2.2319,1.9697,1.9697,1.9697,1.9697,1.9697,1.9697,1.9697,1.9697,1.9697,1.9697,1.9697,1.9697,1.9697,1.9697,1.9697,1.9697,1.9697,1.9697,1.9697,1.9697,1.9697,1.9697,1.9697,1.9697,1.9697,1.9697,1.9697,1.9697,1.9697,1.9697,1.9697,1.9697,1.9697,1.9697,1.9697,1.9697,1.9697,1.9697,1.9697,1.9697,1.9697,1.9697,1.9697,1.9697,1.9697,1.9697,1.9697,1.9697,1.9697,1.9697,1.9697,1.9697,1.9697,1.9697,1.9697,1.9697,1.9697,1.9697,1.9697,1.9697,1.9697,1.9697,1.9697,1.9697,1.9697,1.9697,1.9697,1.9697,1.9697,1.9697,1.9697,1.9697,1.9697,1.9697,1.9697,1.9697,1.9697,1.9697,1.9697,1.9697,1.9697,1.9697,1.9697,1.9697,1.9697,1.9697,1.9697,1.9733,1.9733,1.9726,1.9733,1.9697,1.9733,1.9733,1.9733,1.9697,1.9697,1.9697,1.9762,1.9854,2.0085,2.0431,2.0558,2.0748,2.1407,2.1869,2.1928,2.2069,2.2245,2.2319,2.2319,2.2319,2.2319,2.2319,2.2319,1.9697,1.9697,1.9697,1.9697,1.9697,1.9697,1.9697,1.9697,1.9697,1.9697,1.9697,1.9697,1.9697,1.9697,1.9697,1.9697,1.9697,1.9697,1.9697,1.9697,1.9697,1.9697,1.9697,1.9697,1.9697,1.9697,1.9697,1.9697,1.9697,1.9697,1.9697,1.9697,1.9697,1.9697,1.9697,1.9697,1.9697,1.9697,1.9697,1.9697,1.9697,1.9697,1.9697,1.9697,1.9697,1.9697,1.9697,1.9697,1.9697,1.9697,1.9697,1.9697,1.9697,1.9697,1.9697,1.9697,1.9697,1.9697,1.9697,1.9697,1.9697,1.9697,1.9697,1.9697,1.9697,1.9697,1.9697,1.9697,1.9697,1.9697,1.9697,1.9697,1.9697,1.9697,1.9697,1.9697,1.9697,1.9697,1.9697,1.9697,1.9697,1.9697,1.9697,1.9697,1.9697,1.9697,1.9726,1.9811,1.9811,1.9718,1.9718,1.9697,1.9733,1.9726,1.9762,1.979,1.9995,2.0085,2.0077,2.0166,2.0398,2.0599,2.0756,2.1118,2.1743,2.204,2.1936,2.204,2.2254,2.2319,2.2319,2.2319,2.2319,2.2319,2.2319,1.9697,1.9697,1.9697,1.9697,1.9697,1.9697,1.9697,1.9697,1.9697,1.9697,1.9697,1.9697,1.9697,1.9697,1.9697,1.9697,1.9697,1.9697,1.9697,1.9697,1.9697,1.9697,1.9697,1.9697,1.9697,1.9697,1.9697,1.9697,1.9697,1.9697,1.9697,1.9697,1.9697,1.9697,1.9697,1.9697,1.9697,1.9697,1.9697,1.9697,1.9697,1.9697,1.9697,1.9697,1.9697,1.9697,1.9697,1.9697,1.9697,1.9697,1.9697,1.9697,1.9697,1.9697,1.9697,1.9697,1.9697,1.9697,1.9697,1.9697,1.9697,1.9697,1.9697,1.9697,1.9697,1.9697,1.9697,1.9697,1.9697,1.9697,1.9697,1.9697,1.9697,1.9697,1.9697,1.9697,1.9697,1.9697,1.9697,1.9697,1.9697,1.9697,1.9697,1.9697,1.9697,1.9697,1.9754,1.9866,1.9929,1.9866,1.9909,1.9925,1.996,2.0015,1.998,2.0007,2.0277,2.0439,2.0491,2.0516,2.069,2.0894,2.1023,2.1354,2.1811,2.1878,2.1743,2.1974,2.2291,2.2319,2.2319,2.2319,2.2319,2.2319,2.2319,1.9697,1.9697,1.9697,1.9697,1.9697,1.9697,1.9697,1.9697,1.9697,1.9697,1.9697,1.9697,1.9697,1.9697,1.9697,1.9697,1.9697,1.9697,1.9697,1.9697,1.9697,1.9697,1.9697,1.9697,1.9697,1.9697,1.9697,1.9697,1.9697,1.9697,1.9697,1.9697,1.9697,1.9697,1.9697,1.9697,1.9697,1.9697,1.9697,1.9697,1.9697,1.9697,1.9697,1.9697,1.9697,1.9697,1.9697,1.9697,1.9697,1.9697,1.9697,1.9697,1.9697,1.9697,1.9697,1.9697,1.9697,1.9697,1.9697,1.9697,1.9697,1.9697,1.9697,1.9697,1.9697,1.9697,1.9697,1.9697,1.9697,1.9697,1.9697,1.9697,1.9697,1.9697,1.9697,1.9697,1.9697,1.9697,1.9697,1.9697,1.9697,1.9697,1.9697,1.9697,1.9726,1.9754,1.9874,2.0054,2.0124,2.0097,2.0261,2.0405,2.0413,2.0413,2.0337,2.033,2.0565,2.0829,2.0975,2.1039,2.1118,2.1323,2.1615,2.1713,2.1819,2.1848,2.1915,2.2086,2.2319,2.2319,2.2319,2.2319,2.2319,2.2319,2.2319,1.9697,1.9697,1.9697,1.9697,1.9697,1.9697,1.9697,1.9697,1.9697,1.9697,1.9697,1.9697,1.9697,1.9697,1.9697,1.9697,1.9697,1.9697,1.9697,1.9697,1.9697,1.9697,1.9697,1.9697,1.9697,1.9697,1.9697,1.9697,1.9697,1.9697,1.9697,1.9697,1.9697,1.9697,1.9697,1.9697,1.9697,1.9697,1.9697,1.9697,1.9697,1.9697,1.9697,1.9697,1.9697,1.9697,1.9697,1.9697,1.9697,1.9697,1.9697,1.9697,1.9697,1.9697,1.9697,1.9697,1.9697,1.9697,1.9697,1.9697,1.9697,1.9697,1.9697,1.9697,1.9697,1.9697,1.9697,1.9697,1.9697,1.9697,1.9697,1.9697,1.9697,1.9697,1.9697,1.9697,1.9697,1.9697,1.9697,1.9697,1.9697,1.9697,1.9697,1.9733,1.9818,1.9839,1.9965,2.0212,2.0509,2.0516,2.0591,2.0862,2.0739,2.0739,2.0894,2.0894,2.0999,2.1189,2.136,2.1499,2.1524,2.1819,2.2217,2.2077,2.1878,2.2115,2.2254,2.2319,2.2319,2.2319,2.2319,2.2319,2.2319,2.2319,2.2319,1.9697,1.9697,1.9697,1.9697,1.9733,1.9697,1.9733,1.9697,1.9697,1.9726,1.9697,1.9697,1.9697,1.9697,1.9697,1.9697,1.9697,1.9697,1.9697,1.9697,1.9697,1.9697,1.9697,1.9697,1.9697,1.9697,1.9697,1.9697,1.9697,1.9697,1.9697,1.9697,1.9697,1.9697,1.9697,1.9697,1.9697,1.9697,1.9697,1.9697,1.9697,1.9697,1.9697,1.9697,1.9697,1.9697,1.9697,1.9697,1.9697,1.9697,1.9697,1.9697,1.9697,1.9697,1.9697,1.9697,1.9697,1.9697,1.9697,1.9697,1.9697,1.9697,1.9697,1.9697,1.9697,1.9697,1.9697,1.9697,1.9697,1.9697,1.9697,1.9697,1.9697,1.9697,1.9697,1.9697,1.9697,1.9697,1.9697,1.9697,1.9697,1.9733,1.9733,1.979,1.9874,1.9992,2.0151,2.0434,2.1023,2.1197,2.107,2.1181,2.1031,2.1031,2.1252,2.1385,2.1454,2.1554,2.1735,2.184,2.1894,2.2086,2.2245,2.2032,2.1928,2.218,2.2319,2.2319,2.2319,2.2319,2.2319,2.2319,2.2319,2.2319,2.2319,1.9697,1.9726,1.9902,2.007,2.025,2.0277,2.0174,2.0,1.9965,1.9839,1.9726,1.9697,1.9697,1.9733,1.9697,1.9697,1.9697,1.9697,1.9697,1.9697,1.9697,1.9697,1.9697,1.9697,1.9697,1.9697,1.9697,1.9697,1.9697,1.9697,1.9697,1.9697,1.9697,1.9697,1.9697,1.9697,1.9697,1.9697,1.9697,1.9697,1.9697,1.9697,1.9697,1.9697,1.9697,1.9697,1.9697,1.9697,1.9697,1.9697,1.9697,1.9697,1.9697,1.9697,1.9697,1.9697,1.9697,1.9697,1.9697,1.9697,1.9697,1.9697,1.9697,1.9697,1.9697,1.9697,1.9697,1.9697,1.9697,1.9697,1.9697,1.9697,1.9697,1.9697,1.9697,1.9697,1.9697,1.9697,1.9697,1.9697,1.9762,1.9846,1.9909,2.0062,2.0185,2.0599,2.0682,2.083,2.1383,2.1756,2.1667,2.1576,2.1454,2.1524,2.1819,2.1878,2.1878,2.1974,2.2032,2.2077,2.2123,2.218,2.2229,2.2106,2.2077,2.2217,2.2319,2.2319,2.2319,2.2319,2.2319,2.2319,2.2319,2.2319,2.2319,1.9697,1.9754,2.0124,2.0483,2.0797,2.0862,2.0599,2.0254,2.0246,2.0062,1.9754,1.979,1.9754,1.9726,1.9697,1.9697,1.9697,1.9697,1.9697,1.9697,1.9697,1.9697,1.9697,1.9697,1.9697,1.9697,1.9697,1.9697,1.9697,1.9697,1.9697,1.9697,1.9697,1.9697,1.9697,1.9697,1.9697,1.9697,1.9697,1.9697,1.9697,1.9697,1.9697,1.9697,1.9697,1.9697,1.9697,1.9697,1.9697,1.9697,1.9697,1.9697,1.9697,1.9697,1.9697,1.9697,1.9697,1.9697,1.9697,1.9697,1.9697,1.9697,1.9697,1.9697,1.9697,1.9697,1.9697,1.9697,1.9697,1.9697,1.9697,1.9697,1.9697,1.9697,1.9697,1.9697,1.9697,1.9733,1.9733,1.9726,1.9846,1.9965,2.0116,2.0272,2.0641,2.1023,2.1314,2.1499,2.1718,2.1936,2.2011,2.1982,2.1953,2.2123,2.2254,2.2209,2.2106,2.2143,2.218,2.2254,2.2319,2.2282,2.2282,2.2282,2.2291,2.2319,2.2319,2.2319,2.2319,2.2319,2.2319,2.2319,2.2319,2.2319,2.2319,1.9697,1.9718,2.0124,2.0193,2.0042,2.0322,2.0193,1.9902,2.0193,2.0062,1.9917,2.0027,2.0027,1.9733,1.9697,1.9697,1.9697,1.9697,1.9697,1.9697,1.9697,1.9697,1.9697,1.9697,1.9697,1.9697,1.9697,1.9697,1.9769,1.9733,1.9733,1.9762,1.9754,1.9754,1.9711,1.9718,1.9754,1.9726,1.9697,1.9697,1.9726,1.9726,1.9697,1.9697,1.9697,1.9697,1.9697,1.9697,1.9697,1.9697,1.9697,1.9697,1.9697,1.9697,1.9697,1.9697,1.9697,1.9697,1.9697,1.9697,1.9697,1.9697,1.9697,1.9697,1.9697,1.9697,1.9697,1.9697,1.9697,1.9697,1.9697,1.9697,1.9697,1.9697,1.9697,1.9697,1.9697,1.9754,1.9782,1.9909,2.007,2.0227,2.0382,2.0641,2.1039,2.1376,2.1538,2.1756,2.2003,2.218,2.2319,2.2319,2.2319,2.2319,2.2291,2.2291,2.2254,2.2291,2.2319,2.2319,2.2319,2.2319,2.2319,2.2319,2.2319,2.2319,2.2319,2.2319,2.2319,2.2319,2.2319,2.2319,2.2319,2.2319,2.2319]},{"header":{"parameterUnit":"m.s-1","parameterCategory":1,"la1":31.0,"la2":29.5877,"lo1":-88.7671,"lo2":-86.6584,"dy":0.0162,"dx":0.0185,"nx":115,"ny":88,"refTime":"2024-07-29T18:00:00:Z","depth":0,"parameterNumber":3,"parameterNumberName":"V-component_of_WINDS"},"data":[0.0,0.0,0.0,0.0,0.0,0.0,0.0,0.0,0.0,0.0,0.0,0.0,0.0,0.0,0.0,0.0,0.0,0.0,0.0,0.0,0.0,0.0,0.0,0.0,0.0,0.0,0.0,0.0,0.0,0.0,0.0,0.0,0.0,0.0,0.0,0.0,0.0,0.0,0.0,0.0,0.0,0.0,0.0,0.0,0.0,0.0,0.0,0.0,0.0,0.0,0.0,0.0,0.0,0.0,0.0,0.0,0.0,0.0,0.0,0.0,0.0,0.0,0.0,0.0,0.0,0.0,0.0,0.0,0.0,0.0,0.0,0.0,0.0,0.0,0.0,0.0,0.0,0.0,0.0,0.0,0.0,0.0,0.0,0.0,0.0,0.0,0.0,0.0,0.0,0.0,0.0,0.0,0.0,0.0,0.0,0.0,0.0,0.0,0.0,0.0,0.0,0.0,0.0,0.0,0.0,0.0,0.0,0.0,0.0,0.0,0.0,0.0,0.0,0.0,0.0,0.0,0.0,0.0,0.0,0.0,0.0,0.0,0.0,0.0,0.0,0.0,0.0,0.0,0.0,0.0,0.0,0.0,0.0,0.0,0.0,0.0,0.0,0.0,0.0,0.0,0.0,0.0,0.0,0.0,0.0,0.0,0.0,0.0,0.0,0.0,0.0,0.0,0.0,0.0,0.0,0.0,0.0,0.0,0.0,0.0,0.0,0.0,0.0,0.0,0.0,0.0,0.0,0.0,0.0,0.0,0.0,0.0,0.0,0.0,0.0,0.0,0.0,0.0,0.0,0.0,0.0,0.0,0.0,0.0,0.0,0.0,0.0,0.0,0.0,0.0,0.0,0.0,0.0,0.0,0.0,0.0,0.0,0.0,0.0,0.0,0.0,0.0,0.0,0.0,0.0,0.0,0.0,0.0,0.0,0.0,0.0,0.0,0.0,0.0,0.0,0.0,0.0,0.0,0.0,0.0,0.0,0.0,0.0,0.0,0.0,0.0,0.0,0.0,0.0,0.0,0.0,0.0,0.0,0.0,0.0,0.0,0.0,0.0,0.0,0.0,0.0,0.0,0.0,0.0,0.0,0.0,0.0,0.0,0.0,0.0,0.0,0.0,0.0,0.0,0.0,0.0,0.0,0.0,0.0,0.0,0.0,0.0,0.0,0.0,0.0,0.0,0.0,0.0,0.0,0.0,0.0,0.0,0.0,0.0,0.0,0.0,0.0,0.0,0.0,0.0,0.0,0.0,0.0,0.0,0.0,0.0,0.0,0.0,0.0,0.0,0.0,0.0,0.0,0.0,0.0,0.0,0.0,0.0,0.0,0.0,0.0,0.0,0.0,0.0,0.0,0.0,0.0,0.0,0.0,0.0,0.0,0.0,0.0,0.0,0.0,0.0,0.0,0.0,0.0,0.0,0.0,0.0,0.0,0.0,0.0,0.0,0.0,0.0,0.0,0.0,0.0,0.0,0.0,0.0,0.0,0.0,0.0,0.0,0.0,0.0,0.0,0.0,0.0,0.0,0.0,0.0,0.0,0.0,0.0,0.0,0.0,0.0,0.0,0.0,0.0,0.0,0.0,0.0,0.0,0.0,0.0,0.0,0.0,0.0,0.0,0.0,0.0,0.0,0.0,0.0,0.0,0.0,0.0,0.0,0.0,0.0,0.0,0.0,0.0,0.0,0.0,0.0,0.0,0.0,0.0,0.0,0.0,0.0,0.0,0.0,0.0,0.0,0.0,0.0,0.0,0.0,0.0,0.0,0.0,0.0,0.0,0.0,0.0,0.0,0.0,0.0,0.0,0.0,0.0,0.0,0.0,0.0,0.0,0.0,0.0,0.0,0.0,0.0,0.0,0.0,0.0,0.0,0.0,0.0,0.0,0.0,0.0,0.0,0.0,0.0,0.0,0.0,0.0,0.0,0.0,0.0,0.0,0.0,0.0,0.0,0.0,0.0,0.0,0.0,0.0,0.0,0.0,0.0,0.0,0.0,0.0,0.0,0.0,0.0,0.0,0.0,0.0,0.0,0.0,0.0,0.0,0.0,0.0,0.0,0.0,0.0,0.0,0.0,0.0,0.0,0.0,0.0,0.0,0.0,0.0,0.0,0.0,0.0,0.0,0.0,0.0,0.0,0.0,0.0,0.0,0.0,0.0,0.0,0.0,0.0,0.0,0.0,0.0,0.0,0.0,0.0,0.0,0.0,0.0,0.0,0.0,0.0,0.0,0.0,0.0,0.0,0.0,0.0,0.0,0.0,0.0,0.0,0.0,0.0,0.0,0.0,0.0,0.0,0.0,0.0,0.0,0.0,0.0,0.0,0.0,0.0,0.0,0.0,0.0,0.0,0.0,0.0,0.0,0.0,0.0,0.0,0.0,0.0,0.0,0.0,0.0,0.0,0.0,0.0,0.0,0.0,0.0,0.0,0.0,0.0,0.0,0.0,0.0,0.0,0.0,0.0,0.0,0.0,0.0,0.0,0.0,0.0,0.0,0.0,0.0,0.0,0.0,0.0,0.0,0.0,0.0,0.0,0.0,0.0,0.0,0.0,0.0,0.0,0.0,0.0,0.0,0.0,0.0,0.0,0.0,0.0,0.0,0.0,0.0,0.0,0.0,0.0,0.0,0.0,0.0,0.0,0.0,0.0,0.0,0.0,0.0,0.0,0.0,0.0,0.0,0.0,0.0,0.0,0.0,0.0,0.0,0.0,0.0,0.0,0.0,0.0,0.0,0.0,0.0,0.0,0.0,0.0,0.0,0.0,0.0,0.0,0.0,0.0,0.0,0.0,0.0,0.0,0.0,0.0,0.0,0.0,0.0,0.0,0.0,0.0,0.0,0.0,0.0,0.0,0.0,0.0,0.0,0.0,0.0,0.0,0.0,0.0,0.0,0.0,0.0,0.0,0.0,0.0,0.0,0.0,0.0,0.0,0.0,0.0,0.0,0.0,0.0,0.0,0.0,0.0,0.0,0.0,0.0,0.0,0.0,0.0,0.0,0.0,0.0,0.0,0.0,0.0,0.0,0.0,0.0,0.0,0.0,0.0,0.0,0.0,0.0,0.0,0.0,0.0,0.0,0.0,0.0,0.0,0.0,0.0,0.0,0.0,0.0,0.0,0.0,0.0,0.0,0.0,0.0,0.0,0.0,0.0,0.0,0.0,0.0,0.0,0.0,0.0,0.0,0.0,0.0,0.0,0.0,0.0,0.0,0.0,0.0,0.0,0.0,0.0,0.0,0.0,0.0,0.0,0.0,0.0,0.0,0.0,0.0,0.0,0.0,0.0,0.0,0.0,0.0,0.0,0.0,0.0,0.0,0.0,0.0,0.0,0.0,0.0,0.0,0.0,0.0,0.0,0.0,0.0,0.0,0.0,0.0,0.0,0.0,0.0,0.0,0.0,0.0,0.0,0.0,0.0,0.0,0.0,0.0,0.0,0.0,0.0,0.0,0.0,0.0,0.0,0.0,0.0,0.0,0.0,0.0,0.0,0.0,0.0,0.0,0.0,0.0,0.0,0.0,0.0,0.0,0.0,0.0,0.0,0.0,0.0,0.0,0.0,0.0,0.0,0.0,0.0,0.0,0.0,0.0,0.0,0.0,0.0,0.0,0.0,0.0,0.0,0.0,0.0,0.0,0.0,0.0,0.0,0.0,0.0,0.0,0.0,0.0,0.0,0.0,0.0,0.0,0.0,0.0,0.0,0.0,0.0,0.0,0.0,0.0,0.0,0.0,0.0,0.0,0.0,0.0,0.0,0.0,0.0,0.0,0.0,0.0,0.0,0.0,0.0,0.0,0.0,0.0,0.0,0.0,0.0,0.0,0.0,0.0,0.0,0.0,0.0,0.0,0.0,0.0,0.0,0.0,0.0,0.0,0.0,0.0,0.0,0.0,0.0,0.0,0.0,0.0,0.0,0.0,0.0,0.0,0.0,0.0,0.0,0.0,0.0,0.0,0.0,0.0,0.0,0.0,0.0,0.0,0.0,0.0,0.0,0.0,0.0,0.0,0.0,0.0,0.0,0.0,0.0,0.0,0.0,0.0,0.0,0.0,0.0,0.0,0.0,0.0,0.0,0.0,0.0,0.0,0.0,0.0,0.0,0.0,0.0,0.0,0.0,0.0,0.0,0.0,0.0,0.0,0.0,0.0,0.0,0.0,0.0,0.0,0.0,0.0,0.0,0.0,0.0,0.0,0.0,0.0,0.0,0.0,0.0,0.0,0.0,0.0,0.0,0.0,0.0,0.0,0.0,0.0,0.0,0.0,0.0,0.0,0.0,-0.8912,0.0,0.0,0.0,0.0,0.0,0.0,0.0,0.0,0.0,0.0,0.0,0.0,0.0,0.0,0.0,0.0,0.0,0.0,0.0,0.0,0.0,0.0,0.0,0.0,0.0,0.0,0.0,0.0,0.0,0.0,0.0,0.0,0.0,0.0,0.0,0.0,0.0,0.0,0.0,0.0,0.0,0.0,0.0,0.0,0.0,0.0,0.0,0.0,0.0,0.0,0.0,0.0,0.0,0.0,0.0,0.0,0.0,0.0,0.0,0.0,0.0,0.0,0.0,0.0,0.0,0.0,0.0,0.0,0.0,0.0,0.0,0.0,0.0,0.0,0.0,0.0,0.0,0.0,0.0,0.0,0.0,0.0,0.0,0.0,0.0,0.0,0.0,0.0,0.0,0.0,0.0,0.0,0.0,0.0,0.0,0.0,0.0,0.0,0.0,0.0,0.0,0.0,0.0,0.0,0.0,0.0,0.0,0.0,0.0,0.0,-1.0678,-1.0063,-0.9939,-0.9586,-0.8927,0.0,0.0,0.0,0.0,0.0,0.0,0.0,0.0,0.0,0.0,0.0,0.0,0.0,0.0,0.0,0.0,0.0,0.0,0.0,0.0,0.0,0.0,0.0,0.0,0.0,0.0,0.0,0.0,0.0,0.0,0.0,0.0,0.0,0.0,0.0,0.0,0.0,0.0,0.0,0.0,0.0,0.0,0.0,0.0,0.0,0.0,0.0,0.0,0.0,0.0,0.0,0.0,0.0,0.0,0.0,0.0,0.0,0.0,0.0,0.0,0.0,0.0,0.0,0.0,0.0,0.0,0.0,0.0,0.0,0.0,0.0,0.0,0.0,0.0,0.0,0.0,0.0,0.0,0.0,0.0,0.0,0.0,0.0,0.0,0.0,0.0,0.0,0.0,0.0,0.0,0.0,0.0,0.0,0.0,0.0,0.0,0.0,0.0,0.0,0.0,0.0,0.0,0.0,0.0,0.0,0.0,0.0,0.0,0.0,0.0,0.0,0.0,-0.989,-0.9603,-0.8961,0.0,0.0,0.0,0.0,0.0,0.0,0.0,0.0,0.0,0.0,0.0,0.0,0.0,0.0,0.0,0.0,0.0,0.0,0.0,0.0,0.0,0.0,0.0,0.0,0.0,0.0,0.0,0.0,0.0,0.0,0.0,0.0,0.0,0.0,0.0,0.0,0.0,0.0,0.0,0.0,0.0,0.0,0.0,0.0,0.0,0.0,0.0,0.0,0.0,0.0,0.0,0.0,0.0,0.0,0.0,0.0,0.0,0.0,0.0,0.0,0.0,0.0,0.0,0.0,0.0,0.0,0.0,0.0,0.0,0.0,0.0,0.0,0.0,0.0,0.0,0.0,0.0,0.0,0.0,0.0,0.0,0.0,0.0,0.0,0.0,0.0,0.0,0.0,0.0,0.0,0.0,0.0,0.0,0.0,0.0,0.0,0.0,0.0,0.0,0.0,0.0,0.0,0.0,0.0,0.0,0.0,0.0,0.0,0.0,0.0,-0.9331,-0.9875,-0.9882,0.0,-0.9126,0.0,0.0,0.0,0.0,0.0,0.0,0.0,0.0,0.0,0.0,0.0,0.0,0.0,0.0,0.0,0.0,0.0,0.0,0.0,0.0,0.0,0.0,0.0,0.0,0.0,0.0,0.0,0.0,0.0,0.0,0.0,0.0,0.0,0.0,0.0,0.0,0.0,0.0,0.0,0.0,0.0,0.0,0.0,0.0,0.0,0.0,0.0,0.0,0.0,0.0,0.0,0.0,0.0,0.0,0.0,0.0,0.0,0.0,0.0,0.0,0.0,0.0,0.0,0.0,0.0,0.0,0.0,0.0,0.0,0.0,0.0,0.0,0.0,0.0,0.0,0.0,0.0,0.0,0.0,0.0,0.0,0.0,0.0,0.0,0.0,0.0,0.0,0.0,0.0,0.0,0.0,0.0,0.0,0.0,0.0,0.0,0.0,0.0,0.0,0.0,0.0,0.0,0.0,0.0,0.0,0.0,0.0,0.0,0.0,0.0,-0.9443,-0.9301,-0.9308,-0.9192,0.0,0.0,0.0,0.0,0.0,0.0,0.0,0.0,0.0,0.0,0.0,0.0,0.0,0.0,0.0,0.0,0.0,0.0,0.0,0.0,0.0,0.0,0.0,0.0,0.0,0.0,0.0,0.0,0.0,0.0,0.0,0.0,0.0,0.0,0.0,0.0,0.0,0.0,0.0,0.0,0.0,0.0,0.0,0.0,0.0,0.0,0.0,0.0,0.0,0.0,0.0,0.0,0.0,0.0,0.0,0.0,0.0,0.0,0.0,0.0,0.0,0.0,0.0,0.0,0.0,0.0,0.0,0.0,0.0,0.0,0.0,0.0,0.0,0.0,0.0,0.0,0.0,0.0,0.0,0.0,0.0,0.0,0.0,0.0,0.0,0.0,0.0,0.0,0.0,0.0,0.0,0.0,0.0,0.0,0.0,0.0,0.0,0.0,0.0,0.0,0.0,0.0,0.0,0.0,0.0,0.0,0.0,0.0,0.0,0.0,-0.9293,-0.9585,-0.9267,-0.9208,-0.91,-0.8921,0.0,0.0,0.0,0.0,0.0,0.0,0.0,0.0,0.0,0.0,0.0,0.0,0.0,0.0,0.0,0.0,0.0,0.0,0.0,0.0,0.0,0.0,0.0,0.0,0.0,0.0,0.0,0.0,0.0,0.0,0.0,0.0,0.0,0.0,0.0,0.0,0.0,0.0,0.0,0.0,0.0,0.0,0.0,0.0,0.0,0.0,0.0,0.0,0.0,0.0,0.0,0.0,0.0,0.0,0.0,0.0,0.0,0.0,0.0,0.0,0.0,0.0,0.0,0.0,0.0,0.0,0.0,0.0,0.0,0.0,0.0,0.0,0.0,0.0,0.0,0.0,0.0,0.0,0.0,0.0,0.0,0.0,0.0,0.0,0.0,0.0,0.0,0.0,0.0,0.0,0.0,0.0,0.0,0.0,0.0,0.0,0.0,0.0,0.0,0.0,0.0,0.0,0.0,0.0,0.0,0.0,0.0,0.0,-0.9698,-0.9497,-0.9601,-1.0113,-0.995,-0.9556,0.0,0.0,0.0,0.0,0.0,0.0,0.0,0.0,0.0,0.0,0.0,0.0,0.0,0.0,0.0,0.0,0.0,0.0,0.0,0.0,0.0,0.0,0.0,0.0,0.0,0.0,0.0,0.0,0.0,0.0,0.0,0.0,0.0,0.0,0.0,0.0,0.0,0.0,0.0,0.0,0.0,0.0,0.0,0.0,0.0,0.0,0.0,0.0,0.0,0.0,0.0,0.0,0.0,0.0,0.0,0.0,0.0,0.0,0.0,0.0,0.0,0.0,0.0,0.0,0.0,0.0,0.0,0.0,0.0,0.0,0.0,0.0,0.0,0.0,0.0,0.0,0.0,0.0,0.0,0.0,0.0,0.0,0.0,0.0,0.0,0.0,0.0,0.0,0.0,0.0,0.0,0.0,0.0,0.0,0.0,0.0,0.0,0.0,0.0,0.0,0.0,0.0,0.0,0.0,0.0,0.0,0.0,0.0,0.0,-0.8728,-0.9034,-0.9635,-1.0519,-0.9728,-0.9338,0.0,0.0,0.0,0.0,0.0,0.0,0.0,0.0,0.0,0.0,0.0,0.0,0.0,0.0,0.0,0.0,0.0,0.0,0.0,0.0,0.0,0.0,0.0,0.0,0.0,0.0,0.0,0.0,0.0,0.0,0.0,0.0,0.0,0.0,0.0,0.0,0.0,0.0,0.0,0.0,0.0,0.0,0.0,0.0,0.0,0.0,0.0,0.0,0.0,0.0,0.0,0.0,0.0,0.0,0.0,0.0,0.0,0.0,0.0,0.0,0.0,0.0,0.0,0.0,0.0,0.0,0.0,0.0,0.0,0.0,0.0,0.0,0.0,0.0,0.0,0.0,0.0,0.0,0.0,0.0,0.0,0.0,0.0,0.0,0.0,0.0,0.0,0.0,0.0,0.0,0.0,0.0,0.0,0.0,0.0,0.0,0.0,0.0,0.0,0.0,0.0,0.0,0.0,0.0,0.0,0.0,0.0,0.0,0.0,-0.8762,0.0,-0.996,-1.0538,-0.9758,-0.9311,0.0,0.0,0.0,0.0,0.0,0.0,0.0,0.0,0.0,0.0,0.0,0.0,0.0,0.0,0.0,0.0,0.0,0.0,0.0,0.0,0.0,0.0,0.0,0.0,0.0,0.0,0.0,0.0,0.0,0.0,0.0,0.0,0.0,0.0,0.0,0.0,0.0,0.0,0.0,0.0,0.0,0.0,0.0,0.0,0.0,0.0,0.0,0.0,0.0,0.0,0.0,0.0,0.0,0.0,0.0,0.0,0.0,0.0,0.0,0.0,0.0,0.0,0.0,0.0,0.0,0.0,0.0,0.0,0.0,0.0,0.0,0.0,0.0,0.0,0.0,0.0,0.0,0.0,0.0,0.0,0.0,0.0,0.0,0.0,0.0,0.0,0.0,0.0,0.0,0.0,0.0,0.0,0.0,0.0,0.0,0.0,0.0,0.0,0.0,0.0,0.0,0.0,0.0,0.0,0.0,0.0,0.0,0.0,-0.8667,-1.009,-1.0515,-1.0561,-1.0222,-1.009,-0.945,0.0,0.0,0.0,0.0,0.0,0.0,0.0,0.0,0.0,0.0,0.0,0.0,0.0,0.0,0.0,0.0,0.0,0.0,0.0,0.0,0.0,0.0,0.0,0.0,0.0,0.0,0.0,0.0,0.0,0.0,0.0,0.0,0.0,0.0,0.0,0.0,0.0,0.0,0.0,0.0,0.0,0.0,0.0,0.0,0.0,0.0,0.0,0.0,0.0,0.0,0.0,0.0,0.0,0.0,0.0,0.0,0.0,0.0,0.0,0.0,0.0,0.0,0.0,0.0,0.0,0.0,0.0,0.0,0.0,0.0,0.0,0.0,0.0,0.0,0.0,0.0,0.0,0.0,0.0,0.0,0.0,0.0,0.0,0.0,0.0,0.0,0.0,0.0,0.0,0.0,0.0,0.0,0.0,0.0,0.0,0.0,0.0,0.0,0.0,0.0,0.0,0.0,0.0,0.0,0.0,0.0,0.0,0.0,0.0,-0.9313,-0.9952,-1.0416,-1.0572,-0.9725,-0.9337,0.0,0.0,0.0,0.0,0.0,0.0,0.0,0.0,0.0,0.0,0.0,0.0,0.0,0.0,0.0,0.0,0.0,0.0,0.0,0.0,0.0,0.0,0.0,0.0,0.0,0.0,0.0,0.0,0.0,0.0,0.0,0.0,0.0,0.0,0.0,0.0,0.0,0.0,0.0,0.0,0.0,0.0,0.0,0.0,0.0,0.0,0.0,0.0,0.0,0.0,0.0,0.0,0.0,0.0,0.0,0.0,0.0,0.0,0.0,0.0,0.0,0.0,0.0,0.0,0.0,0.0,0.0,0.0,0.0,0.0,0.0,0.0,0.0,0.0,0.0,0.0,0.0,0.0,0.0,0.0,0.0,0.0,0.0,0.0,0.0,0.0,0.0,0.0,0.0,0.0,0.0,0.0,0.0,0.0,0.0,0.0,0.0,0.0,0.0,0.0,0.0,0.0,0.0,0.0,0.0,0.0,0.0,0.0,0.0,-0.9653,-1.0349,-1.0754,-1.0798,-1.009,-0.9718,-0.9719,0.0,0.0,0.0,0.0,0.0,0.0,0.0,0.0,0.0,0.0,0.0,0.0,0.0,0.0,0.0,0.0,0.0,0.0,0.0,0.0,0.0,0.0,0.0,0.0,0.0,0.0,0.0,0.0,0.0,0.0,0.0,0.0,0.0,0.0,0.0,0.0,0.0,0.0,0.0,0.0,0.0,0.0,0.0,0.0,0.0,0.0,0.0,0.0,0.0,0.0,0.0,0.0,0.0,0.0,0.0,0.0,0.0,0.0,0.0,0.0,0.0,0.0,0.0,0.0,0.0,0.0,0.0,0.0,0.0,0.0,0.0,0.0,0.0,0.0,0.0,0.0,0.0,0.0,0.0,0.0,0.0,0.0,0.0,0.0,0.0,0.0,0.0,0.0,0.0,0.0,0.0,0.0,0.0,0.0,0.0,0.0,0.0,0.0,0.0,0.0,0.0,0.0,0.0,0.0,0.0,0.0,0.0,0.0,-1.0857,-1.1476,-1.1491,-1.0907,-1.0993,-1.0502,0.0,0.0,0.0,0.0,0.0,0.0,0.0,0.0,0.0,0.0,0.0,0.0,0.0,0.0,0.0,0.0,0.0,0.0,0.0,0.0,0.0,0.0,0.0,0.0,0.0,0.0,0.0,0.0,0.0,0.0,0.0,0.0,0.0,0.0,0.0,0.0,0.0,0.0,0.0,0.0,0.0,0.0,0.0,0.0,0.0,0.0,0.0,0.0,0.0,0.0,0.0,0.0,0.0,0.0,0.0,0.0,0.0,0.0,0.0,0.0,0.0,0.0,0.0,0.0,0.0,0.0,0.0,0.0,0.0,0.0,0.0,0.0,0.0,0.0,0.0,0.0,0.0,0.0,0.0,0.0,0.0,0.0,0.0,0.0,0.0,0.0,0.0,0.0,0.0,0.0,0.0,0.0,0.0,0.0,0.0,0.0,0.0,0.0,0.0,0.0,0.0,0.0,0.0,0.0,0.0,0.0,0.0,0.0,0.0,-1.1528,-1.1715,-1.1694,-1.1536,-1.1112,-1.078,0.0,0.0,0.0,0.0,0.0,0.0,0.0,0.0,0.0,0.0,0.0,0.0,0.0,0.0,0.0,0.0,0.0,0.0,0.0,0.0,0.0,0.0,0.0,0.0,0.0,0.0,0.0,0.0,0.0,0.0,0.0,0.0,0.0,0.0,0.0,0.0,0.0,0.0,0.0,0.0,0.0,0.0,0.0,0.0,0.0,0.0,0.0,0.0,0.0,0.0,0.0,0.0,0.0,0.0,0.0,0.0,0.0,0.0,0.0,0.0,0.0,0.0,0.0,0.0,0.0,0.0,0.0,0.0,0.0,0.0,0.0,0.0,0.0,0.0,0.0,0.0,0.0,0.0,0.0,0.0,0.0,0.0,0.0,0.0,0.0,0.0,0.0,0.0,0.0,0.0,0.0,0.0,0.0,0.0,0.0,0.0,0.0,0.0,0.0,0.0,0.0,0.0,0.0,0.0,0.0,0.0,0.0,0.0,-1.1416,-1.179,-1.1819,-1.1819,-1.1797,-1.1438,-1.1135,0.0,0.0,0.0,0.0,0.0,0.0,0.0,0.0,0.0,0.0,0.0,0.0,0.0,0.0,0.0,0.0,0.0,0.0,0.0,0.0,0.0,0.0,0.0,0.0,0.0,0.0,0.0,0.0,0.0,0.0,0.0,0.0,0.0,0.0,0.0,0.0,0.0,0.0,0.0,0.0,0.0,0.0,0.0,0.0,0.0,0.0,0.0,0.0,0.0,0.0,0.0,0.0,0.0,0.0,0.0,0.0,0.0,0.0,0.0,0.0,0.0,0.0,0.0,0.0,0.0,0.0,0.0,0.0,0.0,0.0,0.0,0.0,0.0,0.0,0.0,0.0,0.0,0.0,0.0,0.0,0.0,0.0,0.0,0.0,0.0,0.0,0.0,0.0,0.0,0.0,0.0,0.0,0.0,0.0,0.0,0.0,0.0,0.0,0.0,0.0,0.0,0.0,0.0,0.0,0.0,0.0,0.0,0.0,-1.1797,-1.1819,-1.1819,-1.1819,-1.1819,-1.1819,-1.1528,0.0,0.0,0.0,0.0,0.0,0.0,0.0,0.0,0.0,0.0,0.0,0.0,0.0,0.0,0.0,0.0,0.0,0.0,0.0,0.0,0.0,0.0,0.0,0.0,0.0,0.0,0.0,0.0,0.0,0.0,0.0,0.0,0.0,0.0,0.0,0.0,0.0,0.0,0.0,0.0,0.0,0.0,0.0,0.0,0.0,0.0,0.0,0.0,0.0,0.0,0.0,0.0,0.0,0.0,0.0,0.0,0.0,0.0,0.0,0.0,0.0,0.0,0.0,0.0,0.0,0.0,0.0,0.0,0.0,0.0,0.0,0.0,0.0,0.0,0.0,0.0,0.0,0.0,0.0,0.0,0.0,0.0,0.0,0.0,0.0,0.0,0.0,0.0,0.0,0.0,0.0,0.0,0.0,0.0,0.0,0.0,0.0,0.0,0.0,0.0,0.0,0.0,0.0,0.0,0.0,0.0,0.0,0.0,-1.1819,-1.1819,-1.1819,-1.1819,-1.1819,-1.1819,-1.1745,0.0,0.0,0.0,0.0,0.0,0.0,0.0,0.0,0.0,0.0,0.0,0.0,0.0,0.0,0.0,0.0,0.0,0.0,0.0,0.0,0.0,0.0,0.0,0.0,0.0,0.0,0.0,0.0,0.0,0.0,0.0,0.0,0.0,0.0,0.0,0.0,0.0,0.0,0.0,0.0,0.0,0.0,0.0,0.0,0.0,0.0,0.0,0.0,-1.0529,0.0,0.0,0.0,0.0,0.0,0.0,0.0,0.0,0.0,0.0,0.0,0.0,0.0,0.0,0.0,0.0,0.0,0.0,0.0,0.0,0.0,0.0,0.0,0.0,0.0,0.0,0.0,0.0,0.0,0.0,0.0,0.0,0.0,0.0,0.0,0.0,0.0,0.0,0.0,0.0,0.0,0.0,0.0,0.0,0.0,0.0,0.0,0.0,0.0,0.0,0.0,0.0,0.0,0.0,0.0,0.0,0.0,0.0,0.0,-1.1819,-1.1819,-1.1819,-1.1819,-1.1819,-1.1819,-1.1819,0.0,0.0,0.0,0.0,0.0,0.0,0.0,0.0,0.0,0.0,0.0,0.0,0.0,0.0,0.0,0.0,0.0,0.0,0.0,0.0,0.0,0.0,0.0,0.0,0.0,0.0,0.0,0.0,0.0,0.0,0.0,0.0,0.0,0.0,0.0,0.0,0.0,0.0,0.0,0.0,0.0,0.0,0.0,0.0,0.0,0.0,0.0,0.0,0.0,0.0,0.0,0.0,0.0,0.0,0.0,0.0,0.0,0.0,0.0,0.0,0.0,0.0,0.0,0.0,0.0,0.0,0.0,0.0,0.0,0.0,0.0,0.0,0.0,0.0,0.0,0.0,0.0,0.0,0.0,0.0,0.0,0.0,0.0,0.0,0.0,0.0,0.0,0.0,0.0,0.0,0.0,0.0,0.0,0.0,0.0,0.0,0.0,0.0,0.0,0.0,0.0,0.0,0.0,0.0,0.0,0.0,0.0,-1.1102,-1.17,-1.179,-1.1819,-1.1819,-1.1819,-1.1819,-1.1819,-1.1782,0.0,0.0,0.0,0.0,0.0,0.0,0.0,0.0,0.0,0.0,0.0,0.0,0.0,0.0,0.0,0.0,0.0,0.0,0.0,0.0,0.0,0.0,0.0,0.0,0.0,0.0,0.0,0.0,0.0,0.0,0.0,0.0,0.0,0.0,0.0,0.0,0.0,0.0,-0.7521,-0.8774,0.0,0.0,0.0,0.0,0.0,0.0,0.0,0.0,-1.1725,0.0,0.0,0.0,0.0,0.0,0.0,0.0,0.0,0.0,0.0,0.0,0.0,0.0,0.0,0.0,0.0,0.0,0.0,0.0,0.0,0.0,0.0,0.0,0.0,0.0,0.0,0.0,0.0,0.0,0.0,0.0,0.0,0.0,0.0,0.0,0.0,0.0,0.0,0.0,0.0,0.0,0.0,0.0,0.0,0.0,0.0,0.0,0.0,0.0,0.0,0.0,0.0,0.0,0.0,0.0,0.0,-1.0653,-1.0857,-1.1236,-1.179,-1.1819,-1.1819,-1.1819,-1.1819,-1.1819,-1.1745,0.0,0.0,0.0,0.0,0.0,0.0,0.0,0.0,0.0,0.0,0.0,0.0,0.0,0.0,0.0,0.0,0.0,0.0,0.0,0.0,0.0,0.0,0.0,0.0,0.0,0.0,0.0,0.0,0.0,0.0,0.0,0.0,0.0,0.0,0.0,0.0,0.0,0.0,0.0,-0.9176,-1.0192,0.0,0.0,0.0,0.0,0.0,0.0,0.0,0.0,-1.14,0.0,0.0,0.0,0.0,0.0,0.0,0.0,0.0,0.0,0.0,0.0,0.0,0.0,0.0,0.0,0.0,0.0,0.0,0.0,0.0,0.0,0.0,0.0,0.0,0.0,0.0,0.0,0.0,0.0,0.0,0.0,0.0,0.0,0.0,0.0,0.0,0.0,0.0,0.0,0.0,0.0,0.0,0.0,0.0,0.0,0.0,0.0,0.0,0.0,0.0,0.0,0.0,0.0,0.0,0.0,-1.0129,-1.0907,-1.1483,-1.1782,-1.1819,-1.1819,-1.179,-1.1468,-1.1461,0.0,0.0,0.0,0.0,0.0,0.0,0.0,0.0,0.0,0.0,0.0,0.0,0.0,0.0,0.0,0.0,0.0,0.0,0.0,0.0,0.0,0.0,0.0,0.0,0.0,0.0,0.0,0.0,0.0,0.0,0.0,0.0,0.0,0.0,0.0,0.0,0.0,0.0,0.0,0.0,-0.9435,-1.0116,-1.0571,0.0,0.0,0.0,0.0,0.0,0.0,-1.1438,-1.14,0.0,0.0,0.0,0.0,0.0,0.0,0.0,0.0,0.0,0.0,0.0,0.0,0.0,0.0,0.0,0.0,0.0,0.0,0.0,0.0,0.0,0.0,0.0,0.0,0.0,0.0,0.0,0.0,0.0,0.0,0.0,0.0,0.0,0.0,0.0,0.0,0.0,0.0,0.0,0.0,0.0,0.0,0.0,0.0,0.0,0.0,0.0,0.0,0.0,0.0,0.0,0.0,0.0,0.0,0.0,-0.9558,-1.0827,-1.1592,-1.1674,-1.1703,-1.1703,-1.1696,-1.124,-1.1186,0.0,0.0,0.0,0.0,0.0,0.0,0.0,0.0,0.0,0.0,0.0,0.0,0.0,0.0,0.0,0.0,0.0,0.0,0.0,0.0,0.0,0.0,0.0,0.0,0.0,0.0,0.0,0.0,0.0,0.0,0.0,0.0,0.0,0.0,0.0,0.0,0.0,0.0,0.0,0.0,0.0,-1.0244,-1.0465,-1.0824,0.0,0.0,0.0,0.0,-1.135,-1.1513,0.0,0.0,0.0,0.0,0.0,0.0,0.0,0.0,0.0,0.0,0.0,0.0,0.0,0.0,0.0,0.0,0.0,0.0,0.0,0.0,0.0,0.0,0.0,0.0,0.0,0.0,0.0,0.0,0.0,0.0,0.0,0.0,0.0,0.0,0.0,0.0,0.0,0.0,0.0,0.0,0.0,0.0,0.0,0.0,0.0,0.0,0.0,0.0,0.0,0.0,0.0,0.0,0.0,0.0,0.0,0.0,-0.9503,-1.0214,-1.0814,-1.1342,-1.1371,-1.1371,-1.1348,-1.1556,-1.1438,0.0,0.0,0.0,0.0,0.0,0.0,0.0,0.0,0.0,0.0,0.0,0.0,0.0,0.0,0.0,0.0,0.0,0.0,0.0,0.0,0.0,0.0,0.0,0.0,0.0,0.0,0.0,0.0,0.0,0.0,0.0,0.0,0.0,0.0,0.0,0.0,0.0,0.0,0.0,0.0,0.0,-1.0978,-1.0839,-1.1285,-1.1621,0.0,0.0,-1.1936,-1.1314,-1.1236,0.0,0.0,0.0,0.0,0.0,0.0,0.0,0.0,0.0,0.0,0.0,0.0,0.0,0.0,0.0,0.0,0.0,0.0,0.0,0.0,0.0,0.0,0.0,0.0,0.0,0.0,0.0,0.0,0.0,0.0,0.0,0.0,0.0,0.0,0.0,0.0,0.0,0.0,0.0,0.0,0.0,0.0,0.0,0.0,0.0,0.0,0.0,0.0,0.0,0.0,0.0,0.0,0.0,0.0,0.0,-0.8931,-0.9506,-1.0426,-1.114,-1.1571,-1.1586,-1.1586,-1.1586,-1.1347,-1.1109,0.0,0.0,0.0,0.0,0.0,0.0,0.0,0.0,0.0,0.0,0.0,0.0,0.0,0.0,0.0,0.0,0.0,0.0,0.0,0.0,0.0,0.0,0.0,0.0,0.0,0.0,0.0,0.0,0.0,0.0,0.0,0.0,0.0,0.0,0.0,0.0,0.0,0.0,0.0,0.0,0.0,0.0,-1.0801,-1.1156,0.0,0.0,0.0,-1.1426,-1.1216,0.0,0.0,0.0,0.0,0.0,0.0,0.0,0.0,0.0,0.0,0.0,0.0,0.0,0.0,0.0,0.0,0.0,0.0,0.0,0.0,0.0,0.0,0.0,0.0,0.0,0.0,0.0,0.0,0.0,0.0,0.0,0.0,0.0,0.0,0.0,0.0,0.0,0.0,0.0,0.0,0.0,0.0,0.0,0.0,0.0,0.0,0.0,0.0,0.0,0.0,0.0,0.0,0.0,0.0,0.0,0.0,0.0,-0.9506,-1.0685,-1.1416,-1.1659,-1.1681,-1.1689,-1.1674,-1.1277,0.0,0.0,0.0,0.0,0.0,0.0,0.0,0.0,0.0,0.0,0.0,0.0,0.0,0.0,0.0,0.0,0.0,0.0,0.0,0.0,0.0,0.0,0.0,0.0,0.0,0.0,0.0,-0.787,0.0,0.0,0.0,0.0,0.0,0.0,0.0,0.0,0.0,0.0,0.0,0.0,0.0,0.0,-1.1121,-1.1026,-1.1363,-1.1629,0.0,0.0,-1.1211,-1.1271,-1.1037,-1.067,0.0,0.0,0.0,0.0,0.0,0.0,0.0,0.0,0.0,0.0,0.0,0.0,0.0,0.0,0.0,0.0,0.0,0.0,0.0,0.0,0.0,0.0,0.0,0.0,0.0,0.0,0.0,0.0,0.0,0.0,0.0,0.0,0.0,0.0,0.0,0.0,0.0,0.0,0.0,0.0,0.0,0.0,0.0,0.0,0.0,0.0,0.0,0.0,0.0,0.0,0.0,0.0,0.0,0.0,-0.9446,-0.9546,-1.0685,-1.1303,-1.1348,-1.1326,-1.1326,-1.1348,-1.1586,-1.1169,0.0,0.0,0.0,0.0,0.0,0.0,0.0,0.0,0.0,0.0,0.0,0.0,0.0,0.0,0.0,0.0,0.0,0.0,0.0,0.0,0.0,0.0,0.0,0.0,0.0,0.0,0.0,0.0,0.0,0.0,0.0,0.0,0.0,0.0,0.0,0.0,0.0,0.0,0.0,0.0,0.0,-1.219,-1.1952,-1.2409,-1.2799,0.0,-1.2288,-1.1848,-1.1602,-1.1099,-1.0652,-1.0414,0.0,0.0,0.0,0.0,0.0,0.0,0.0,0.0,0.0,0.0,0.0,0.0,0.0,0.0,0.0,0.0,0.0,0.0,0.0,0.0,0.0,0.0,0.0,0.0,0.0,0.0,0.0,0.0,0.0,0.0,0.0,0.0,0.0,0.0,0.0,0.0,0.0,0.0,0.0,0.0,0.0,0.0,0.0,0.0,0.0,0.0,0.0,0.0,0.0,0.0,0.0,0.0,0.0,-0.9334,-0.9498,-1.0678,-1.1393,-1.1608,-1.1615,-1.1608,-1.1608,-1.1725,-1.1206,0.0,0.0,0.0,0.0,0.0,0.0,0.0,0.0,0.0,0.0,0.0,0.0,0.0,0.0,0.0,0.0,0.0,0.0,0.0,0.0,0.0,0.0,0.0,0.0,0.0,0.0,0.0,0.0,-0.753,-0.72,-0.6871,0.0,0.0,0.0,0.0,0.0,0.0,0.0,0.0,0.0,0.0,-1.2354,-1.2246,-1.245,0.0,0.0,-1.2105,-1.1712,-1.1618,-1.1098,-1.0567,-1.0155,-1.0353,0.0,0.0,0.0,0.0,0.0,0.0,0.0,0.0,0.0,0.0,0.0,0.0,0.0,0.0,0.0,0.0,0.0,0.0,0.0,0.0,0.0,0.0,0.0,0.0,0.0,0.0,0.0,0.0,0.0,0.0,0.0,0.0,0.0,0.0,0.0,0.0,0.0,0.0,0.0,0.0,0.0,0.0,0.0,0.0,0.0,0.0,0.0,0.0,0.0,0.0,0.0,0.0,-0.9432,-0.9881,-1.0914,-1.1557,-1.1812,-1.1819,-1.1819,-1.1819,-1.1819,-1.1289,0.0,0.0,0.0,0.0,0.0,0.0,0.0,0.0,0.0,0.0,0.0,0.0,0.0,0.0,0.0,0.0,0.0,0.0,0.0,0.0,0.0,0.0,0.0,0.0,0.0,0.0,0.0,0.0,-0.7379,-0.704,-0.6878,0.0,0.0,0.0,0.0,0.0,0.0,0.0,0.0,0.0,0.0,-1.2628,-1.2616,-1.2622,-1.2628,-1.2661,-1.219,-1.1839,-1.1833,-1.15,-1.1007,-1.0502,0.0,0.0,0.0,0.0,0.0,0.0,0.0,0.0,0.0,0.0,0.0,0.0,0.0,0.0,0.0,0.0,0.0,0.0,0.0,0.0,0.0,0.0,0.0,0.0,0.0,0.0,0.0,-0.8821,0.0,0.0,-0.7863,0.0,0.0,0.0,0.0,0.0,0.0,0.0,0.0,0.0,0.0,0.0,0.0,0.0,0.0,0.0,0.0,0.0,0.0,0.0,0.0,0.0,0.0,-0.9918,-1.0755,-1.1419,-1.1805,-1.182,-1.1805,-1.1819,-1.1819,-1.1819,-1.1483,-1.0783,0.0,0.0,0.0,0.0,0.0,0.0,0.0,0.0,0.0,0.0,0.0,0.0,0.0,0.0,0.0,0.0,0.0,0.0,0.0,0.0,0.0,0.0,0.0,0.0,0.0,0.0,-0.7678,-0.7201,-0.7081,0.0,0.0,0.0,0.0,0.0,0.0,0.0,0.0,0.0,-1.2416,-1.2847,-1.3179,-1.3179,-1.3192,-1.3185,-1.3185,-1.2728,-1.2404,-1.2397,-1.2372,-1.2203,0.0,0.0,0.0,0.0,0.0,0.0,0.0,0.0,0.0,0.0,0.0,0.0,0.0,0.0,0.0,0.0,0.0,0.0,0.0,0.0,0.0,0.0,0.0,0.0,0.0,0.0,0.0,-0.996,-0.9556,0.0,0.0,0.0,0.0,0.0,0.0,0.0,0.0,0.0,0.0,0.0,-1.1199,-1.2074,0.0,0.0,0.0,0.0,0.0,0.0,0.0,0.0,0.0,0.0,0.0,0.0,-1.0655,-1.1248,-1.1613,-1.2007,-1.2448,-1.2022,-1.1819,-1.1819,-1.1819,-1.1483,-1.082,0.0,0.0,0.0,0.0,0.0,0.0,0.0,0.0,0.0,0.0,0.0,0.0,0.0,0.0,0.0,0.0,0.0,0.0,0.0,0.0,0.0,0.0,0.0,0.0,0.0,-0.8644,0.0,0.0,0.0,0.0,0.0,0.0,0.0,0.0,0.0,0.0,-1.1952,-1.2515,-1.2885,-1.3079,-1.3364,-1.3764,-1.3772,-1.3821,0.0,0.0,0.0,0.0,0.0,0.0,0.0,0.0,0.0,0.0,0.0,0.0,0.0,0.0,-1.3342,-1.1888,-1.1581,-1.1707,-1.2065,0.0,0.0,0.0,0.0,0.0,0.0,0.0,0.0,0.0,0.0,0.0,0.0,0.0,0.0,-1.1281,-1.092,-1.0653,0.0,0.0,0.0,0.0,0.0,0.0,0.0,0.0,-1.2201,-1.2508,-1.2538,-1.3391,-1.3578,-1.3144,-1.2934,-1.2299,0.0,0.0,0.0,0.0,0.0,0.0,0.0,0.0,-1.1349,-1.194,-1.2089,-1.2381,-1.2756,-1.2134,-1.1819,-1.1819,-1.1819,-1.1483,-1.082,-0.9994,-0.9458,0.0,0.0,0.0,0.0,0.0,0.0,0.0,0.0,0.0,0.0,0.0,0.0,0.0,0.0,0.0,0.0,0.0,0.0,0.0,0.0,0.0,0.0,0.0,-0.915,0.0,0.0,0.0,0.0,0.0,0.0,0.0,0.0,0.0,-1.2234,-1.2636,-1.3182,-1.3728,-1.3436,-1.3461,-1.4274,0.0,0.0,0.0,0.0,0.0,0.0,0.0,-1.3609,-1.3778,-1.4087,-1.4425,-1.4639,-1.4953,-1.5136,-1.4941,0.0,0.0,-1.3053,-1.2763,-1.2843,-1.3201,-1.327,-1.3377,-1.3728,-1.3804,-1.3804,0.0,0.0,0.0,0.0,-1.3817,0.0,0.0,0.0,-1.3136,-1.2838,0.0,-1.2134,0.0,0.0,0.0,0.0,-1.0992,-1.2209,0.0,0.0,-1.3518,-1.3847,-1.3877,-1.3892,-1.3877,-1.3922,-1.4468,-1.4408,-1.369,-1.1289,0.0,0.0,0.0,0.0,0.0,0.0,-1.1984,-1.283,-1.2861,-1.2831,-1.2823,-1.2179,-1.1827,-1.1805,-1.1819,-1.1498,-1.0872,-1.079,-1.0526,-0.995,-0.9293,0.0,0.0,0.0,0.0,0.0,0.0,0.0,0.0,0.0,0.0,0.0,0.0,0.0,0.0,0.0,0.0,0.0,0.0,0.0,0.0,-0.9227,0.0,0.0,0.0,0.0,0.0,0.0,0.0,0.0,0.0,-1.3909,-1.3361,-1.3789,-1.4305,-1.4828,0.0,0.0,0.0,0.0,-1.433,-1.4853,-1.4922,-1.4903,-1.4922,-1.5279,-1.5423,-1.5029,0.0,0.0,-1.5806,-1.5718,-1.5561,-1.5079,-1.5385,-1.5542,-1.5035,-1.4783,-1.4828,-1.4884,-1.4859,-1.4935,-1.496,-1.496,-1.496,-1.4663,0.0,0.0,0.0,0.0,-1.4004,-1.4348,-1.5164,-1.4532,-1.3944,-1.3503,-1.3323,0.0,0.0,0.0,0.0,0.0,0.0,-1.3757,-1.4232,-1.4416,-1.4767,-1.5244,-1.5229,-1.5236,-1.5236,-1.4932,-1.47,-1.4461,-1.3279,-1.2311,-1.1635,0.0,0.0,0.0,0.0,-1.3506,-1.4154,-1.375,-1.3518,-1.3518,-1.2845,-1.2276,-1.182,-1.1819,-1.17,-1.1521,-1.1051,-1.0723,-1.0529,-0.995,0.0,0.0,0.0,0.0,0.0,0.0,0.0,0.0,0.0,0.0,0.0,0.0,0.0,0.0,0.0,0.0,0.0,0.0,0.0,-0.9875,-0.9619,-1.0126,0.0,0.0,0.0,0.0,0.0,0.0,0.0,0.0,0.0,-1.4959,-1.4777,-1.4733,0.0,0.0,-1.4657,-1.5367,-1.5323,-1.5285,-1.5436,-1.5128,0.0,-1.5411,-1.4966,-1.4909,-1.5875,-1.6314,-1.6471,-1.6314,-1.6277,-1.6227,-1.6063,-1.617,-1.6227,-1.6051,-1.5385,-1.5104,-1.5388,-1.5461,-1.5605,-1.5944,-1.6045,-1.6038,-1.5326,-1.4588,-1.4588,-1.4812,-1.5161,-1.4752,-1.5044,-1.5761,-1.5371,-1.4962,-1.4595,-1.4595,-1.3997,-1.3024,-1.3708,0.0,0.0,0.0,-1.5052,-1.5179,-1.5221,-1.5424,-1.5791,-1.5814,-1.5814,-1.5784,-1.5401,-1.5206,-1.5191,-1.4782,-1.4165,-1.3333,0.0,-1.3493,-1.2927,-1.3771,-1.4386,-1.4752,-1.4393,-1.4199,-1.4191,-1.3264,-1.259,-1.2194,-1.1939,-1.1819,-1.179,-1.1431,-1.1186,-1.1186,-1.06,-1.0077,0.0,0.0,0.0,0.0,0.0,0.0,0.0,0.0,0.0,0.0,0.0,-0.8732,-0.8326,0.0,0.0,0.0,-0.918,-0.9856,-1.0475,-1.0671,0.0,0.0,0.0,0.0,0.0,0.0,0.0,-1.433,-1.5092,-1.5567,-1.568,-1.5599,-1.553,-1.5517,-1.518,-1.5193,-1.5919,0.0,-1.5775,-1.5988,-1.5555,-1.5316,-1.5637,-1.5134,-1.5155,-1.6314,-1.6528,-1.6528,-1.6528,-1.6528,-1.6528,-1.6528,-1.6528,-1.6528,-1.6528,-1.5957,-1.5605,-1.5944,-1.6026,-1.6145,-1.6459,-1.6528,-1.6528,-1.5821,-1.5881,-1.5873,-1.5851,-1.5814,-1.5858,-1.5836,-1.5814,-1.5806,-1.5814,-1.5814,-1.5814,-1.5491,-1.4992,-1.5656,0.0,-1.5074,-1.6189,-1.6406,-1.5873,-1.5829,-1.5814,-1.5814,-1.5814,-1.5814,-1.5814,-1.5814,-1.5814,-1.5806,-1.5799,-1.5484,-1.4879,-1.4259,-1.3944,-1.3896,-1.4535,-1.4865,-1.4872,-1.4872,-1.4842,-1.4767,-1.355,-1.2891,-1.2883,-1.2216,-1.1872,-1.188,-1.1827,-1.1819,-1.1775,-1.1221,-1.085,-1.076,0.0,0.0,0.0,0.0,0.0,0.0,0.0,0.0,0.0,0.0,0.0,0.0,0.0,0.0,0.0,-1.0267,0.0,-1.0903,-1.2058,0.0,0.0,0.0,-1.3897,-1.4308,-1.501,-1.5312,-1.5074,0.0,0.0,-1.5831,-1.6201,-1.6528,-1.6528,-1.5643,-1.5373,-1.6377,-1.6082,-1.5938,-1.6415,-1.6038,-1.5718,-1.5793,-1.5743,-1.5888,-1.6421,-1.6528,-1.6528,-1.6528,-1.6528,-1.6528,-1.6528,-1.6528,-1.6528,-1.6528,-1.6471,-1.6528,-1.6497,-1.6503,-1.6515,-1.6528,-1.6528,-1.6528,-1.6061,-1.648,-1.6488,-1.6226,-1.5844,-1.6301,-1.6226,-1.5821,-1.5814,-1.5814,-1.5814,-1.5814,-1.5957,-1.6286,-1.6943,-1.7176,-1.7026,-1.6794,-1.6629,-1.6458,-1.6031,-1.5814,-1.5814,-1.5814,-1.5814,-1.5814,-1.5814,-1.5814,-1.5814,-1.5814,-1.5724,-1.5566,-1.5416,-1.5059,-1.4603,-1.5236,-1.5566,-1.5566,-1.5566,-1.5326,-1.479,-1.3982,-1.3555,-1.3555,-1.2905,-1.2576,-1.2561,-1.2067,-1.1819,-1.179,-1.1648,-1.1349,-1.0812,-1.0077,0.0,0.0,0.0,0.0,0.0,0.0,0.0,0.0,0.0,-0.9927,-0.898,0.0,-1.0317,0.0,-1.085,-1.1542,-1.2739,-1.2423,0.0,0.0,-1.4401,-1.4684,-1.6336,-1.5979,-1.5737,-1.6082,-1.6365,-1.6471,-1.6297,-1.6434,-1.6528,-1.6515,-1.6289,-1.6233,-1.649,-1.6378,-1.6365,-1.6446,-1.6045,-1.585,-1.6195,-1.6321,-1.6352,-1.649,-1.6528,-1.6528,-1.6528,-1.6528,-1.6528,-1.6528,-1.6528,-1.6528,-1.6528,-1.6528,-1.6528,-1.6528,-1.6528,-1.6528,-1.6528,-1.6528,-1.6528,-1.5994,-1.6338,-1.6906,-1.6764,-1.6241,-1.6562,-1.6667,-1.6623,-1.6331,-1.6368,-1.6637,-1.6645,-1.6847,-1.7182,-1.7832,-1.7999,-1.7697,-1.7623,-1.7272,-1.6704,-1.6338,-1.6061,-1.5814,-1.5814,-1.5814,-1.5814,-1.5814,-1.5814,-1.5821,-1.6054,-1.6204,-1.6211,-1.6503,-1.6465,-1.6114,-1.6174,-1.6069,-1.5814,-1.5814,-1.5611,-1.5251,-1.4588,-1.4101,-1.3817,-1.3443,-1.2949,-1.2389,-1.2269,-1.2104,-1.1812,-1.1819,-1.164,-1.1246,-1.0633,-1.0271,0.0,0.0,0.0,0.0,0.0,0.0,0.0,0.0,0.0,0.0,0.0,-1.1174,-1.1344,-1.2202,-1.3116,-1.3961,-1.3978,-1.4511,-1.5909,-1.5505,-1.5625,-1.6818,-1.6407,-1.6176,-1.6441,-1.6528,-1.6528,-1.6528,-1.6528,-1.6528,-1.6528,-1.6528,-1.6528,-1.6528,-1.6528,-1.6528,-1.6509,-1.6045,-1.5787,-1.6114,-1.6158,-1.6239,-1.6465,-1.6528,-1.6528,-1.6528,-1.6528,-1.6528,-1.6528,-1.6528,-1.6528,-1.6528,-1.6528,-1.6528,-1.6528,-1.6528,-1.6528,-1.6528,-1.6528,-1.6528,-1.6098,-1.6278,-1.7371,-1.7525,-1.7085,-1.7003,-1.7242,-1.7652,-1.7085,-1.716,-1.769,-1.7772,-1.7817,-1.7861,-1.8538,-1.8515,-1.8014,-1.8485,-1.8089,-1.6973,-1.6786,-1.6413,-1.5933,-1.5933,-1.5926,-1.5933,-1.6016,-1.6061,-1.6061,-1.6562,-1.6846,-1.6868,-1.7399,-1.769,-1.7667,-1.7212,-1.6607,-1.5941,-1.5933,-1.5896,-1.5799,-1.5229,-1.464,-1.4087,-1.3974,-1.3353,-1.2141,-1.2628,-1.2628,-1.1977,-1.2007,-1.2022,-1.1917,-1.1378,-1.1281,0.0,-1.1238,0.0,0.0,0.0,0.0,0.0,0.0,0.0,0.0,-1.2185,-1.1994,-1.2378,-1.3868,-1.4828,-1.4911,-1.5808,-1.6441,-1.6487,-1.6501,-1.6528,-1.6528,-1.6528,-1.6528,-1.6528,-1.6528,-1.6528,-1.6528,-1.6528,-1.6528,-1.6528,-1.6528,-1.6528,-1.6528,-1.6528,-1.6528,-1.6528,-1.612,-1.5894,-1.59,-1.5863,-1.6013,-1.6427,-1.6528,-1.6528,-1.6528,-1.6528,-1.6528,-1.6528,-1.6528,-1.6528,-1.6528,-1.6528,-1.6528,-1.6528,-1.6528,-1.6528,-1.6528,-1.6528,-1.6528,-1.7662,-1.8179,-1.8418,-1.8747,-1.9084,-1.8553,-1.8096,-1.7682,-1.7555,-1.757,-1.7767,-1.8257,-1.8508,-1.8575,-1.9203,-1.9428,-1.9301,-1.8889,-1.8575,-1.8291,-1.7204,-1.6644,-1.6532,-1.6532,-1.6532,-1.6562,-1.7062,-1.7356,-1.7356,-1.7436,-1.7511,-1.7511,-1.7623,-1.769,-1.772,0.0,0.0,0.0,-1.6525,-1.6308,-1.5829,-1.5679,-1.5551,-1.5424,-1.4879,0.0,-1.3488,-1.3548,-1.3294,-1.2681,-1.3121,0.0,0.0,0.0,0.0,0.0,0.0,0.0,0.0,0.0,0.0,0.0,-1.3704,-1.3094,-1.2395,-1.3221,-1.4005,-1.4538,-1.5078,-1.5525,-1.5958,-1.5911,-1.6021,-1.6429,-1.6495,-1.6528,-1.6528,-1.6528,-1.6528,-1.6528,-1.6528,-1.6528,-1.6528,-1.6528,-1.6528,-1.6528,-1.6528,-1.6528,-1.6528,-1.6528,-1.6528,-1.6509,-1.6396,-1.6352,-1.6358,-1.6297,-1.634,-1.6509,-1.6528,-1.6528,-1.6528,-1.6528,-1.6528,-1.6528,-1.6528,-1.6528,-1.6528,-1.6528,-1.6528,-1.6528,-1.6528,-1.6528,-1.6528,-1.6528,-1.6528,-1.7891,-1.8212,-1.8568,-1.8897,0.0,-1.9196,-1.9001,-1.8657,-1.8343,-1.8388,-1.871,-1.9046,-1.9188,-1.9203,-1.954,-1.9697,-1.9667,-1.9331,-1.9016,-1.8672,-1.7988,-1.7503,-1.7197,-1.7189,-1.7197,-1.7212,-1.7525,-1.769,-1.7705,-1.8018,-1.8208,-1.8201,-1.853,-1.8687,-1.871,-1.9031,-1.8702,-1.7682,-1.7048,-1.6562,-1.6256,-1.5942,-1.5649,-1.5334,-1.5311,0.0,0.0,0.0,0.0,0.0,0.0,0.0,0.0,0.0,0.0,-1.3279,-1.3279,-1.3428,-1.3797,-1.4371,-1.4902,-1.5254,-1.5205,-1.4707,-1.3757,-1.4598,-1.5305,-1.5618,-1.6038,-1.6391,-1.6641,-1.6545,-1.66,-1.6841,-1.6631,-1.6528,-1.6528,-1.6528,-1.6528,-1.6528,-1.6528,-1.6528,-1.6528,-1.6528,-1.6528,-1.6528,-1.6528,-1.6528,-1.6528,-1.6528,-1.6528,-1.6528,-1.6528,-1.6528,-1.6528,-1.6528,-1.6528,-1.6528,-1.6528,-1.6528,-1.6528,-1.6528,-1.6528,-1.6528,-1.6528,-1.6528,-1.6528,-1.6528,-1.6528,-1.6528,-1.6528,-1.6528,-1.6528,-1.6528,-1.6528,-1.8041,-1.8119,-1.865,-1.8874,-1.8927,-1.9465,-1.9697,-1.9645,-1.9114,0.0,0.0,-1.9697,-1.9697,-1.9697,-1.9697,-1.9697,-1.9697,-1.9697,-1.9383,-1.8882,-1.8762,-1.8418,-1.7876,-1.7869,-1.7854,-1.7876,-1.7988,-1.8074,-1.8056,-1.862,-1.8874,-1.8919,-1.942,-1.9697,-1.9697,-1.9697,-1.942,-1.8859,-1.7667,-1.6936,-1.6712,-1.6219,-1.5628,-1.4977,-1.5514,-1.5229,-1.4042,-1.461,-1.4655,-1.4034,-1.4068,-1.4101,-1.3997,-1.4094,-1.4341,-1.4745,-1.5007,-1.5126,-1.5149,-1.6219,-1.6635,-1.6052,-1.6273,-1.6184,-1.5578,-1.5858,-1.6073,-1.616,-1.6669,-1.6984,-1.6984,-1.7089,-1.7153,-1.7146,-1.6759,-1.6528,-1.6528,-1.6528,-1.6528,-1.6528,-1.6528,-1.6528,-1.6528,-1.6528,-1.6528,-1.6528,-1.6528,-1.6528,-1.6528,-1.6528,-1.6528,-1.6528,-1.6528,-1.6528,-1.6528,-1.6528,-1.6528,-1.6528,-1.6528,-1.6528,-1.6528,-1.6528,-1.6528,-1.6528,-1.6528,-1.6528,-1.6528,-1.6528,-1.6528,-1.6528,-1.6528,-1.6528,-1.6528,-1.6528,-1.6528,-1.9405,-1.9413,-1.951,-1.954,-1.9548,-1.9652,-1.9697,-1.9675,-1.9577,-1.9607,-1.9697,-1.9697,-1.9697,-1.9697,-1.9697,-1.9697,-1.9697,-1.9697,-1.9673,-1.951,-1.8972,-1.8657,-1.8568,-1.856,-1.8568,-1.8612,-1.9144,-1.9398,-1.9428,-1.9503,-1.9548,-1.9555,-1.9673,-1.9697,-1.9697,-1.9697,-1.9637,-1.954,-1.8814,-1.7854,-1.6749,-1.6622,-1.6293,-1.5701,-1.5754,-1.5461,-1.47,-1.5311,-1.5364,-1.4707,-1.5229,-1.5266,-1.4707,-1.5186,-1.5326,-1.4902,-1.5815,-1.6443,-1.6458,-1.7137,-1.7363,-1.6962,-1.698,-1.6917,-1.6818,-1.6173,-1.5972,-1.6369,-1.6568,-1.6589,-1.6566,-1.6629,-1.6644,-1.6637,-1.6552,-1.6522,-1.6528,-1.6528,-1.6528,-1.6528,-1.6528,-1.6528,-1.6528,-1.6528,-1.6528,-1.6528,-1.6528,-1.6528,-1.6528,-1.6528,-1.6528,-1.6528,-1.6528,-1.6528,-1.6528,-1.6528,-1.6528,-1.6528,-1.6528,-1.6528,-1.6528,-1.6528,-1.6528,-1.6528,-1.6528,-1.6528,-1.6528,-1.6528,-1.6528,-1.6528,-1.6528,-1.6528,-1.6528,-1.6528,-1.6528,-1.9697,-1.9697,-1.9697,-1.9697,-1.9697,-1.9697,-1.9697,-1.9697,-1.9697,-1.9697,-1.9697,-1.9697,-1.9697,-1.9697,-1.9697,-1.9697,-1.9697,-1.9697,-1.9697,-1.9667,-1.9383,-1.9226,-1.9241,-1.9241,-1.9233,-1.9263,-1.9568,-1.9697,-1.9697,-1.9697,-1.9697,-1.9697,-1.9697,-1.9697,-1.9697,-1.9697,-1.9697,-1.9675,-1.9039,-1.8418,-1.7772,-1.7077,-1.657,-1.6308,-1.5972,-1.5664,-1.5379,-1.5949,-1.6151,-1.5823,-1.6488,-1.669,-1.6413,-1.6667,-1.6697,-1.6428,-1.6898,-1.7242,-1.7242,-1.76,-1.7862,-1.8054,-1.753,-1.7222,-1.7222,-1.6529,-1.6252,-1.6497,-1.6528,-1.6528,-1.6528,-1.6528,-1.6528,-1.6528,-1.6528,-1.6528,-1.6528,-1.6528,-1.6528,-1.6528,-1.6528,-1.6528,-1.6528,-1.6528,-1.6528,-1.6528,-1.6528,-1.6528,-1.6528,-1.6528,-1.6528,-1.6528,-1.6528,-1.6528,-1.6528,-1.6528,-1.6528,-1.6528,-1.6528,-1.6528,-1.6528,-1.6528,-1.6528,-1.6528,-1.6528,-1.6528,-1.6528,-1.6528,-1.6528,-1.6528,-1.6528,-1.6528,-1.6528,-1.6528,-1.6528,-1.9697,-1.9697,-1.9697,-1.9697,-1.9697,-1.9697,-1.9697,-1.9697,-1.9697,-1.9697,-1.9697,-1.9697,-1.9697,-1.9697,-1.9697,-1.9697,-1.9697,-1.9697,-1.9697,-1.9697,-1.9697,-1.9697,-1.9697,-1.9697,-1.9646,-1.9566,-1.9646,-1.9654,-1.9559,-1.9639,-1.9697,-1.9697,-1.9697,-1.9654,-1.9522,-1.9646,-1.9603,-1.9332,-1.8939,-1.8671,-1.8493,-1.7482,-1.6927,-1.6727,-1.6412,-1.6211,-1.6241,-1.6674,-1.6936,-1.6958,-1.7421,-1.769,-1.769,-1.769,-1.769,-1.7697,-1.7839,-1.794,-1.7963,-1.7956,-1.8108,-1.8493,-1.778,-1.7271,-1.7111,-1.6752,-1.6528,-1.6528,-1.6528,-1.6528,-1.6528,-1.6528,-1.6528,-1.6528,-1.6528,-1.6528,-1.6528,-1.6528,-1.6528,-1.6528,-1.6528,-1.6528,-1.6528,-1.6528,-1.6528,-1.6528,-1.6528,-1.6528,-1.6528,-1.6528,-1.6528,-1.6528,-1.6528,-1.6528,-1.6528,-1.6528,-1.6528,-1.6528,-1.6528,-1.6528,-1.6528,-1.6528,-1.6528,-1.6528,-1.6528,-1.6528,-1.6528,-1.6528,-1.6528,-1.6528,-1.6528,-1.6528,-1.6528,-1.6337,-1.6386,-1.9697,-1.9697,-1.9697,-1.9697,-1.9697,-1.9697,-1.9697,-1.9697,-1.9697,-1.9697,-1.9697,-1.9697,-1.9697,-1.9697,-1.9697,-1.9697,-1.9697,-1.9697,-1.9697,-1.969,-1.969,-1.9697,-1.969,-1.969,-1.9457,-1.9088,-1.9479,-1.945,-1.905,-1.9457,-1.9697,-1.9697,-1.9697,-1.9406,-1.9088,-1.9442,-1.9207,-1.8302,-1.8669,-1.8562,-1.8029,-1.7834,-1.7503,-1.6915,-1.7283,-1.7511,-1.7428,-1.757,-1.7608,-1.7608,-1.7682,-1.7712,-1.772,-1.7705,-1.7705,-1.7749,-1.8257,-1.8678,-1.8701,-1.8331,-1.7905,-1.7497,-1.7388,-1.707,-1.6674,-1.6565,-1.6528,-1.6528,-1.6528,-1.6528,-1.6528,-1.6528,-1.6528,-1.6528,-1.6528,-1.6528,-1.6528,-1.6528,-1.6528,-1.6528,-1.6528,-1.6528,-1.6528,-1.6528,-1.6528,-1.6528,-1.6528,-1.6479,-1.6386,-1.6485,-1.6479,-1.6479,-1.6479,-1.6472,-1.6479,-1.6528,-1.6528,-1.6528,-1.6528,-1.6528,-1.6528,-1.6528,-1.6528,-1.6528,-1.6528,-1.6528,-1.6528,-1.6528,-1.6528,-1.6528,-1.6528,-1.6528,-1.6429,-1.6095,-1.5958,-1.9697,-1.9697,-1.9697,-1.9697,-1.9697,-1.9697,-1.9697,-1.9697,-1.9697,-1.9697,-1.9697,-1.9697,-1.9697,-1.9697,-1.9697,-1.9697,-1.9697,-1.9697,-1.9522,-1.9288,-1.9559,-1.9522,-1.9281,-1.9559,-1.9406,-1.8975,-1.9442,-1.942,-1.9006,-1.9125,-1.9088,-1.8772,-1.8727,-1.865,-1.8465,-1.865,-1.8535,-1.8138,-1.8027,-1.781,-1.7603,-1.78,-1.7799,-1.7526,-1.7637,-1.769,-1.7727,-1.8056,-1.8306,-1.8343,-1.8657,-1.8874,-1.8882,-1.8889,-1.8889,-1.8897,-1.8816,-1.8848,-1.8871,-1.8113,-1.7544,-1.7312,-1.6999,-1.671,-1.6515,-1.6528,-1.6528,-1.6528,-1.6528,-1.6528,-1.6528,-1.6528,-1.6528,-1.6528,-1.6528,-1.6528,-1.6528,-1.6528,-1.6528,-1.6528,-1.6528,-1.6528,-1.6528,-1.6528,-1.6528,-1.6528,-1.6485,-1.6374,-1.6051,-1.6244,-1.6337,-1.6051,-1.5958,-1.6145,-1.6386,-1.6528,-1.6485,-1.6485,-1.6528,-1.6528,-1.6528,-1.6528,-1.6528,-1.6528,-1.6528,-1.6528,-1.6528,-1.6528,-1.6528,-1.6485,-1.6528,-1.6528,-1.6528,-1.6008,-1.5814,-1.9697,-1.9697,-1.9697,-1.9697,-1.9697,-1.9697,-1.9697,-1.9697,-1.9697,-1.9697,-1.9697,-1.9697,-1.9697,-1.9697,-1.9697,-1.9697,-1.9697,-1.9697,-1.9486,-1.9169,-1.953,-1.9486,-1.9207,-1.9486,-1.9325,-1.8862,-1.9207,-1.9207,-1.8727,-1.8696,-1.8489,-1.8138,-1.8099,-1.802,-1.79,-1.802,-1.794,-1.7666,-1.7388,-1.7229,-1.717,-1.7523,-1.7745,-1.7747,-1.7812,-1.7893,-1.8044,-1.8503,-1.8817,-1.8994,-1.9313,-1.9479,-1.9486,-1.9361,-1.9244,-1.9207,-1.8727,-1.8451,-1.8465,-1.7585,-1.707,-1.7028,-1.6716,-1.6528,-1.6528,-1.6528,-1.6528,-1.6528,-1.6528,-1.6528,-1.6528,-1.6528,-1.6528,-1.6528,-1.6528,-1.6528,-1.6528,-1.6528,-1.6528,-1.6528,-1.6528,-1.6528,-1.6528,-1.6528,-1.6528,-1.6528,-1.6331,-1.6145,-1.572,-1.5826,-1.5794,-1.5416,-1.5371,-1.5676,-1.6287,-1.6287,-1.6331,-1.6479,-1.6528,-1.6528,-1.6528,-1.6528,-1.6528,-1.6528,-1.6528,-1.6528,-1.6528,-1.6528,-1.6436,-1.6436,-1.6386,-1.6244,-1.6188,-1.5638,-1.5186,-1.9697,-1.9697,-1.9682,-1.9654,-1.9697,-1.9654,-1.9654,-1.9574,-1.9654,-1.9654,-1.961,-1.9654,-1.969,-1.9654,-1.961,-1.9697,-1.9697,-1.9654,-1.9559,-1.9479,-1.9566,-1.9646,-1.9646,-1.9682,-1.9132,-1.8256,-1.8696,-1.865,-1.8178,-1.8138,-1.8145,-1.8073,-1.802,-1.778,-1.747,-1.778,-1.7585,-1.6795,-1.7028,-1.7028,-1.6667,-1.7072,-1.7308,-1.737,-1.7805,-1.8282,-1.8749,-1.8844,-1.9111,-1.9615,-1.9222,-1.8975,-1.89,-1.8489,-1.8256,-1.8178,-1.7706,-1.7429,-1.7388,-1.6915,-1.6601,-1.6558,-1.6558,-1.6528,-1.6528,-1.6528,-1.6528,-1.6528,-1.6528,-1.6528,-1.6528,-1.6528,-1.6528,-1.6528,-1.6528,-1.6528,-1.6528,-1.6528,-1.6528,-1.6528,-1.6528,-1.6528,-1.6528,-1.6528,-1.6479,-1.6337,-1.6002,-1.5588,-1.5404,-1.5096,-1.4886,-1.4795,-1.4841,-1.5152,-1.6157,-1.597,-1.592,-1.6244,-1.6429,-1.6485,-1.6485,-1.6528,-1.6485,-1.6479,-1.6386,-1.6386,-1.6485,-1.6436,-1.638,-1.6194,-1.587,-1.5732,-1.582,-1.4687,-1.4231,-1.8703,-1.8688,-1.8688,-1.865,-1.8688,-1.8696,-1.8703,-1.8688,-1.865,-1.8688,-1.8688,-1.8696,-1.8688,-1.8703,-1.8696,-1.8885,-1.9125,-1.8848,-1.8489,-1.827,-1.8489,-1.8489,-1.8217,-1.8496,-1.8302,-1.7787,-1.8152,-1.8099,-1.7632,-1.7592,-1.7388,-1.7118,-1.707,-1.6951,-1.6873,-1.6993,-1.6831,-1.6552,-1.6716,-1.6674,-1.6558,-1.6674,-1.6801,-1.6844,-1.7673,-1.8334,-1.8885,-1.8885,-1.9006,-1.9162,-1.9288,-1.9095,-1.8458,-1.8224,-1.8099,-1.8059,-1.7585,-1.7305,-1.7229,-1.6808,-1.6528,-1.6528,-1.6528,-1.6528,-1.6528,-1.6528,-1.6528,-1.6528,-1.6528,-1.6528,-1.6528,-1.6528,-1.6528,-1.6528,-1.6528,-1.6528,-1.6528,-1.6528,-1.6528,-1.6528,-1.6528,-1.6528,-1.6436,-1.6485,-1.6337,-1.6002,-1.5726,-1.527,-1.4675,-1.4555,-1.4525,-1.4247,-1.4143,-1.4416,-1.5152,-1.5197,-1.5236,-1.5958,-1.6281,-1.6244,-1.6244,-1.6014,-1.592,-1.6157,-1.6151,-1.5964,-1.5876,-1.5656,-1.5694,-1.5782,-1.546,-1.5231,-1.5543,-1.4416,-1.3915,-1.8099,-1.8099,-1.8099,-1.8099,-1.8099,-1.8099,-1.8099,-1.8099,-1.8099,-1.8099,-1.8099,-1.8099,-1.8099,-1.8059,-1.79,-1.8027,-1.8341,-1.8185,-1.79,-1.7626,-1.794,-1.79,-1.7666,-1.794,-1.782,-1.7394,-1.7463,-1.7388,-1.707,-1.7028,-1.6831,-1.6515,-1.6528,-1.6528,-1.6528,-1.6528,-1.6528,-1.6528,-1.6528,-1.6528,-1.6528,-1.6528,-1.6528,-1.6601,-1.7236,-1.7827,-1.8334,-1.838,-1.8489,-1.865,-1.8848,-1.8528,-1.7706,-1.7598,-1.7585,-1.7544,-1.7271,-1.7028,-1.6999,-1.6729,-1.6528,-1.6528,-1.6528,-1.6528,-1.6528,-1.6528,-1.6528,-1.6528,-1.6528,-1.6528,-1.6528,-1.6528,-1.6528,-1.6528,-1.6528,-1.6528,-1.6528,-1.6528,-1.6374,-1.6238,-1.6145,-1.6101,-1.5976,-1.5888,-1.5694,-1.5326,-1.5186,-1.4641,-1.4045,-1.3915,-1.4019,-1.36,-1.351,-1.3784,-1.4242,-1.4288,-1.456,-1.5192,-1.5599,-1.5694,-1.5738,-1.5511,-1.546,-1.5738,-1.5688,-1.541,-1.5186,-1.492,-1.4971,-1.5192,-1.4869,-1.4549,-1.4457,-1.4138,-1.3689,-1.8059,-1.8027,-1.8059,-1.798,-1.794,-1.794,-1.802,-1.7987,-1.7994,-1.794,-1.786,-1.798,-1.79,-1.79,-1.747,-1.7305,-1.7429,-1.7747,-1.7907,-1.7867,-1.7947,-1.794,-1.79,-1.7867,-1.77,-1.7188,-1.6759,-1.6565,-1.6607,-1.6601,-1.6565,-1.6528,-1.6528,-1.6528,-1.6528,-1.6528,-1.6528,-1.6528,-1.6528,-1.6528,-1.6528,-1.6528,-1.6528,-1.6528,-1.6601,-1.6873,-1.7305,-1.7388,-1.7666,-1.798,-1.7713,-1.7111,-1.6795,-1.668,-1.6565,-1.6644,-1.6558,-1.6515,-1.6522,-1.6528,-1.6528,-1.6528,-1.6528,-1.6528,-1.6528,-1.6528,-1.6528,-1.6528,-1.6528,-1.6528,-1.6528,-1.6528,-1.6528,-1.6528,-1.6528,-1.6528,-1.6528,-1.6479,-1.6238,-1.577,-1.5638,-1.5365,-1.4926,-1.4886,-1.488,-1.4646,-1.4329,-1.3962,-1.3684,-1.342,-1.3022,-1.2978,-1.3065,-1.3329,-1.3377,-1.342,-1.3878,-1.434,-1.4612,-1.4841,-1.4977,-1.488,-1.4875,-1.5062,-1.4966,-1.4732,-1.4641,-1.4422,-1.4427,-1.4514,-1.4102,-1.3909,-1.3868,-1.3732,-1.3291,-1.6993,-1.6993,-1.6993,-1.6993,-1.6993,-1.6993,-1.6993,-1.6993,-1.6999,-1.6993,-1.6993,-1.6993,-1.6993,-1.6999,-1.6801,-1.6759,-1.6752,-1.6915,-1.6999,-1.7034,-1.7047,-1.7034,-1.7034,-1.6993,-1.6909,-1.6752,-1.6595,-1.6528,-1.6528,-1.6528,-1.6528,-1.6528,-1.6528,-1.6528,-1.6528,-1.6528,-1.6528,-1.6528,-1.6528,-1.6528,-1.6528,-1.6528,-1.6528,-1.6528,-1.6528,-1.6601,-1.6752,-1.7111,-1.7353,-1.7544,-1.774,-1.7585,-1.7111,-1.6723,-1.6528,-1.6528,-1.6528,-1.6528,-1.6528,-1.6528,-1.6528,-1.6528,-1.6528,-1.6528,-1.6528,-1.6528,-1.6528,-1.6528,-1.6528,-1.6528,-1.6528,-1.6528,-1.6528,-1.6528,-1.6528,-1.6528,-1.6479,-1.6139,-1.582,-1.5582,-1.5231,-1.4926,-1.4749,-1.4658,-1.4474,-1.4143,-1.3868,-1.3642,-1.3286,-1.306,-1.2929,-1.2886,-1.2925,-1.292,-1.306,-1.3157,-1.3387,-1.3705,-1.3931,-1.416,-1.4247,-1.4294,-1.4294,-1.4294,-1.4195,-1.4102,-1.4009,-1.3967,-1.3931,-1.3836,-1.3605,-1.3552,-1.3684,-1.3462,-1.3065,-1.6528,-1.6528,-1.6528,-1.6528,-1.6528,-1.6528,-1.6528,-1.6528,-1.6528,-1.6528,-1.6528,-1.6528,-1.6528,-1.6528,-1.6528,-1.6528,-1.6528,-1.6528,-1.6528,-1.6528,-1.6528,-1.6528,-1.6528,-1.6528,-1.6528,-1.6528,-1.6528,-1.6528,-1.6528,-1.6528,-1.6528,-1.6528,-1.6528,-1.6528,-1.6528,-1.6528,-1.6528,-1.6528,-1.6528,-1.6528,-1.6528,-1.6528,-1.6528,-1.6528,-1.6528,-1.6528,-1.6515,-1.6831,-1.6993,-1.7076,-1.7347,-1.7312,-1.6999,-1.668,-1.6528,-1.6528,-1.6528,-1.6528,-1.6528,-1.6528,-1.6528,-1.6528,-1.6528,-1.6528,-1.6528,-1.6528,-1.6528,-1.6528,-1.6528,-1.6528,-1.6528,-1.6528,-1.6528,-1.6528,-1.6528,-1.6528,-1.6429,-1.6194,-1.5688,-1.5371,-1.4932,-1.452,-1.4154,-1.4025,-1.3889,-1.3557,-1.3462,-1.3372,-1.3022,-1.2934,-1.2886,-1.2886,-1.2934,-1.2934,-1.2934,-1.2934,-1.2934,-1.3113,-1.3291,-1.3472,-1.3652,-1.3563,-1.3563,-1.3615,-1.3568,-1.3467,-1.342,-1.3291,-1.3205,-1.3109,-1.32,-1.3195,-1.3286,-1.319,-1.2925,-1.6528,-1.6528,-1.6528,-1.6528,-1.6528,-1.6528,-1.6528,-1.6528,-1.6528,-1.6528,-1.6528,-1.6528,-1.6528,-1.6528,-1.6528,-1.6528,-1.6528,-1.6528,-1.6528,-1.6528,-1.6528,-1.6528,-1.6528,-1.6528,-1.6528,-1.6528,-1.6528,-1.6528,-1.6528,-1.6528,-1.6528,-1.6528,-1.6528,-1.6528,-1.6528,-1.6528,-1.6528,-1.6528,-1.6528,-1.6528,-1.6528,-1.6528,-1.6528,-1.6528,-1.6528,-1.6528,-1.6528,-1.6558,-1.6565,-1.6528,-1.665,-1.6644,-1.6528,-1.6522,-1.6528,-1.6528,-1.6528,-1.6528,-1.6528,-1.6528,-1.6528,-1.6528,-1.6528,-1.6528,-1.6528,-1.6528,-1.6528,-1.6528,-1.6528,-1.6528,-1.6528,-1.6528,-1.6528,-1.6528,-1.6528,-1.6528,-1.6528,-1.6436,-1.5832,-1.5022,-1.4663,-1.4247,-1.3243,-1.307,-1.3027,-1.3027,-1.3017,-1.2973,-1.2929,-1.2886,-1.2886,-1.2886,-1.2886,-1.2886,-1.2886,-1.2886,-1.2886,-1.2929,-1.3065,-1.3157,-1.3248,-1.3157,-1.3065,-1.3113,-1.3113,-1.3017,-1.292,-1.2929,-1.2886,-1.2978,-1.2978,-1.2934,-1.2886,-1.2929,-1.2925,-1.6528,-1.6528,-1.6528,-1.6528,-1.6528,-1.6528,-1.6528,-1.6528,-1.6528,-1.6528,-1.6528,-1.6528,-1.6528,-1.6528,-1.6528,-1.6528,-1.6528,-1.6528,-1.6528,-1.6528,-1.6528,-1.6528,-1.6528,-1.6528,-1.6528,-1.6528,-1.6528,-1.6528,-1.6528,-1.6528,-1.6528,-1.6528,-1.6528,-1.6528,-1.6528,-1.6528,-1.6528,-1.6528,-1.6528,-1.6528,-1.6528,-1.6528,-1.6528,-1.6528,-1.6528,-1.6528,-1.6528,-1.6528,-1.6528,-1.6528,-1.6528,-1.6528,-1.6528,-1.6528,-1.6528,-1.6528,-1.6528,-1.6528,-1.6528,-1.6528,-1.6528,-1.6528,-1.6528,-1.6528,-1.6528,-1.6528,-1.6528,-1.6528,-1.6528,-1.6528,-1.6528,-1.6528,-1.6528,-1.6528,-1.6528,-1.6528,-1.6436,-1.6107,-1.5511,-1.4835,-1.4376,-1.3784,-1.3243,-1.2934,-1.2934,-1.2886,-1.2886,-1.2886,-1.2886,-1.2886,-1.2886,-1.2886,-1.2886,-1.2886,-1.2886,-1.2886,-1.2886,-1.2886,-1.2929,-1.2978,-1.3022,-1.2978,-1.2978,-1.2934,-1.2978,-1.2929,-1.2929,-1.2886,-1.2886,-1.2886,-1.2886,-1.2886,-1.2886,-1.2934,-1.2934,-1.6528,-1.6528,-1.6528,-1.6528,-1.6528,-1.6528,-1.6528,-1.6528,-1.6528,-1.6528,-1.6528,-1.6528,-1.6528,-1.6528,-1.6528,-1.6528,-1.6528,-1.6528,-1.6528,-1.6528,-1.6528,-1.6528,-1.6528,-1.6528,-1.6528,-1.6528,-1.6528,-1.6528,-1.6528,-1.6528,-1.6528,-1.6528,-1.6528,-1.6528,-1.6528,-1.6528,-1.6528,-1.6528,-1.6528,-1.6528,-1.6528,-1.6528,-1.6528,-1.6528,-1.6528,-1.6528,-1.6528,-1.6528,-1.6528,-1.6528,-1.6528,-1.6528,-1.6528,-1.6528,-1.6528,-1.6528,-1.6528,-1.6528,-1.6528,-1.6528,-1.6528,-1.6528,-1.6528,-1.6528,-1.6528,-1.6528,-1.6528,-1.6528,-1.6528,-1.6528,-1.6528,-1.6528,-1.6528,-1.6528,-1.6528,-1.6528,-1.6528,-1.625,-1.5738,-1.5147,-1.456,-1.3967,-1.3377,-1.3104,-1.2925,-1.2886,-1.2886,-1.2886,-1.2886,-1.2886,-1.2886,-1.2886,-1.2886,-1.2886,-1.2886,-1.2886,-1.2886,-1.2886,-1.2886,-1.2886,-1.2886,-1.2886,-1.2886,-1.2886,-1.2886,-1.2886,-1.2886,-1.2886,-1.2886,-1.2886,-1.2886,-1.2886,-1.2886,-1.2886,-1.2886,-1.6528,-1.6528,-1.6528,-1.6528,-1.6528,-1.6528,-1.6528,-1.6528,-1.6528,-1.6528,-1.6528,-1.6528,-1.6528,-1.6528,-1.6528,-1.6528,-1.6528,-1.6528,-1.6528,-1.6528,-1.6528,-1.6528,-1.6528,-1.6528,-1.6528,-1.6528,-1.6528,-1.6528,-1.6528,-1.6528,-1.6528,-1.6528,-1.6528,-1.6528,-1.6528,-1.6528,-1.6528,-1.6528,-1.6528,-1.6528,-1.6528,-1.6528,-1.6528,-1.6528,-1.6528,-1.6528,-1.6528,-1.6528,-1.6528,-1.6528,-1.6528,-1.6528,-1.6528,-1.6528,-1.6528,-1.6528,-1.6528,-1.6528,-1.6528,-1.6528,-1.6528,-1.6528,-1.6528,-1.6528,-1.6528,-1.6528,-1.6528,-1.6528,-1.6528,-1.6528,-1.6528,-1.6528,-1.6528,-1.6528,-1.6528,-1.6528,-1.6528,-1.6528,-1.6287,-1.567,-1.5101,-1.4566,-1.3967,-1.342,-1.3027,-1.32,-1.3113,-1.2886,-1.2886,-1.2886,-1.2886,-1.2886,-1.2886,-1.2886,-1.2886,-1.2886,-1.2886,-1.2886,-1.2886,-1.2886,-1.2886,-1.2886,-1.2886,-1.2886,-1.2886,-1.2886,-1.2886,-1.2886,-1.2886,-1.2886,-1.2886,-1.2886,-1.2886,-1.2886,-1.2886,-1.6528,-1.6528,-1.6528,-1.6528,-1.6528,-1.6528,-1.6528,-1.6528,-1.6528,-1.6528,-1.6528,-1.6528,-1.6528,-1.6528,-1.6528,-1.6528,-1.6528,-1.6528,-1.6528,-1.6528,-1.6528,-1.6528,-1.6528,-1.6528,-1.6528,-1.6528,-1.6528,-1.6528,-1.6528,-1.6528,-1.6528,-1.6528,-1.6528,-1.6528,-1.6528,-1.6528,-1.6528,-1.6528,-1.6528,-1.6528,-1.6528,-1.6528,-1.6528,-1.6528,-1.6528,-1.6528,-1.6528,-1.6528,-1.6528,-1.6528,-1.6528,-1.6528,-1.6528,-1.6528,-1.6528,-1.6528,-1.6528,-1.6528,-1.6528,-1.6528,-1.6528,-1.6528,-1.6528,-1.6528,-1.6528,-1.6528,-1.6528,-1.6528,-1.6528,-1.6528,-1.6528,-1.6528,-1.6528,-1.6528,-1.6528,-1.6528,-1.6528,-1.6528,-1.6238,-1.577,-1.5493,-1.518,-1.456,-1.3962,-1.3647,-1.3557,-1.3291,-1.2978,-1.2934,-1.2978,-1.2886,-1.2886,-1.2886,-1.2886,-1.2886,-1.2886,-1.2886,-1.2886,-1.2886,-1.2886,-1.2886,-1.2886,-1.2886,-1.2886,-1.2886,-1.2886,-1.2886,-1.2886,-1.2886,-1.2886,-1.2886,-1.2886,-1.2886,-1.2886,-1.2886,-1.6528,-1.6528,-1.6528,-1.6528,-1.6528,-1.6528,-1.6528,-1.6528,-1.6528,-1.6528,-1.6528,-1.6528,-1.6528,-1.6528,-1.6528,-1.6528,-1.6528,-1.6528,-1.6528,-1.6528,-1.6528,-1.6528,-1.6528,-1.6528,-1.6528,-1.6528,-1.6528,-1.6528,-1.6528,-1.6528,-1.6528,-1.6528,-1.6528,-1.6528,-1.6528,-1.6528,-1.6528,-1.6528,-1.6528,-1.6528,-1.6528,-1.6528,-1.6528,-1.6528,-1.6528,-1.6528,-1.6528,-1.6528,-1.6528,-1.6528,-1.6528,-1.6528,-1.6528,-1.6528,-1.6528,-1.6528,-1.6528,-1.6528,-1.6528,-1.6528,-1.6528,-1.6528,-1.6528,-1.6528,-1.6528,-1.6528,-1.6528,-1.6528,-1.6528,-1.6528,-1.6528,-1.6528,-1.6528,-1.6528,-1.6528,-1.6528,-1.6528,-1.6479,-1.638,-1.6008,-1.5764,-1.5499,-1.505,-1.4549,-1.4283,-1.4195,-1.3737,-1.3425,-1.3243,-1.3243,-1.2978,-1.2886,-1.2886,-1.2886,-1.2886,-1.2886,-1.2886,-1.2886,-1.2886,-1.2886,-1.2886,-1.2886,-1.2886,-1.2886,-1.2886,-1.2886,-1.2886,-1.2886,-1.2886,-1.2886,-1.2886,-1.2886,-1.2886,-1.2886,-1.2886,-1.6528,-1.6528,-1.6528,-1.6528,-1.6528,-1.6528,-1.6528,-1.6528,-1.6528,-1.6528,-1.6528,-1.6528,-1.6528,-1.6528,-1.6528,-1.6528,-1.6528,-1.6528,-1.6528,-1.6528,-1.6528,-1.6528,-1.6528,-1.6528,-1.6528,-1.6528,-1.6528,-1.6528,-1.6528,-1.6528,-1.6528,-1.6528,-1.6528,-1.6528,-1.6528,-1.6528,-1.6528,-1.6528,-1.6528,-1.6528,-1.6528,-1.6528,-1.6528,-1.6528,-1.6528,-1.6528,-1.6528,-1.6528,-1.6528,-1.6528,-1.6528,-1.6528,-1.6528,-1.6528,-1.6528,-1.6528,-1.6528,-1.6528,-1.6528,-1.6528,-1.6528,-1.6528,-1.6528,-1.6528,-1.6528,-1.6528,-1.6528,-1.6528,-1.6528,-1.6528,-1.6528,-1.6528,-1.6528,-1.6528,-1.6528,-1.6528,-1.6528,-1.6528,-1.6479,-1.6423,-1.6145,-1.587,-1.5594,-1.5231,-1.5005,-1.4738,-1.4277,-1.3915,-1.3779,-1.36,-1.343,-1.32,-1.3243,-1.3027,-1.2983,-1.2886,-1.2886,-1.2886,-1.2886,-1.2886,-1.2886,-1.2886,-1.2886,-1.2886,-1.2886,-1.2886,-1.2886,-1.2886,-1.2886,-1.2886,-1.2886,-1.2886,-1.2886,-1.2886,-1.2886,-1.6528,-1.6528,-1.6528,-1.6528,-1.6528,-1.6528,-1.6528,-1.6528,-1.6528,-1.6528,-1.6528,-1.6528,-1.6528,-1.6528,-1.6528,-1.6528,-1.6528,-1.6528,-1.6528,-1.6528,-1.6528,-1.6528,-1.6528,-1.6528,-1.6528,-1.6528,-1.6528,-1.6528,-1.6528,-1.6528,-1.6528,-1.6528,-1.6528,-1.6528,-1.6528,-1.6528,-1.6528,-1.6528,-1.6528,-1.6528,-1.6528,-1.6528,-1.6528,-1.6528,-1.6528,-1.6528,-1.6528,-1.6528,-1.6528,-1.6528,-1.6528,-1.6528,-1.6528,-1.6528,-1.6528,-1.6528,-1.6528,-1.6528,-1.6528,-1.6528,-1.6528,-1.6528,-1.6528,-1.6528,-1.6528,-1.6528,-1.6528,-1.6528,-1.6528,-1.6528,-1.6528,-1.6528,-1.6528,-1.6528,-1.6528,-1.6528,-1.6528,-1.6528,-1.6528,-1.6485,-1.6386,-1.6287,-1.6008,-1.5776,-1.5599,-1.5281,-1.4915,-1.4641,-1.4509,-1.4329,-1.4149,-1.392,-1.3684,-1.3334,-1.3027,-1.2934,-1.2886,-1.2886,-1.2886,-1.2886,-1.2886,-1.2886,-1.2886,-1.2886,-1.2886,-1.2886,-1.2886,-1.2886,-1.2886,-1.2886,-1.2886,-1.2886,-1.2886,-1.2886,-1.2886,-1.6528,-1.6528,-1.6528,-1.6528,-1.6528,-1.6528,-1.6528,-1.6528,-1.6528,-1.6528,-1.6528,-1.6528,-1.6528,-1.6528,-1.6528,-1.6528,-1.6528,-1.6528,-1.6528,-1.6528,-1.6528,-1.6528,-1.6528,-1.6528,-1.6528,-1.6528,-1.6528,-1.6528,-1.6528,-1.6528,-1.6528,-1.6528,-1.6528,-1.6528,-1.6528,-1.6528,-1.6528,-1.6528,-1.6528,-1.6528,-1.6528,-1.6528,-1.6528,-1.6528,-1.6528,-1.6528,-1.6528,-1.6528,-1.6528,-1.6528,-1.6528,-1.6528,-1.6528,-1.6528,-1.6528,-1.6528,-1.6528,-1.6528,-1.6528,-1.6528,-1.6528,-1.6528,-1.6528,-1.6528,-1.6528,-1.6528,-1.6528,-1.6528,-1.6528,-1.6528,-1.6528,-1.6528,-1.6528,-1.6528,-1.6528,-1.6528,-1.6528,-1.6528,-1.6528,-1.6528,-1.6436,-1.6429,-1.6429,-1.6244,-1.6101,-1.5826,-1.5505,-1.5326,-1.5192,-1.4966,-1.4784,-1.4422,-1.4097,-1.3652,-1.3296,-1.3113,-1.3065,-1.3022,-1.2886,-1.2886,-1.2886,-1.2886,-1.2886,-1.2886,-1.2886,-1.2886,-1.2886,-1.2886,-1.2886,-1.2886,-1.2886,-1.2886,-1.2886,-1.2886,-1.2886,-1.6528,-1.6528,-1.6528,-1.6528,-1.6528,-1.6528,-1.6528,-1.6528,-1.6528,-1.6528,-1.6528,-1.6528,-1.6528,-1.6528,-1.6528,-1.6528,-1.6528,-1.6528,-1.6528,-1.6528,-1.6528,-1.6528,-1.6528,-1.6528,-1.6528,-1.6528,-1.6528,-1.6528,-1.6528,-1.6528,-1.6528,-1.6528,-1.6528,-1.6528,-1.6528,-1.6528,-1.6528,-1.6528,-1.6528,-1.6528,-1.6528,-1.6528,-1.6528,-1.6528,-1.6528,-1.6528,-1.6528,-1.6528,-1.6528,-1.6528,-1.6528,-1.6528,-1.6528,-1.6528,-1.6528,-1.6528,-1.6528,-1.6528,-1.6528,-1.6528,-1.6528,-1.6528,-1.6528,-1.6528,-1.6528,-1.6528,-1.6528,-1.6528,-1.6528,-1.6528,-1.6528,-1.6528,-1.6528,-1.6528,-1.6528,-1.6528,-1.6528,-1.6528,-1.6528,-1.6528,-1.6528,-1.6485,-1.6479,-1.6479,-1.6293,-1.6244,-1.592,-1.5876,-1.5738,-1.5561,-1.5287,-1.488,-1.4468,-1.3972,-1.361,-1.3382,-1.3329,-1.3329,-1.3065,-1.2886,-1.2886,-1.2886,-1.2934,-1.2934,-1.2886,-1.2886,-1.2886,-1.2886,-1.2886,-1.2886,-1.2886,-1.2886,-1.2886,-1.2886,-1.2886,-1.6528,-1.6528,-1.6528,-1.6528,-1.6528,-1.6528,-1.6528,-1.6528,-1.6528,-1.6528,-1.6528,-1.6528,-1.6528,-1.6528,-1.6528,-1.6528,-1.6528,-1.6528,-1.6528,-1.6528,-1.6528,-1.6528,-1.6528,-1.6528,-1.6528,-1.6528,-1.6528,-1.6528,-1.6528,-1.6528,-1.6528,-1.6528,-1.6528,-1.6528,-1.6528,-1.6528,-1.6528,-1.6528,-1.6528,-1.6528,-1.6528,-1.6528,-1.6528,-1.6528,-1.6528,-1.6528,-1.6528,-1.6528,-1.6528,-1.6528,-1.6528,-1.6528,-1.6528,-1.6528,-1.6528,-1.6528,-1.6528,-1.6528,-1.6528,-1.6528,-1.6528,-1.6528,-1.6528,-1.6528,-1.6528,-1.6528,-1.6528,-1.6528,-1.6528,-1.6528,-1.6528,-1.6528,-1.6528,-1.6528,-1.6528,-1.6528,-1.6528,-1.6528,-1.6528,-1.6528,-1.6528,-1.6528,-1.6485,-1.6528,-1.6485,-1.6479,-1.6429,-1.638,-1.6287,-1.602,-1.5694,-1.5281,-1.4966,-1.452,-1.4113,-1.3836,-1.3742,-1.3684,-1.3467,-1.3162,-1.3109,-1.3109,-1.2929,-1.2929,-1.2934,-1.2886,-1.2886,-1.2886,-1.2886,-1.2886,-1.2886,-1.2886,-1.2886,-1.2886,-1.2886,-1.6528,-1.6528,-1.6528,-1.6528,-1.6528,-1.6528,-1.6528,-1.6528,-1.6528,-1.6528,-1.6528,-1.6528,-1.6528,-1.6528,-1.6528,-1.6528,-1.6528,-1.6528,-1.6528,-1.6528,-1.6528,-1.6528,-1.6528,-1.6528,-1.6528,-1.6528,-1.6528,-1.6528,-1.6528,-1.6528,-1.6528,-1.6528,-1.6528,-1.6528,-1.6528,-1.6528,-1.6528,-1.6528,-1.6528,-1.6528,-1.6528,-1.6528,-1.6528,-1.6528,-1.6528,-1.6528,-1.6528,-1.6528,-1.6528,-1.6528,-1.6528,-1.6528,-1.6528,-1.6528,-1.6528,-1.6528,-1.6528,-1.6528,-1.6528,-1.6528,-1.6528,-1.6528,-1.6528,-1.6528,-1.6528,-1.6528,-1.6528,-1.6528,-1.6528,-1.6528,-1.6528,-1.6528,-1.6528,-1.6528,-1.6528,-1.6528,-1.6528,-1.6528,-1.6528,-1.6528,-1.6528,-1.6528,-1.6528,-1.6528,-1.6528,-1.6485,-1.6479,-1.6436,-1.6436,-1.6343,-1.6014,-1.5594,-1.5326,-1.5056,-1.4698,-1.4381,-1.434,-1.4288,-1.4242,-1.3931,-1.3552,-1.3415,-1.3286,-1.3065,-1.2929,-1.2934,-1.2934,-1.2886,-1.2886,-1.2886,-1.2886,-1.2886,-1.2886,-1.2886,-1.2886,-1.6528,-1.6528,-1.6528,-1.6528,-1.6528,-1.6528,-1.6528,-1.6528,-1.6528,-1.6528,-1.6528,-1.6528,-1.6528,-1.6528,-1.6528,-1.6528,-1.6528,-1.6528,-1.6528,-1.6528,-1.6528,-1.6528,-1.6528,-1.6528,-1.6528,-1.6528,-1.6528,-1.6528,-1.6528,-1.6528,-1.6528,-1.6528,-1.6528,-1.6528,-1.6528,-1.6528,-1.6528,-1.6528,-1.6528,-1.6528,-1.6528,-1.6528,-1.6528,-1.6528,-1.6528,-1.6528,-1.6528,-1.6528,-1.6528,-1.6528,-1.6528,-1.6528,-1.6528,-1.6528,-1.6528,-1.6528,-1.6528,-1.6528,-1.6528,-1.6528,-1.6528,-1.6528,-1.6528,-1.6528,-1.6528,-1.6528,-1.6528,-1.6528,-1.6528,-1.6528,-1.6528,-1.6528,-1.6528,-1.6528,-1.6528,-1.6528,-1.6528,-1.6528,-1.6528,-1.6528,-1.6528,-1.6528,-1.6528,-1.6528,-1.6528,-1.6528,-1.6528,-1.6528,-1.6528,-1.6528,-1.63,-1.592,-1.5876,-1.5694,-1.5466,-1.5152,-1.5068,-1.4886,-1.4841,-1.4612,-1.419,-1.3915,-1.3826,-1.3515,-1.3113,-1.2973,-1.3022,-1.2978,-1.2886,-1.2886,-1.2886,-1.2886,-1.2886,-1.2886,-1.2886,-1.6528,-1.6528,-1.6528,-1.6528,-1.6528,-1.6528,-1.6528,-1.6528,-1.6528,-1.6528,-1.6528,-1.6528,-1.6528,-1.6528,-1.6528,-1.6528,-1.6528,-1.6528,-1.6528,-1.6528,-1.6528,-1.6528,-1.6528,-1.6528,-1.6528,-1.6528,-1.6528,-1.6528,-1.6528,-1.6528,-1.6528,-1.6528,-1.6528,-1.6528,-1.6528,-1.6528,-1.6528,-1.6528,-1.6528,-1.6528,-1.6528,-1.6528,-1.6528,-1.6528,-1.6528,-1.6528,-1.6528,-1.6528,-1.6528,-1.6528,-1.6528,-1.6528,-1.6528,-1.6528,-1.6528,-1.6528,-1.6528,-1.6528,-1.6528,-1.6528,-1.6528,-1.6528,-1.6528,-1.6528,-1.6528,-1.6528,-1.6528,-1.6528,-1.6528,-1.6528,-1.6528,-1.6528,-1.6528,-1.6528,-1.6528,-1.6528,-1.6528,-1.6528,-1.6528,-1.6528,-1.6528,-1.6528,-1.6528,-1.6528,-1.6528,-1.6528,-1.6528,-1.6528,-1.6528,-1.6528,-1.6528,-1.6343,-1.6386,-1.6343,-1.6287,-1.6058,-1.565,-1.5472,-1.5377,-1.5062,-1.4698,-1.4514,-1.4236,-1.3784,-1.3377,-1.3243,-1.3065,-1.2978,-1.2886,-1.2886,-1.2886,-1.2886,-1.2886,-1.2886,-1.2886,-1.6528,-1.6528,-1.6528,-1.6528,-1.6528,-1.6528,-1.6528,-1.6528,-1.6528,-1.6528,-1.6528,-1.6528,-1.6528,-1.6528,-1.6528,-1.6528,-1.6528,-1.6528,-1.6528,-1.6528,-1.6528,-1.6528,-1.6528,-1.6528,-1.6528,-1.6528,-1.6528,-1.6528,-1.6528,-1.6528,-1.6528,-1.6528,-1.6528,-1.6528,-1.6528,-1.6528,-1.6528,-1.6528,-1.6528,-1.6528,-1.6528,-1.6528,-1.6528,-1.6528,-1.6528,-1.6528,-1.6528,-1.6528,-1.6528,-1.6528,-1.6528,-1.6528,-1.6528,-1.6528,-1.6528,-1.6528,-1.6528,-1.6528,-1.6528,-1.6528,-1.6528,-1.6528,-1.6528,-1.6528,-1.6528,-1.6528,-1.6528,-1.6528,-1.6528,-1.6528,-1.6528,-1.6528,-1.6528,-1.6528,-1.6528,-1.6528,-1.6528,-1.6528,-1.6528,-1.6528,-1.6528,-1.6528,-1.6528,-1.6528,-1.6528,-1.6528,-1.6528,-1.6528,-1.6528,-1.6528,-1.6528,-1.6528,-1.6528,-1.6528,-1.6472,-1.6287,-1.6145,-1.6008,-1.5826,-1.5599,-1.5242,-1.4749,-1.4427,-1.4014,-1.3552,-1.3238,-1.3017,-1.2929,-1.2886,-1.2886,-1.2886,-1.2886,-1.2886,-1.2886,-1.2886,-1.6528,-1.6528,-1.6528,-1.6528,-1.6528,-1.6528,-1.6528,-1.6528,-1.6528,-1.6528,-1.6528,-1.6528,-1.6528,-1.6528,-1.6528,-1.6528,-1.6528,-1.6528,-1.6528,-1.6528,-1.6528,-1.6528,-1.6528,-1.6528,-1.6528,-1.6528,-1.6528,-1.6528,-1.6528,-1.6528,-1.6528,-1.6528,-1.6528,-1.6528,-1.6528,-1.6528,-1.6528,-1.6528,-1.6528,-1.6528,-1.6528,-1.6528,-1.6528,-1.6528,-1.6528,-1.6528,-1.6528,-1.6528,-1.6528,-1.6528,-1.6528,-1.6528,-1.6528,-1.6528,-1.6528,-1.6528,-1.6528,-1.6528,-1.6528,-1.6528,-1.6528,-1.6528,-1.6528,-1.6528,-1.6528,-1.6528,-1.6528,-1.6528,-1.6528,-1.6528,-1.6528,-1.6528,-1.6528,-1.6528,-1.6528,-1.6528,-1.6528,-1.6528,-1.6528,-1.6528,-1.6528,-1.6528,-1.6528,-1.6528,-1.6528,-1.6528,-1.6528,-1.6528,-1.6528,-1.6528,-1.6528,-1.6528,-1.6528,-1.6528,-1.6485,-1.6386,-1.6293,-1.6293,-1.6201,-1.6145,-1.5826,-1.5242,-1.4703,-1.4335,-1.3831,-1.3238,-1.2968,-1.2929,-1.2934,-1.2886,-1.2886,-1.2886,-1.2886,-1.2886,-1.2886,-1.6528,-1.6528,-1.6528,-1.6528,-1.6528,-1.6528,-1.6528,-1.6528,-1.6528,-1.6528,-1.6528,-1.6528,-1.6528,-1.6528,-1.6528,-1.6528,-1.6528,-1.6528,-1.6528,-1.6528,-1.6528,-1.6528,-1.6528,-1.6528,-1.6528,-1.6528,-1.6528,-1.6528,-1.6528,-1.6528,-1.6528,-1.6528,-1.6528,-1.6528,-1.6528,-1.6528,-1.6528,-1.6528,-1.6528,-1.6528,-1.6528,-1.6528,-1.6528,-1.6528,-1.6528,-1.6528,-1.6528,-1.6528,-1.6528,-1.6528,-1.6528,-1.6528,-1.6528,-1.6528,-1.6528,-1.6528,-1.6528,-1.6528,-1.6528,-1.6528,-1.6528,-1.6528,-1.6528,-1.6528,-1.6528,-1.6528,-1.6528,-1.6528,-1.6528,-1.6528,-1.6528,-1.6528,-1.6528,-1.6528,-1.6528,-1.6528,-1.6528,-1.6528,-1.6528,-1.6528,-1.6528,-1.6528,-1.6528,-1.6528,-1.6528,-1.6528,-1.6528,-1.6528,-1.6528,-1.6528,-1.6528,-1.6528,-1.6528,-1.6528,-1.6528,-1.6528,-1.6485,-1.6528,-1.6479,-1.638,-1.6095,-1.5555,-1.5056,-1.4698,-1.4107,-1.3462,-1.3147,-1.2925,-1.2929,-1.2886,-1.2886,-1.2886,-1.2886,-1.2886,-1.2886,-1.6528,-1.6528,-1.6528,-1.6528,-1.6528,-1.6528,-1.6528,-1.6528,-1.6528,-1.6528,-1.6528,-1.6528,-1.6528,-1.6528,-1.6528,-1.6528,-1.6528,-1.6528,-1.6528,-1.6528,-1.6528,-1.6528,-1.6528,-1.6528,-1.6528,-1.6528,-1.6528,-1.6528,-1.6528,-1.6528,-1.6528,-1.6528,-1.6528,-1.6528,-1.6528,-1.6528,-1.6528,-1.6528,-1.6528,-1.6528,-1.6528,-1.6528,-1.6528,-1.6528,-1.6528,-1.6528,-1.6528,-1.6528,-1.6528,-1.6528,-1.6528,-1.6528,-1.6528,-1.6528,-1.6528,-1.6528,-1.6528,-1.6528,-1.6528,-1.6528,-1.6528,-1.6528,-1.6528,-1.6528,-1.6528,-1.6528,-1.6528,-1.6528,-1.6528,-1.6528,-1.6528,-1.6528,-1.6528,-1.6528,-1.6528,-1.6528,-1.6528,-1.6528,-1.6528,-1.6528,-1.6528,-1.6528,-1.6528,-1.6528,-1.6528,-1.6528,-1.6528,-1.6528,-1.6528,-1.6528,-1.6528,-1.6528,-1.6528,-1.6528,-1.6528,-1.6528,-1.6528,-1.6528,-1.6528,-1.6479,-1.6151,-1.5644,-1.5326,-1.492,-1.4329,-1.3732,-1.3372,-1.306,-1.2929,-1.2886,-1.2886,-1.2886,-1.2886,-1.2886,-1.2886,-1.6528,-1.6528,-1.6528,-1.6528,-1.6528,-1.6528,-1.6528,-1.6528,-1.6528,-1.6528,-1.6528,-1.6528,-1.6528,-1.6528,-1.6528,-1.6528,-1.6528,-1.6528,-1.6528,-1.6528,-1.6528,-1.6528,-1.6528,-1.6528,-1.6528,-1.6528,-1.6528,-1.6528,-1.6528,-1.6528,-1.6528,-1.6528,-1.6528,-1.6528,-1.6528,-1.6528,-1.6528,-1.6528,-1.6528,-1.6528,-1.6528,-1.6528,-1.6528,-1.6528,-1.6528,-1.6528,-1.6528,-1.6528,-1.6528,-1.6528,-1.6528,-1.6528,-1.6528,-1.6528,-1.6528,-1.6528,-1.6528,-1.6528,-1.6528,-1.6528,-1.6528,-1.6528,-1.6528,-1.6528,-1.6528,-1.6528,-1.6528,-1.6528,-1.6528,-1.6528,-1.6528,-1.6528,-1.6528,-1.6528,-1.6528,-1.6528,-1.6528,-1.6528,-1.6528,-1.6528,-1.6528,-1.6528,-1.6528,-1.6528,-1.6528,-1.6528,-1.6528,-1.6485,-1.6485,-1.6479,-1.6485,-1.6528,-1.6485,-1.6485,-1.6485,-1.6528,-1.6528,-1.6528,-1.6436,-1.6293,-1.5976,-1.5466,-1.5281,-1.5005,-1.4102,-1.3467,-1.3372,-1.3195,-1.2973,-1.2886,-1.2886,-1.2886,-1.2886,-1.2886,-1.2886,-1.6528,-1.6528,-1.6528,-1.6528,-1.6528,-1.6528,-1.6528,-1.6528,-1.6528,-1.6528,-1.6528,-1.6528,-1.6528,-1.6528,-1.6528,-1.6528,-1.6528,-1.6528,-1.6528,-1.6528,-1.6528,-1.6528,-1.6528,-1.6528,-1.6528,-1.6528,-1.6528,-1.6528,-1.6528,-1.6528,-1.6528,-1.6528,-1.6528,-1.6528,-1.6528,-1.6528,-1.6528,-1.6528,-1.6528,-1.6528,-1.6528,-1.6528,-1.6528,-1.6528,-1.6528,-1.6528,-1.6528,-1.6528,-1.6528,-1.6528,-1.6528,-1.6528,-1.6528,-1.6528,-1.6528,-1.6528,-1.6528,-1.6528,-1.6528,-1.6528,-1.6528,-1.6528,-1.6528,-1.6528,-1.6528,-1.6528,-1.6528,-1.6528,-1.6528,-1.6528,-1.6528,-1.6528,-1.6528,-1.6528,-1.6528,-1.6528,-1.6528,-1.6528,-1.6528,-1.6528,-1.6528,-1.6528,-1.6528,-1.6528,-1.6528,-1.6528,-1.6479,-1.6331,-1.6331,-1.6472,-1.6472,-1.6528,-1.6485,-1.6479,-1.6436,-1.6386,-1.612,-1.5976,-1.597,-1.5826,-1.5511,-1.5242,-1.5011,-1.4514,-1.3652,-1.3243,-1.3377,-1.3243,-1.2978,-1.2886,-1.2886,-1.2886,-1.2886,-1.2886,-1.2886,-1.6528,-1.6528,-1.6528,-1.6528,-1.6528,-1.6528,-1.6528,-1.6528,-1.6528,-1.6528,-1.6528,-1.6528,-1.6528,-1.6528,-1.6528,-1.6528,-1.6528,-1.6528,-1.6528,-1.6528,-1.6528,-1.6528,-1.6528,-1.6528,-1.6528,-1.6528,-1.6528,-1.6528,-1.6528,-1.6528,-1.6528,-1.6528,-1.6528,-1.6528,-1.6528,-1.6528,-1.6528,-1.6528,-1.6528,-1.6528,-1.6528,-1.6528,-1.6528,-1.6528,-1.6528,-1.6528,-1.6528,-1.6528,-1.6528,-1.6528,-1.6528,-1.6528,-1.6528,-1.6528,-1.6528,-1.6528,-1.6528,-1.6528,-1.6528,-1.6528,-1.6528,-1.6528,-1.6528,-1.6528,-1.6528,-1.6528,-1.6528,-1.6528,-1.6528,-1.6528,-1.6528,-1.6528,-1.6528,-1.6528,-1.6528,-1.6528,-1.6528,-1.6528,-1.6528,-1.6528,-1.6528,-1.6528,-1.6528,-1.6528,-1.6528,-1.6528,-1.6429,-1.6232,-1.6139,-1.6232,-1.6194,-1.6207,-1.6163,-1.6064,-1.6107,-1.6058,-1.57,-1.5472,-1.5371,-1.532,-1.5101,-1.4835,-1.4652,-1.4201,-1.3563,-1.3472,-1.3652,-1.3334,-1.2934,-1.2886,-1.2886,-1.2886,-1.2886,-1.2886,-1.2886,-1.6528,-1.6528,-1.6528,-1.6528,-1.6528,-1.6528,-1.6528,-1.6528,-1.6528,-1.6528,-1.6528,-1.6528,-1.6528,-1.6528,-1.6528,-1.6528,-1.6528,-1.6528,-1.6528,-1.6528,-1.6528,-1.6528,-1.6528,-1.6528,-1.6528,-1.6528,-1.6528,-1.6528,-1.6528,-1.6528,-1.6528,-1.6528,-1.6528,-1.6528,-1.6528,-1.6528,-1.6528,-1.6528,-1.6528,-1.6528,-1.6528,-1.6528,-1.6528,-1.6528,-1.6528,-1.6528,-1.6528,-1.6528,-1.6528,-1.6528,-1.6528,-1.6528,-1.6528,-1.6528,-1.6528,-1.6528,-1.6528,-1.6528,-1.6528,-1.6528,-1.6528,-1.6528,-1.6528,-1.6528,-1.6528,-1.6528,-1.6528,-1.6528,-1.6528,-1.6528,-1.6528,-1.6528,-1.6528,-1.6528,-1.6528,-1.6528,-1.6528,-1.6528,-1.6528,-1.6528,-1.6528,-1.6528,-1.6528,-1.6528,-1.6479,-1.6429,-1.6238,-1.5952,-1.5864,-1.5914,-1.5688,-1.5517,-1.5522,-1.5522,-1.5605,-1.5599,-1.5287,-1.4926,-1.4687,-1.4595,-1.4514,-1.4247,-1.3836,-1.37,-1.3568,-1.352,-1.343,-1.3205,-1.2886,-1.2886,-1.2886,-1.2886,-1.2886,-1.2886,-1.2886,-1.6528,-1.6528,-1.6528,-1.6528,-1.6528,-1.6528,-1.6528,-1.6528,-1.6528,-1.6528,-1.6528,-1.6528,-1.6528,-1.6528,-1.6528,-1.6528,-1.6528,-1.6528,-1.6528,-1.6528,-1.6528,-1.6528,-1.6528,-1.6528,-1.6528,-1.6528,-1.6528,-1.6528,-1.6528,-1.6528,-1.6528,-1.6528,-1.6528,-1.6528,-1.6528,-1.6528,-1.6528,-1.6528,-1.6528,-1.6528,-1.6528,-1.6528,-1.6528,-1.6528,-1.6528,-1.6528,-1.6528,-1.6528,-1.6528,-1.6528,-1.6528,-1.6528,-1.6528,-1.6528,-1.6528,-1.6528,-1.6528,-1.6528,-1.6528,-1.6528,-1.6528,-1.6528,-1.6528,-1.6528,-1.6528,-1.6528,-1.6528,-1.6528,-1.6528,-1.6528,-1.6528,-1.6528,-1.6528,-1.6528,-1.6528,-1.6528,-1.6528,-1.6528,-1.6528,-1.6528,-1.6528,-1.6528,-1.6528,-1.6485,-1.6337,-1.6281,-1.6095,-1.572,-1.5315,-1.532,-1.5236,-1.488,-1.5068,-1.5068,-1.4835,-1.4835,-1.4703,-1.4427,-1.4138,-1.3962,-1.3978,-1.3568,-1.3022,-1.32,-1.3472,-1.3157,-1.2978,-1.2886,-1.2886,-1.2886,-1.2886,-1.2886,-1.2886,-1.2886,-1.2886,-1.6528,-1.6528,-1.6528,-1.6528,-1.6485,-1.6528,-1.6485,-1.6528,-1.6528,-1.6479,-1.6528,-1.6528,-1.6528,-1.6528,-1.6528,-1.6528,-1.6528,-1.6528,-1.6528,-1.6528,-1.6528,-1.6528,-1.6528,-1.6528,-1.6528,-1.6528,-1.6528,-1.6528,-1.6528,-1.6528,-1.6528,-1.6528,-1.6528,-1.6528,-1.6528,-1.6528,-1.6528,-1.6528,-1.6528,-1.6528,-1.6528,-1.6528,-1.6528,-1.6528,-1.6528,-1.6528,-1.6528,-1.6528,-1.6528,-1.6528,-1.6528,-1.6528,-1.6528,-1.6528,-1.6528,-1.6528,-1.6528,-1.6528,-1.6528,-1.6528,-1.6528,-1.6528,-1.6528,-1.6528,-1.6528,-1.6528,-1.6528,-1.6528,-1.6528,-1.6528,-1.6528,-1.6528,-1.6528,-1.6528,-1.6528,-1.6528,-1.6528,-1.6528,-1.6528,-1.6528,-1.6528,-1.6485,-1.6485,-1.6386,-1.6238,-1.6045,-1.5814,-1.5398,-1.4584,-1.4365,-1.4549,-1.4422,-1.4658,-1.4658,-1.4335,-1.4154,-1.4066,-1.3931,-1.3647,-1.3515,-1.3483,-1.3205,-1.2973,-1.3238,-1.3372,-1.3065,-1.2886,-1.2886,-1.2886,-1.2886,-1.2886,-1.2886,-1.2886,-1.2886,-1.2886,-1.6528,-1.6479,-1.6188,-1.5964,-1.575,-1.57,-1.5832,-1.6051,-1.6095,-1.6281,-1.6479,-1.6528,-1.6528,-1.6485,-1.6528,-1.6528,-1.6528,-1.6528,-1.6528,-1.6528,-1.6528,-1.6528,-1.6528,-1.6528,-1.6528,-1.6528,-1.6528,-1.6528,-1.6528,-1.6528,-1.6528,-1.6528,-1.6528,-1.6528,-1.6528,-1.6528,-1.6528,-1.6528,-1.6528,-1.6528,-1.6528,-1.6528,-1.6528,-1.6528,-1.6528,-1.6528,-1.6528,-1.6528,-1.6528,-1.6528,-1.6528,-1.6528,-1.6528,-1.6528,-1.6528,-1.6528,-1.6528,-1.6528,-1.6528,-1.6528,-1.6528,-1.6528,-1.6528,-1.6528,-1.6528,-1.6528,-1.6528,-1.6528,-1.6528,-1.6528,-1.6528,-1.6528,-1.6528,-1.6528,-1.6528,-1.6528,-1.6528,-1.6528,-1.6528,-1.6528,-1.6436,-1.6287,-1.6194,-1.5958,-1.577,-1.5242,-1.5096,-1.4858,-1.4086,-1.3595,-1.3737,-1.3878,-1.4066,-1.3978,-1.3568,-1.3472,-1.3472,-1.3334,-1.3238,-1.32,-1.3162,-1.3065,-1.2963,-1.3152,-1.32,-1.3022,-1.2886,-1.2886,-1.2886,-1.2886,-1.2886,-1.2886,-1.2886,-1.2886,-1.2886,-1.6528,-1.6429,-1.5864,-1.5365,-1.4971,-1.488,-1.5242,-1.5682,-1.5676,-1.5958,-1.6429,-1.6386,-1.6429,-1.6479,-1.6528,-1.6528,-1.6528,-1.6528,-1.6528,-1.6528,-1.6528,-1.6528,-1.6528,-1.6528,-1.6528,-1.6528,-1.6528,-1.6528,-1.6528,-1.6528,-1.6528,-1.6528,-1.6528,-1.6528,-1.6528,-1.6528,-1.6528,-1.6528,-1.6528,-1.6528,-1.6528,-1.6528,-1.6528,-1.6528,-1.6528,-1.6528,-1.6528,-1.6528,-1.6528,-1.6528,-1.6528,-1.6528,-1.6528,-1.6528,-1.6528,-1.6528,-1.6528,-1.6528,-1.6528,-1.6528,-1.6528,-1.6528,-1.6528,-1.6528,-1.6528,-1.6528,-1.6528,-1.6528,-1.6528,-1.6528,-1.6528,-1.6528,-1.6528,-1.6528,-1.6528,-1.6528,-1.6528,-1.6485,-1.6485,-1.6479,-1.6287,-1.6095,-1.5858,-1.5626,-1.5135,-1.4652,-1.4242,-1.3962,-1.3637,-1.3377,-1.3291,-1.3339,-1.3387,-1.3162,-1.2978,-1.3017,-1.3152,-1.3109,-1.3065,-1.2978,-1.2886,-1.2929,-1.2929,-1.2929,-1.2934,-1.2886,-1.2886,-1.2886,-1.2886,-1.2886,-1.2886,-1.2886,-1.2886,-1.2886,-1.2886,-1.6528,-1.6472,-1.5864,-1.5776,-1.6014,-1.5594,-1.5776,-1.6188,-1.5776,-1.5958,-1.6201,-1.6002,-1.6002,-1.6485,-1.6528,-1.6528,-1.6528,-1.6528,-1.6528,-1.6528,-1.6528,-1.6528,-1.6528,-1.6528,-1.6528,-1.6528,-1.6528,-1.6528,-1.6442,-1.6485,-1.6485,-1.6436,-1.6429,-1.6429,-1.6466,-1.6472,-1.6429,-1.6479,-1.6528,-1.6528,-1.6479,-1.6479,-1.6528,-1.6528,-1.6528,-1.6528,-1.6528,-1.6528,-1.6528,-1.6528,-1.6528,-1.6528,-1.6528,-1.6528,-1.6528,-1.6528,-1.6528,-1.6528,-1.6528,-1.6528,-1.6528,-1.6528,-1.6528,-1.6528,-1.6528,-1.6528,-1.6528,-1.6528,-1.6528,-1.6528,-1.6528,-1.6528,-1.6528,-1.6528,-1.6528,-1.6528,-1.6528,-1.6429,-1.638,-1.6194,-1.5964,-1.5732,-1.5499,-1.5135,-1.4595,-1.4149,-1.392,-1.3595,-1.3286,-1.3065,-1.2886,-1.2886,-1.2886,-1.2886,-1.2934,-1.2934,-1.2978,-1.2934,-1.2886,-1.2886,-1.2886,-1.2886,-1.2886,-1.2886,-1.2886,-1.2886,-1.2886,-1.2886,-1.2886,-1.2886,-1.2886,-1.2886,-1.2886,-1.2886,-1.2886]}]]